<?xml version='1.0' encoding='UTF-8'?><gpx version="1.1" creator="JPX - https://github.com/jenetics/jpx" xmlns="http://www.topografix.com/GPX/1/1"><trk><trkseg><trkpt lat="45.3123061" lon="10.6596167"><ele>56.00000000000001</ele><time>2026-04-18T08:19:08.033Z</time></trkpt><trkpt lat="45.3123816" lon="10.6596488"><ele>56.0</ele><time>2026-04-18T08:19:09.034Z</time></trkpt><trkpt lat="45.3124644" lon="10.6596782"><ele>56.0</ele><time>2026-04-18T08:19:10.034Z</time></trkpt><trkpt lat="45.3125409" lon="10.6596901"><ele>56.0</ele><time>2026-04-18T08:19:11.034Z</time></trkpt><trkpt lat="45.3126056" lon="10.6596946"><ele>56.00000000000001</ele><time>2026-04-18T08:19:12.035Z</time></trkpt><trkpt lat="45.312701" lon="10.6596591"><ele>56.0</ele><time>2026-04-18T08:19:14.034Z</time></trkpt><trkpt lat="45.3127758" lon="10.6595623"><ele>56.00000000000001</ele><time>2026-04-18T08:19:16.033Z</time></trkpt><trkpt lat="45.3128636" lon="10.659486"><ele>56.0</ele><time>2026-04-18T08:19:18.034Z</time></trkpt><trkpt lat="45.3129547" lon="10.6594595"><ele>56.0</ele><time>2026-04-18T08:19:20.035Z</time></trkpt><trkpt lat="45.313027" lon="10.6595258"><ele>56.0</ele><time>2026-04-18T08:19:22.034Z</time></trkpt><trkpt lat="45.3130926" lon="10.6595579"><ele>56.00000000000001</ele><time>2026-04-18T08:19:24.033Z</time></trkpt><trkpt lat="45.3131455" lon="10.659639"><ele>56.0</ele><time>2026-04-18T08:19:26.034Z</time></trkpt><trkpt lat="45.3131729" lon="10.6597246"><ele>56.599999999999994</ele><time>2026-04-18T08:19:27.034Z</time></trkpt><trkpt lat="45.3131968" lon="10.6598211"><ele>57.199999999999996</ele><time>2026-04-18T08:19:28.034Z</time></trkpt><trkpt lat="45.3132165" lon="10.6599307"><ele>57.800000000000004</ele><time>2026-04-18T08:19:29.034Z</time></trkpt><trkpt lat="45.3132332" lon="10.660064"><ele>58.400000000000006</ele><time>2026-04-18T08:19:30.034Z</time></trkpt><trkpt lat="45.3132518" lon="10.6602089"><ele>59.0</ele><time>2026-04-18T08:19:31.033Z</time></trkpt><trkpt lat="45.3132769" lon="10.6603506"><ele>59.2</ele><time>2026-04-18T08:19:32.034Z</time></trkpt><trkpt lat="45.313297" lon="10.6604941"><ele>59.400000000000006</ele><time>2026-04-18T08:19:33.034Z</time></trkpt><trkpt lat="45.3133101" lon="10.6606456"><ele>59.6</ele><time>2026-04-18T08:19:34.034Z</time></trkpt><trkpt lat="45.313318" lon="10.6608019"><ele>59.8</ele><time>2026-04-18T08:19:35.034Z</time></trkpt><trkpt lat="45.3133215" lon="10.6609604"><ele>60.0</ele><time>2026-04-18T08:19:36.034Z</time></trkpt><trkpt lat="45.3133182" lon="10.6611151"><ele>60.4</ele><time>2026-04-18T08:19:37.033Z</time></trkpt><trkpt lat="45.3133055" lon="10.661274"><ele>60.8</ele><time>2026-04-18T08:19:38.034Z</time></trkpt><trkpt lat="45.3132773" lon="10.6614172"><ele>61.2</ele><time>2026-04-18T08:19:39.034Z</time></trkpt><trkpt lat="45.3132459" lon="10.661567"><ele>61.6</ele><time>2026-04-18T08:19:40.034Z</time></trkpt><trkpt lat="45.3132125" lon="10.6617146"><ele>62.0</ele><time>2026-04-18T08:19:41.034Z</time></trkpt><trkpt lat="45.3131758" lon="10.6618679"><ele>62.0</ele><time>2026-04-18T08:19:42.034Z</time></trkpt><trkpt lat="45.3131411" lon="10.6620157"><ele>62.0</ele><time>2026-04-18T08:19:43.034Z</time></trkpt><trkpt lat="45.3131047" lon="10.662174"><ele>62.0</ele><time>2026-04-18T08:19:44.033Z</time></trkpt><trkpt lat="45.3130734" lon="10.6623513"><ele>62.0</ele><time>2026-04-18T08:19:45.035Z</time></trkpt><trkpt lat="45.3130255" lon="10.6625288"><ele>61.0</ele><time>2026-04-18T08:19:46.033Z</time></trkpt><trkpt lat="45.3129832" lon="10.66271"><ele>60.0</ele><time>2026-04-18T08:19:47.034Z</time></trkpt><trkpt lat="45.3129403" lon="10.6628899"><ele>59.0</ele><time>2026-04-18T08:19:48.034Z</time></trkpt><trkpt lat="45.312896" lon="10.6630681"><ele>58.0</ele><time>2026-04-18T08:19:49.034Z</time></trkpt><trkpt lat="45.3128519" lon="10.6632496"><ele>57.75</ele><time>2026-04-18T08:19:50.033Z</time></trkpt><trkpt lat="45.3128008" lon="10.6634265"><ele>57.5</ele><time>2026-04-18T08:19:51.034Z</time></trkpt><trkpt lat="45.3127537" lon="10.663608"><ele>57.25</ele><time>2026-04-18T08:19:52.032Z</time></trkpt><trkpt lat="45.312709" lon="10.6637903"><ele>57.0</ele><time>2026-04-18T08:19:53.034Z</time></trkpt><trkpt lat="45.3126629" lon="10.663983"><ele>57.0</ele><time>2026-04-18T08:19:54.033Z</time></trkpt><trkpt lat="45.3126154" lon="10.6641787"><ele>57.0</ele><time>2026-04-18T08:19:55.034Z</time></trkpt><trkpt lat="45.312572" lon="10.6643587"><ele>57.0</ele><time>2026-04-18T08:19:56.034Z</time></trkpt><trkpt lat="45.3125271" lon="10.6645493"><ele>57.0</ele><time>2026-04-18T08:19:57.034Z</time></trkpt><trkpt lat="45.3124819" lon="10.6647499"><ele>57.0</ele><time>2026-04-18T08:19:58.034Z</time></trkpt><trkpt lat="45.3124327" lon="10.6649515"><ele>57.0</ele><time>2026-04-18T08:19:59.034Z</time></trkpt><trkpt lat="45.3123892" lon="10.6651309"><ele>57.0</ele><time>2026-04-18T08:20:00.034Z</time></trkpt><trkpt lat="45.3123477" lon="10.665307"><ele>57.0</ele><time>2026-04-18T08:20:01.034Z</time></trkpt><trkpt lat="45.3123058" lon="10.6654822"><ele>57.25</ele><time>2026-04-18T08:20:02.033Z</time></trkpt><trkpt lat="45.3122627" lon="10.6656543"><ele>57.5</ele><time>2026-04-18T08:20:03.034Z</time></trkpt><trkpt lat="45.3122171" lon="10.665831"><ele>57.75</ele><time>2026-04-18T08:20:04.034Z</time></trkpt><trkpt lat="45.3121624" lon="10.6660102"><ele>58.0</ele><time>2026-04-18T08:20:05.034Z</time></trkpt><trkpt lat="45.3121011" lon="10.6661895"><ele>58.25</ele><time>2026-04-18T08:20:06.034Z</time></trkpt><trkpt lat="45.3120344" lon="10.6663602"><ele>58.5</ele><time>2026-04-18T08:20:07.034Z</time></trkpt><trkpt lat="45.3119646" lon="10.6665229"><ele>58.75</ele><time>2026-04-18T08:20:08.034Z</time></trkpt><trkpt lat="45.3118901" lon="10.6666798"><ele>59.0</ele><time>2026-04-18T08:20:09.034Z</time></trkpt><trkpt lat="45.31181" lon="10.6668276"><ele>58.75</ele><time>2026-04-18T08:20:10.033Z</time></trkpt><trkpt lat="45.311724" lon="10.666968"><ele>58.5</ele><time>2026-04-18T08:20:11.034Z</time></trkpt><trkpt lat="45.3116345" lon="10.6671104"><ele>58.25</ele><time>2026-04-18T08:20:12.034Z</time></trkpt><trkpt lat="45.3115583" lon="10.6672358"><ele>58.0</ele><time>2026-04-18T08:20:13.034Z</time></trkpt><trkpt lat="45.3114808" lon="10.667356"><ele>57.75</ele><time>2026-04-18T08:20:14.034Z</time></trkpt><trkpt lat="45.3114011" lon="10.6674836"><ele>57.5</ele><time>2026-04-18T08:20:15.034Z</time></trkpt><trkpt lat="45.3113134" lon="10.6676194"><ele>57.25</ele><time>2026-04-18T08:20:16.034Z</time></trkpt><trkpt lat="45.3112272" lon="10.6677542"><ele>57.0</ele><time>2026-04-18T08:20:17.033Z</time></trkpt><trkpt lat="45.311154" lon="10.6678714"><ele>57.0</ele><time>2026-04-18T08:20:18.034Z</time></trkpt><trkpt lat="45.3110847" lon="10.6679796"><ele>57.0</ele><time>2026-04-18T08:20:19.034Z</time></trkpt><trkpt lat="45.3110222" lon="10.6680702"><ele>57.0</ele><time>2026-04-18T08:20:20.034Z</time></trkpt><trkpt lat="45.3109709" lon="10.6681492"><ele>57.0</ele><time>2026-04-18T08:20:21.034Z</time></trkpt><trkpt lat="45.3108925" lon="10.6682682"><ele>57.0</ele><time>2026-04-18T08:20:23.034Z</time></trkpt><trkpt lat="45.3108716" lon="10.6683844"><ele>57.0</ele><time>2026-04-18T08:20:25.034Z</time></trkpt><trkpt lat="45.3109115" lon="10.6684691"><ele>57.0</ele><time>2026-04-18T08:20:27.034Z</time></trkpt><trkpt lat="45.3109929" lon="10.6685773"><ele>57.0</ele><time>2026-04-18T08:20:30.034Z</time></trkpt><trkpt lat="45.3110404" lon="10.6686398"><ele>57.0</ele><time>2026-04-18T08:20:31.033Z</time></trkpt><trkpt lat="45.3110933" lon="10.6687062"><ele>57.0</ele><time>2026-04-18T08:20:32.034Z</time></trkpt><trkpt lat="45.3111526" lon="10.6687746"><ele>57.0</ele><time>2026-04-18T08:20:33.034Z</time></trkpt><trkpt lat="45.311217" lon="10.6688286"><ele>57.166666666666664</ele><time>2026-04-18T08:20:34.034Z</time></trkpt><trkpt lat="45.3112907" lon="10.668867"><ele>57.33333333333333</ele><time>2026-04-18T08:20:35.034Z</time></trkpt><trkpt lat="45.311379" lon="10.6688843"><ele>57.5</ele><time>2026-04-18T08:20:36.034Z</time></trkpt><trkpt lat="45.3114651" lon="10.6688713"><ele>57.666666666666664</ele><time>2026-04-18T08:20:37.034Z</time></trkpt><trkpt lat="45.3115516" lon="10.6688282"><ele>57.83333333333333</ele><time>2026-04-18T08:20:38.034Z</time></trkpt><trkpt lat="45.3116417" lon="10.6687694"><ele>58.0</ele><time>2026-04-18T08:20:39.034Z</time></trkpt><trkpt lat="45.3117314" lon="10.6686998"><ele>58.25</ele><time>2026-04-18T08:20:40.034Z</time></trkpt><trkpt lat="45.3118292" lon="10.6686309"><ele>58.5</ele><time>2026-04-18T08:20:41.034Z</time></trkpt><trkpt lat="45.3119435" lon="10.6685856"><ele>58.75</ele><time>2026-04-18T08:20:42.035Z</time></trkpt><trkpt lat="45.3120645" lon="10.6685292"><ele>59.0</ele><time>2026-04-18T08:20:43.034Z</time></trkpt><trkpt lat="45.312185" lon="10.668473"><ele>60.0</ele><time>2026-04-18T08:20:44.034Z</time></trkpt><trkpt lat="45.3123113" lon="10.6684186"><ele>61.0</ele><time>2026-04-18T08:20:45.034Z</time></trkpt><trkpt lat="45.3124402" lon="10.6683687"><ele>62.0</ele><time>2026-04-18T08:20:46.034Z</time></trkpt><trkpt lat="45.3125731" lon="10.6683108"><ele>63.0</ele><time>2026-04-18T08:20:47.033Z</time></trkpt><trkpt lat="45.3127067" lon="10.6682432"><ele>63.0</ele><time>2026-04-18T08:20:48.034Z</time></trkpt><trkpt lat="45.3128385" lon="10.6681646"><ele>63.0</ele><time>2026-04-18T08:20:49.034Z</time></trkpt><trkpt lat="45.3129693" lon="10.668081"><ele>63.0</ele><time>2026-04-18T08:20:50.034Z</time></trkpt><trkpt lat="45.3131004" lon="10.66799"><ele>63.0</ele><time>2026-04-18T08:20:51.033Z</time></trkpt><trkpt lat="45.3132358" lon="10.6679166"><ele>63.25</ele><time>2026-04-18T08:20:52.034Z</time></trkpt><trkpt lat="45.313373" lon="10.6678544"><ele>63.5</ele><time>2026-04-18T08:20:53.034Z</time></trkpt><trkpt lat="45.3135102" lon="10.6678028"><ele>63.75</ele><time>2026-04-18T08:20:54.033Z</time></trkpt><trkpt lat="45.3136329" lon="10.6677503"><ele>64.0</ele><time>2026-04-18T08:20:55.033Z</time></trkpt><trkpt lat="45.3137421" lon="10.6677125"><ele>64.0</ele><time>2026-04-18T08:20:56.033Z</time></trkpt><trkpt lat="45.3138329" lon="10.6676782"><ele>64.0</ele><time>2026-04-18T08:20:57.034Z</time></trkpt><trkpt lat="45.3139008" lon="10.6676579"><ele>64.0</ele><time>2026-04-18T08:20:58.032Z</time></trkpt><trkpt lat="45.3140018" lon="10.6676839"><ele>64.0</ele><time>2026-04-18T08:21:00.033Z</time></trkpt><trkpt lat="45.3140286" lon="10.6677846"><ele>64.0</ele><time>2026-04-18T08:21:02.035Z</time></trkpt><trkpt lat="45.3139802" lon="10.6679913"><ele>64.0</ele><time>2026-04-18T08:21:04.034Z</time></trkpt><trkpt lat="45.3139451" lon="10.6681072"><ele>64.0</ele><time>2026-04-18T08:21:05.034Z</time></trkpt><trkpt lat="45.313918" lon="10.6682235"><ele>64.0</ele><time>2026-04-18T08:21:06.033Z</time></trkpt><trkpt lat="45.3138899" lon="10.6683418"><ele>64.0</ele><time>2026-04-18T08:21:07.034Z</time></trkpt><trkpt lat="45.3138621" lon="10.6684768"><ele>64.0</ele><time>2026-04-18T08:21:08.033Z</time></trkpt><trkpt lat="45.3138276" lon="10.6686228"><ele>64.75</ele><time>2026-04-18T08:21:09.034Z</time></trkpt><trkpt lat="45.3137911" lon="10.6687767"><ele>65.5</ele><time>2026-04-18T08:21:10.034Z</time></trkpt><trkpt lat="45.313754" lon="10.6689225"><ele>66.25</ele><time>2026-04-18T08:21:11.034Z</time></trkpt><trkpt lat="45.3137168" lon="10.6690787"><ele>67.0</ele><time>2026-04-18T08:21:12.034Z</time></trkpt><trkpt lat="45.3136738" lon="10.6692317"><ele>67.0</ele><time>2026-04-18T08:21:13.034Z</time></trkpt><trkpt lat="45.3136338" lon="10.6693846"><ele>67.0</ele><time>2026-04-18T08:21:14.033Z</time></trkpt><trkpt lat="45.3136016" lon="10.6695314"><ele>67.0</ele><time>2026-04-18T08:21:15.034Z</time></trkpt><trkpt lat="45.3135722" lon="10.6696615"><ele>67.0</ele><time>2026-04-18T08:21:16.033Z</time></trkpt><trkpt lat="45.3135428" lon="10.6697862"><ele>67.0</ele><time>2026-04-18T08:21:17.033Z</time></trkpt><trkpt lat="45.3135073" lon="10.6699045"><ele>67.4</ele><time>2026-04-18T08:21:18.033Z</time></trkpt><trkpt lat="45.3134514" lon="10.6700079"><ele>67.80000000000001</ele><time>2026-04-18T08:21:19.035Z</time></trkpt><trkpt lat="45.3133833" lon="10.6701289"><ele>68.2</ele><time>2026-04-18T08:21:20.034Z</time></trkpt><trkpt lat="45.3133171" lon="10.6702507"><ele>68.60000000000001</ele><time>2026-04-18T08:21:21.035Z</time></trkpt><trkpt lat="45.3132498" lon="10.6703789"><ele>69.0</ele><time>2026-04-18T08:21:22.032Z</time></trkpt><trkpt lat="45.3131827" lon="10.6705106"><ele>69.25</ele><time>2026-04-18T08:21:23.034Z</time></trkpt><trkpt lat="45.3131102" lon="10.6706304"><ele>69.5</ele><time>2026-04-18T08:21:24.034Z</time></trkpt><trkpt lat="45.3130406" lon="10.6707641"><ele>69.75</ele><time>2026-04-18T08:21:25.034Z</time></trkpt><trkpt lat="45.3129735" lon="10.67091"><ele>70.0</ele><time>2026-04-18T08:21:26.034Z</time></trkpt><trkpt lat="45.3129128" lon="10.6710551"><ele>68.8</ele><time>2026-04-18T08:21:27.034Z</time></trkpt><trkpt lat="45.3128523" lon="10.6712003"><ele>67.6</ele><time>2026-04-18T08:21:28.033Z</time></trkpt><trkpt lat="45.3127991" lon="10.6713424"><ele>66.4</ele><time>2026-04-18T08:21:29.032Z</time></trkpt><trkpt lat="45.3127471" lon="10.6714709"><ele>65.2</ele><time>2026-04-18T08:21:30.032Z</time></trkpt><trkpt lat="45.3127081" lon="10.6715879"><ele>64.0</ele><time>2026-04-18T08:21:31.033Z</time></trkpt><trkpt lat="45.3126795" lon="10.6717026"><ele>64.0</ele><time>2026-04-18T08:21:32.034Z</time></trkpt><trkpt lat="45.3126653" lon="10.6718178"><ele>64.0</ele><time>2026-04-18T08:21:33.033Z</time></trkpt><trkpt lat="45.3126653" lon="10.6719381"><ele>64.0</ele><time>2026-04-18T08:21:34.033Z</time></trkpt><trkpt lat="45.3126607" lon="10.6720703"><ele>64.0</ele><time>2026-04-18T08:21:35.032Z</time></trkpt><trkpt lat="45.3126652" lon="10.67221"><ele>64.0</ele><time>2026-04-18T08:21:36.034Z</time></trkpt><trkpt lat="45.3126703" lon="10.6723649"><ele>63.25</ele><time>2026-04-18T08:21:37.034Z</time></trkpt><trkpt lat="45.3126771" lon="10.6725255"><ele>62.5</ele><time>2026-04-18T08:21:38.034Z</time></trkpt><trkpt lat="45.3126825" lon="10.6726815"><ele>61.75</ele><time>2026-04-18T08:21:39.033Z</time></trkpt><trkpt lat="45.312693" lon="10.6728479"><ele>61.0</ele><time>2026-04-18T08:21:40.034Z</time></trkpt><trkpt lat="45.3127098" lon="10.6730169"><ele>60.8</ele><time>2026-04-18T08:21:41.034Z</time></trkpt><trkpt lat="45.3127242" lon="10.6731875"><ele>60.599999999999994</ele><time>2026-04-18T08:21:42.034Z</time></trkpt><trkpt lat="45.3127381" lon="10.6733555"><ele>60.4</ele><time>2026-04-18T08:21:43.034Z</time></trkpt><trkpt lat="45.3127587" lon="10.6735058"><ele>60.2</ele><time>2026-04-18T08:21:44.035Z</time></trkpt><trkpt lat="45.3127811" lon="10.6736376"><ele>60.0</ele><time>2026-04-18T08:21:45.034Z</time></trkpt><trkpt lat="45.3128055" lon="10.6737694"><ele>60.0</ele><time>2026-04-18T08:21:46.034Z</time></trkpt><trkpt lat="45.3128266" lon="10.6739144"><ele>60.0</ele><time>2026-04-18T08:21:47.034Z</time></trkpt><trkpt lat="45.3128477" lon="10.6740578"><ele>60.0</ele><time>2026-04-18T08:21:48.034Z</time></trkpt><trkpt lat="45.3128582" lon="10.6741914"><ele>60.0</ele><time>2026-04-18T08:21:49.034Z</time></trkpt><trkpt lat="45.3128646" lon="10.674326"><ele>60.0</ele><time>2026-04-18T08:21:50.033Z</time></trkpt><trkpt lat="45.3128689" lon="10.6744468"><ele>60.0</ele><time>2026-04-18T08:21:51.033Z</time></trkpt><trkpt lat="45.3128694" lon="10.6745865"><ele>60.0</ele><time>2026-04-18T08:21:52.034Z</time></trkpt><trkpt lat="45.312865" lon="10.6747167"><ele>60.0</ele><time>2026-04-18T08:21:53.034Z</time></trkpt><trkpt lat="45.3128597" lon="10.6748405"><ele>60.0</ele><time>2026-04-18T08:21:54.034Z</time></trkpt><trkpt lat="45.3128574" lon="10.674952"><ele>60.0</ele><time>2026-04-18T08:21:55.034Z</time></trkpt><trkpt lat="45.3128546" lon="10.6750533"><ele>60.0</ele><time>2026-04-18T08:21:56.033Z</time></trkpt><trkpt lat="45.31285" lon="10.6751538"><ele>60.0</ele><time>2026-04-18T08:21:57.033Z</time></trkpt><trkpt lat="45.3128454" lon="10.6752643"><ele>60.0</ele><time>2026-04-18T08:21:58.034Z</time></trkpt><trkpt lat="45.3128387" lon="10.6753886"><ele>60.0</ele><time>2026-04-18T08:21:59.034Z</time></trkpt><trkpt lat="45.3128337" lon="10.6755179"><ele>60.0</ele><time>2026-04-18T08:22:00.034Z</time></trkpt><trkpt lat="45.3128283" lon="10.6756509"><ele>60.0</ele><time>2026-04-18T08:22:01.034Z</time></trkpt><trkpt lat="45.3128218" lon="10.6757865"><ele>60.0</ele><time>2026-04-18T08:22:02.033Z</time></trkpt><trkpt lat="45.3128183" lon="10.6759301"><ele>60.0</ele><time>2026-04-18T08:22:03.034Z</time></trkpt><trkpt lat="45.3128129" lon="10.6760657"><ele>60.0</ele><time>2026-04-18T08:22:04.034Z</time></trkpt><trkpt lat="45.3128072" lon="10.6761875"><ele>60.0</ele><time>2026-04-18T08:22:05.034Z</time></trkpt><trkpt lat="45.3128048" lon="10.6763089"><ele>60.0</ele><time>2026-04-18T08:22:06.034Z</time></trkpt><trkpt lat="45.3128025" lon="10.6764368"><ele>60.0</ele><time>2026-04-18T08:22:07.034Z</time></trkpt><trkpt lat="45.3128015" lon="10.6765696"><ele>60.0</ele><time>2026-04-18T08:22:08.032Z</time></trkpt><trkpt lat="45.312799" lon="10.6766901"><ele>60.0</ele><time>2026-04-18T08:22:09.033Z</time></trkpt><trkpt lat="45.3127874" lon="10.67681"><ele>60.0</ele><time>2026-04-18T08:22:10.034Z</time></trkpt><trkpt lat="45.3127776" lon="10.6769312"><ele>60.0</ele><time>2026-04-18T08:22:11.034Z</time></trkpt><trkpt lat="45.3127622" lon="10.6770613"><ele>60.0</ele><time>2026-04-18T08:22:12.033Z</time></trkpt><trkpt lat="45.3127365" lon="10.6772018"><ele>59.75</ele><time>2026-04-18T08:22:13.034Z</time></trkpt><trkpt lat="45.3127065" lon="10.6773506"><ele>59.5</ele><time>2026-04-18T08:22:14.033Z</time></trkpt><trkpt lat="45.3126814" lon="10.6775106"><ele>59.25</ele><time>2026-04-18T08:22:15.034Z</time></trkpt><trkpt lat="45.31265" lon="10.6776817"><ele>59.0</ele><time>2026-04-18T08:22:16.033Z</time></trkpt><trkpt lat="45.3126217" lon="10.6778632"><ele>59.400000000000006</ele><time>2026-04-18T08:22:17.032Z</time></trkpt><trkpt lat="45.3125921" lon="10.6780334"><ele>59.800000000000004</ele><time>2026-04-18T08:22:18.034Z</time></trkpt><trkpt lat="45.3125688" lon="10.678185"><ele>60.199999999999996</ele><time>2026-04-18T08:22:19.033Z</time></trkpt><trkpt lat="45.3125511" lon="10.678305"><ele>60.599999999999994</ele><time>2026-04-18T08:22:20.034Z</time></trkpt><trkpt lat="45.3125349" lon="10.6783948"><ele>61.0</ele><time>2026-04-18T08:22:21.033Z</time></trkpt><trkpt lat="45.3125184" lon="10.6784909"><ele>61.0</ele><time>2026-04-18T08:22:23.033Z</time></trkpt><trkpt lat="45.3126145" lon="10.6785614"><ele>60.99999999999999</ele><time>2026-04-18T08:22:26.034Z</time></trkpt><trkpt lat="45.3126737" lon="10.6786063"><ele>60.99999999999999</ele><time>2026-04-18T08:22:27.033Z</time></trkpt><trkpt lat="45.3127434" lon="10.6786688"><ele>61.0</ele><time>2026-04-18T08:22:28.034Z</time></trkpt><trkpt lat="45.3128196" lon="10.678742"><ele>61.0</ele><time>2026-04-18T08:22:29.033Z</time></trkpt><trkpt lat="45.3129052" lon="10.6788212"><ele>61.0</ele><time>2026-04-18T08:22:30.034Z</time></trkpt><trkpt lat="45.3129925" lon="10.6788971"><ele>60.99999999999999</ele><time>2026-04-18T08:22:31.034Z</time></trkpt><trkpt lat="45.3130793" lon="10.6789702"><ele>60.99999999999999</ele><time>2026-04-18T08:22:32.033Z</time></trkpt><trkpt lat="45.3131693" lon="10.67904"><ele>61.0</ele><time>2026-04-18T08:22:33.034Z</time></trkpt><trkpt lat="45.3132665" lon="10.6791083"><ele>61.0</ele><time>2026-04-18T08:22:34.034Z</time></trkpt><trkpt lat="45.3133605" lon="10.6791564"><ele>60.83333333333333</ele><time>2026-04-18T08:22:35.034Z</time></trkpt><trkpt lat="45.3134407" lon="10.6792027"><ele>60.666666666666664</ele><time>2026-04-18T08:22:36.034Z</time></trkpt><trkpt lat="45.3135145" lon="10.6792281"><ele>60.5</ele><time>2026-04-18T08:22:37.033Z</time></trkpt><trkpt lat="45.313593" lon="10.6792154"><ele>60.33333333333333</ele><time>2026-04-18T08:22:38.034Z</time></trkpt><trkpt lat="45.3136757" lon="10.6791859"><ele>60.166666666666664</ele><time>2026-04-18T08:22:39.034Z</time></trkpt><trkpt lat="45.3137585" lon="10.6791693"><ele>60.0</ele><time>2026-04-18T08:22:40.034Z</time></trkpt><trkpt lat="45.3138393" lon="10.6791852"><ele>60.0</ele><time>2026-04-18T08:22:41.034Z</time></trkpt><trkpt lat="45.3139182" lon="10.6792338"><ele>60.0</ele><time>2026-04-18T08:22:42.034Z</time></trkpt><trkpt lat="45.3140018" lon="10.679293"><ele>60.0</ele><time>2026-04-18T08:22:43.035Z</time></trkpt><trkpt lat="45.3140906" lon="10.679363"><ele>60.0</ele><time>2026-04-18T08:22:44.034Z</time></trkpt><trkpt lat="45.3141869" lon="10.6794435"><ele>60.0</ele><time>2026-04-18T08:22:45.032Z</time></trkpt><trkpt lat="45.3142881" lon="10.6795242"><ele>60.5</ele><time>2026-04-18T08:22:46.034Z</time></trkpt><trkpt lat="45.3143849" lon="10.6796118"><ele>61.0</ele><time>2026-04-18T08:22:47.034Z</time></trkpt><trkpt lat="45.3144937" lon="10.6796943"><ele>61.5</ele><time>2026-04-18T08:22:48.033Z</time></trkpt><trkpt lat="45.3145918" lon="10.6797794"><ele>62.0</ele><time>2026-04-18T08:22:49.033Z</time></trkpt><trkpt lat="45.3146921" lon="10.6798647"><ele>62.0</ele><time>2026-04-18T08:22:50.034Z</time></trkpt><trkpt lat="45.3147952" lon="10.6799557"><ele>62.0</ele><time>2026-04-18T08:22:51.033Z</time></trkpt><trkpt lat="45.3148932" lon="10.6800596"><ele>62.0</ele><time>2026-04-18T08:22:52.033Z</time></trkpt><trkpt lat="45.3149884" lon="10.6801788"><ele>62.0</ele><time>2026-04-18T08:22:53.033Z</time></trkpt><trkpt lat="45.3150769" lon="10.6802889"><ele>62.0</ele><time>2026-04-18T08:22:54.034Z</time></trkpt><trkpt lat="45.3151688" lon="10.6804033"><ele>62.0</ele><time>2026-04-18T08:22:55.034Z</time></trkpt><trkpt lat="45.3152711" lon="10.6805234"><ele>62.0</ele><time>2026-04-18T08:22:56.034Z</time></trkpt><trkpt lat="45.3153818" lon="10.6806483"><ele>62.0</ele><time>2026-04-18T08:22:57.034Z</time></trkpt><trkpt lat="45.3154936" lon="10.6807752"><ele>62.25</ele><time>2026-04-18T08:22:58.034Z</time></trkpt><trkpt lat="45.3156013" lon="10.6809004"><ele>62.5</ele><time>2026-04-18T08:22:59.034Z</time></trkpt><trkpt lat="45.3157019" lon="10.6810153"><ele>62.75</ele><time>2026-04-18T08:23:00.034Z</time></trkpt><trkpt lat="45.3157898" lon="10.6811128"><ele>63.0</ele><time>2026-04-18T08:23:01.034Z</time></trkpt><trkpt lat="45.3158734" lon="10.6812056"><ele>63.4</ele><time>2026-04-18T08:23:02.034Z</time></trkpt><trkpt lat="45.3159538" lon="10.6812982"><ele>63.8</ele><time>2026-04-18T08:23:03.035Z</time></trkpt><trkpt lat="45.3160275" lon="10.6813908"><ele>64.2</ele><time>2026-04-18T08:23:04.035Z</time></trkpt><trkpt lat="45.3160904" lon="10.6814828"><ele>64.6</ele><time>2026-04-18T08:23:05.032Z</time></trkpt><trkpt lat="45.3161399" lon="10.6815578"><ele>65.0</ele><time>2026-04-18T08:23:06.033Z</time></trkpt><trkpt lat="45.3162108" lon="10.6816476"><ele>65.0</ele><time>2026-04-18T08:23:08.033Z</time></trkpt><trkpt lat="45.3162754" lon="10.6816414"><ele>65.0</ele><time>2026-04-18T08:23:10.035Z</time></trkpt><trkpt lat="45.3163587" lon="10.6815292"><ele>65.0</ele><time>2026-04-18T08:23:12.034Z</time></trkpt><trkpt lat="45.3164146" lon="10.6814443"><ele>65.0</ele><time>2026-04-18T08:23:13.033Z</time></trkpt><trkpt lat="45.3164771" lon="10.6813461"><ele>65.0</ele><time>2026-04-18T08:23:14.034Z</time></trkpt><trkpt lat="45.3165409" lon="10.6812477"><ele>65.0</ele><time>2026-04-18T08:23:15.034Z</time></trkpt><trkpt lat="45.3166113" lon="10.6811357"><ele>65.25</ele><time>2026-04-18T08:23:16.034Z</time></trkpt><trkpt lat="45.3166883" lon="10.6810233"><ele>65.5</ele><time>2026-04-18T08:23:17.034Z</time></trkpt><trkpt lat="45.3167704" lon="10.6809044"><ele>65.75</ele><time>2026-04-18T08:23:18.034Z</time></trkpt><trkpt lat="45.3168555" lon="10.680773"><ele>66.0</ele><time>2026-04-18T08:23:19.034Z</time></trkpt><trkpt lat="45.3169433" lon="10.6806343"><ele>66.0</ele><time>2026-04-18T08:23:20.034Z</time></trkpt><trkpt lat="45.3170346" lon="10.6804892"><ele>66.0</ele><time>2026-04-18T08:23:21.034Z</time></trkpt><trkpt lat="45.317124" lon="10.680334"><ele>66.0</ele><time>2026-04-18T08:23:22.033Z</time></trkpt><trkpt lat="45.3172106" lon="10.6801597"><ele>66.0</ele><time>2026-04-18T08:23:23.034Z</time></trkpt><trkpt lat="45.3172921" lon="10.6799862"><ele>67.66666666666667</ele><time>2026-04-18T08:23:24.033Z</time></trkpt><trkpt lat="45.3173676" lon="10.6798069"><ele>69.33333333333334</ele><time>2026-04-18T08:23:25.034Z</time></trkpt><trkpt lat="45.3174362" lon="10.6796026"><ele>71.0</ele><time>2026-04-18T08:23:26.033Z</time></trkpt><trkpt lat="45.3174835" lon="10.6793949"><ele>72.0</ele><time>2026-04-18T08:23:27.034Z</time></trkpt><trkpt lat="45.3175234" lon="10.6791927"><ele>73.0</ele><time>2026-04-18T08:23:28.034Z</time></trkpt><trkpt lat="45.3175565" lon="10.6790062"><ele>74.0</ele><time>2026-04-18T08:23:29.034Z</time></trkpt><trkpt lat="45.31758" lon="10.6788487"><ele>75.0</ele><time>2026-04-18T08:23:30.034Z</time></trkpt><trkpt lat="45.3175954" lon="10.6787163"><ele>75.0</ele><time>2026-04-18T08:23:31.034Z</time></trkpt><trkpt lat="45.3176075" lon="10.6786125"><ele>75.0</ele><time>2026-04-18T08:23:32.034Z</time></trkpt><trkpt lat="45.317627" lon="10.678481"><ele>75.0</ele><time>2026-04-18T08:23:34.034Z</time></trkpt><trkpt lat="45.317653" lon="10.6783924"><ele>75.0</ele><time>2026-04-18T08:23:37.035Z</time></trkpt><trkpt lat="45.317602" lon="10.6785654"><ele>75.0</ele><time>2026-04-18T08:23:47.033Z</time></trkpt><trkpt lat="45.3175819" lon="10.6786785"><ele>75.0</ele><time>2026-04-18T08:23:48.034Z</time></trkpt><trkpt lat="45.3175665" lon="10.6788005"><ele>75.0</ele><time>2026-04-18T08:23:49.033Z</time></trkpt><trkpt lat="45.3175505" lon="10.6789142"><ele>75.0</ele><time>2026-04-18T08:23:50.033Z</time></trkpt><trkpt lat="45.3175394" lon="10.6790101"><ele>75.0</ele><time>2026-04-18T08:23:51.033Z</time></trkpt><trkpt lat="45.3175279" lon="10.679175"><ele>75.0</ele><time>2026-04-18T08:23:53.034Z</time></trkpt><trkpt lat="45.3175638" lon="10.6793231"><ele>74.99999999999999</ele><time>2026-04-18T08:23:55.034Z</time></trkpt><trkpt lat="45.3175909" lon="10.6794059"><ele>75.0</ele><time>2026-04-18T08:23:56.033Z</time></trkpt><trkpt lat="45.3176201" lon="10.6795"><ele>75.0</ele><time>2026-04-18T08:23:57.033Z</time></trkpt><trkpt lat="45.3176505" lon="10.6796002"><ele>75.0</ele><time>2026-04-18T08:23:58.034Z</time></trkpt><trkpt lat="45.3176783" lon="10.6797014"><ele>75.0</ele><time>2026-04-18T08:23:59.034Z</time></trkpt><trkpt lat="45.3177051" lon="10.6798067"><ele>74.99999999999999</ele><time>2026-04-18T08:24:00.034Z</time></trkpt><trkpt lat="45.3177324" lon="10.6799084"><ele>75.0</ele><time>2026-04-18T08:24:01.033Z</time></trkpt><trkpt lat="45.3177568" lon="10.680004"><ele>74.2</ele><time>2026-04-18T08:24:02.033Z</time></trkpt><trkpt lat="45.3178007" lon="10.6801696"><ele>73.4</ele><time>2026-04-18T08:24:04.033Z</time></trkpt><trkpt lat="45.3178523" lon="10.6803069"><ele>72.6</ele><time>2026-04-18T08:24:06.035Z</time></trkpt><trkpt lat="45.3179116" lon="10.6804014"><ele>71.8</ele><time>2026-04-18T08:24:08.034Z</time></trkpt><trkpt lat="45.3179759" lon="10.6804677"><ele>71.0</ele><time>2026-04-18T08:24:10.034Z</time></trkpt><trkpt lat="45.3180322" lon="10.6805151"><ele>71.0</ele><time>2026-04-18T08:24:12.034Z</time></trkpt><trkpt lat="45.3180809" lon="10.6805792"><ele>71.0</ele><time>2026-04-18T08:24:47.035Z</time></trkpt><trkpt lat="45.3181438" lon="10.6806437"><ele>71.0</ele><time>2026-04-18T08:24:51.034Z</time></trkpt><trkpt lat="45.3182132" lon="10.6807112"><ele>71.0</ele><time>2026-04-18T08:24:55.034Z</time></trkpt><trkpt lat="45.3181751" lon="10.6806366"><ele>71.0</ele><time>2026-04-18T08:25:05.034Z</time></trkpt><trkpt lat="45.3181154" lon="10.6805571"><ele>71.0</ele><time>2026-04-18T08:25:07.034Z</time></trkpt><trkpt lat="45.318061" lon="10.6805103"><ele>71.0</ele><time>2026-04-18T08:25:18.033Z</time></trkpt><trkpt lat="45.3181015" lon="10.6804307"><ele>71.0</ele><time>2026-04-18T08:25:35.038Z</time></trkpt><trkpt lat="45.3181682" lon="10.6803637"><ele>71.0</ele><time>2026-04-18T08:25:40.027Z</time></trkpt><trkpt lat="45.3182153" lon="10.6802543"><ele>71.0</ele><time>2026-04-18T08:25:42.986Z</time></trkpt><trkpt lat="45.3182777" lon="10.6802144"><ele>71.0</ele><time>2026-04-18T08:25:45.031Z</time></trkpt><trkpt lat="45.3183571" lon="10.6801743"><ele>71.0</ele><time>2026-04-18T08:25:48.035Z</time></trkpt><trkpt lat="45.3184123" lon="10.6801299"><ele>71.0</ele><time>2026-04-18T08:25:51.035Z</time></trkpt><trkpt lat="45.3184867" lon="10.6801176"><ele>72.8</ele><time>2026-04-18T08:25:55.04Z</time></trkpt><trkpt lat="45.3185916" lon="10.6801173"><ele>74.6</ele><time>2026-04-18T08:26:45.03Z</time></trkpt><trkpt lat="45.3186318" lon="10.6800254"><ele>76.4</ele><time>2026-04-18T08:26:48.041Z</time></trkpt><trkpt lat="45.3186768" lon="10.6799215"><ele>78.2</ele><time>2026-04-18T08:26:52.038Z</time></trkpt><trkpt lat="45.318746" lon="10.6798395"><ele>80.0</ele><time>2026-04-18T08:26:55.041Z</time></trkpt><trkpt lat="45.3188524" lon="10.6797986"><ele>80.0</ele><time>2026-04-18T08:27:04.035Z</time></trkpt><trkpt lat="45.3188189" lon="10.6798941"><ele>80.0</ele><time>2026-04-18T08:27:06.032Z</time></trkpt><trkpt lat="45.3188523" lon="10.6798046"><ele>80.0</ele><time>2026-04-18T08:27:11.036Z</time></trkpt><trkpt lat="45.3188985" lon="10.6797253"><ele>80.0</ele><time>2026-04-18T08:27:14.988Z</time></trkpt><trkpt lat="45.3189423" lon="10.6796219"><ele>80.0</ele><time>2026-04-18T08:27:19.029Z</time></trkpt><trkpt lat="45.3189836" lon="10.679551"><ele>80.0</ele><time>2026-04-18T08:27:22.036Z</time></trkpt><trkpt lat="45.3190114" lon="10.6794494"><ele>80.0</ele><time>2026-04-18T08:27:26.04Z</time></trkpt><trkpt lat="45.3190306" lon="10.6793368"><ele>81.4</ele><time>2026-04-18T08:27:30.038Z</time></trkpt><trkpt lat="45.3190753" lon="10.6792389"><ele>82.8</ele><time>2026-04-18T08:27:34.027Z</time></trkpt><trkpt lat="45.3190996" lon="10.6791349"><ele>84.19999999999999</ele><time>2026-04-18T08:27:38.03Z</time></trkpt><trkpt lat="45.3191942" lon="10.6788976"><ele>85.6</ele><time>2026-04-18T08:27:41.037Z</time></trkpt><trkpt lat="45.3192429" lon="10.6788309"><ele>87.0</ele><time>2026-04-18T08:27:44.04Z</time></trkpt><trkpt lat="45.319295" lon="10.6787599"><ele>87.0</ele><time>2026-04-18T08:27:47.031Z</time></trkpt><trkpt lat="45.3193494" lon="10.6787065"><ele>87.0</ele><time>2026-04-18T08:27:54.039Z</time></trkpt><trkpt lat="45.3194288" lon="10.6786455"><ele>87.0</ele><time>2026-04-18T08:28:51.036Z</time></trkpt><trkpt lat="45.3194305" lon="10.6785368"><ele>87.0</ele><time>2026-04-18T08:29:31.04Z</time></trkpt><trkpt lat="45.3194976" lon="10.6784701"><ele>87.0</ele><time>2026-04-18T08:29:38.033Z</time></trkpt><trkpt lat="45.319555" lon="10.6784132"><ele>87.0</ele><time>2026-04-18T08:29:42.028Z</time></trkpt><trkpt lat="45.3195776" lon="10.6783229"><ele>88.33333333333333</ele><time>2026-04-18T08:29:46.032Z</time></trkpt><trkpt lat="45.3195322" lon="10.6782208"><ele>89.66666666666667</ele><time>2026-04-18T08:29:51.029Z</time></trkpt><trkpt lat="45.3194974" lon="10.6781299"><ele>91.0</ele><time>2026-04-18T08:29:54.04Z</time></trkpt><trkpt lat="45.3194957" lon="10.67803"><ele>92.33333333333334</ele><time>2026-04-18T08:30:00.036Z</time></trkpt><trkpt lat="45.3194389" lon="10.6779506"><ele>93.66666666666667</ele><time>2026-04-18T08:30:04.032Z</time></trkpt><trkpt lat="45.3194588" lon="10.6778189"><ele>95.0</ele><time>2026-04-18T08:30:17.036Z</time></trkpt><trkpt lat="45.3195121" lon="10.6777555"><ele>94.66666666666667</ele><time>2026-04-18T08:30:22.032Z</time></trkpt><trkpt lat="45.3195561" lon="10.6776657"><ele>94.33333333333334</ele><time>2026-04-18T08:30:25.033Z</time></trkpt><trkpt lat="45.3195539" lon="10.6775417"><ele>94.0</ele><time>2026-04-18T08:30:28.033Z</time></trkpt><trkpt lat="45.3195999" lon="10.6774597"><ele>93.66666666666667</ele><time>2026-04-18T08:30:32.033Z</time></trkpt><trkpt lat="45.3196425" lon="10.677383"><ele>93.33333333333333</ele><time>2026-04-18T08:30:34.033Z</time></trkpt><trkpt lat="45.3196823" lon="10.6772882"><ele>93.0</ele><time>2026-04-18T08:30:37.033Z</time></trkpt><trkpt lat="45.3197604" lon="10.6772279"><ele>93.0</ele><time>2026-04-18T08:30:41.032Z</time></trkpt><trkpt lat="45.3198267" lon="10.6771741"><ele>93.0</ele><time>2026-04-18T08:30:44.033Z</time></trkpt><trkpt lat="45.3199271" lon="10.6771439"><ele>93.0</ele><time>2026-04-18T08:30:56.033Z</time></trkpt><trkpt lat="45.3199817" lon="10.6772024"><ele>93.0</ele><time>2026-04-18T08:31:39.033Z</time></trkpt><trkpt lat="45.3200499" lon="10.6772499"><ele>93.0</ele><time>2026-04-18T08:33:48.032Z</time></trkpt><trkpt lat="45.3200152" lon="10.6771715"><ele>93.0</ele><time>2026-04-18T08:33:58.033Z</time></trkpt><trkpt lat="45.3200427" lon="10.6770833"><ele>93.0</ele><time>2026-04-18T08:36:47.033Z</time></trkpt><trkpt lat="45.3200109" lon="10.6771966"><ele>93.0</ele><time>2026-04-18T08:37:31.033Z</time></trkpt><trkpt lat="45.3199326" lon="10.6771491"><ele>93.0</ele><time>2026-04-18T08:38:21.033Z</time></trkpt><trkpt lat="45.3198635" lon="10.6771726"><ele>93.0</ele><time>2026-04-18T08:38:28.033Z</time></trkpt><trkpt lat="45.3197912" lon="10.6771743"><ele>93.0</ele><time>2026-04-18T08:38:32.033Z</time></trkpt><trkpt lat="45.3197263" lon="10.6772057"><ele>93.0</ele><time>2026-04-18T08:39:30.033Z</time></trkpt><trkpt lat="45.3196763" lon="10.6773443"><ele>93.0</ele><time>2026-04-18T08:39:57.033Z</time></trkpt><trkpt lat="45.3197795" lon="10.6772356"><ele>93.0</ele><time>2026-04-18T08:40:21.032Z</time></trkpt><trkpt lat="45.3198416" lon="10.6772079"><ele>93.0</ele><time>2026-04-18T08:40:38.033Z</time></trkpt><trkpt lat="45.3199054" lon="10.6771782"><ele>93.0</ele><time>2026-04-18T08:40:41.033Z</time></trkpt><trkpt lat="45.3199749" lon="10.6771695"><ele>93.0</ele><time>2026-04-18T08:40:45.033Z</time></trkpt><trkpt lat="45.3200395" lon="10.6771851"><ele>93.0</ele><time>2026-04-18T08:40:50.033Z</time></trkpt><trkpt lat="45.3200977" lon="10.677127"><ele>93.00000000000001</ele><time>2026-04-18T08:40:57.032Z</time></trkpt><trkpt lat="45.3200508" lon="10.6771931"><ele>93.0</ele><time>2026-04-18T08:42:15.033Z</time></trkpt><trkpt lat="45.3199899" lon="10.6771553"><ele>93.0</ele><time>2026-04-18T08:42:20.033Z</time></trkpt><trkpt lat="45.3199262" lon="10.6771753"><ele>93.0</ele><time>2026-04-18T08:43:23.033Z</time></trkpt><trkpt lat="45.3199662" lon="10.6772639"><ele>93.0</ele><time>2026-04-18T08:43:28.033Z</time></trkpt><trkpt lat="45.3200267" lon="10.6772199"><ele>93.00000000000001</ele><time>2026-04-18T08:43:31.965Z</time></trkpt><trkpt lat="45.3199696" lon="10.6771651"><ele>93.0</ele><time>2026-04-18T08:43:58.954Z</time></trkpt><trkpt lat="45.3199058" lon="10.6771652"><ele>93.00000000000001</ele><time>2026-04-18T08:44:03.033Z</time></trkpt><trkpt lat="45.3198432" lon="10.6771916"><ele>93.0</ele><time>2026-04-18T08:44:08.032Z</time></trkpt><trkpt lat="45.3197703" lon="10.6772028"><ele>93.0</ele><time>2026-04-18T08:44:12.033Z</time></trkpt><trkpt lat="45.3197227" lon="10.6772719"><ele>93.0</ele><time>2026-04-18T08:44:27.033Z</time></trkpt><trkpt lat="45.3196922" lon="10.677367"><ele>93.0</ele><time>2026-04-18T08:44:30.033Z</time></trkpt><trkpt lat="45.3196376" lon="10.6774579"><ele>93.00000000000001</ele><time>2026-04-18T08:44:33.033Z</time></trkpt><trkpt lat="45.319645" lon="10.6775768"><ele>93.0</ele><time>2026-04-18T08:44:36.033Z</time></trkpt><trkpt lat="45.319623" lon="10.6776624"><ele>93.33333333333333</ele><time>2026-04-18T08:44:38.033Z</time></trkpt><trkpt lat="45.319509" lon="10.6777628"><ele>93.66666666666667</ele><time>2026-04-18T08:45:15.032Z</time></trkpt><trkpt lat="45.3194515" lon="10.6777202"><ele>94.0</ele><time>2026-04-18T08:45:19.033Z</time></trkpt><trkpt lat="45.3193922" lon="10.6776558"><ele>94.33333333333334</ele><time>2026-04-18T08:45:29.033Z</time></trkpt><trkpt lat="45.3194447" lon="10.6777173"><ele>94.66666666666667</ele><time>2026-04-18T08:45:42.033Z</time></trkpt><trkpt lat="45.3194924" lon="10.6777779"><ele>95.0</ele><time>2026-04-18T08:45:46.033Z</time></trkpt><trkpt lat="45.3194664" lon="10.6778896"><ele>95.0</ele><time>2026-04-18T08:45:51.033Z</time></trkpt><trkpt lat="45.3194949" lon="10.6779778"><ele>95.0</ele><time>2026-04-18T08:46:04.033Z</time></trkpt><trkpt lat="45.3195187" lon="10.6781114"><ele>95.0</ele><time>2026-04-18T08:46:23.033Z</time></trkpt><trkpt lat="45.3195412" lon="10.6782165"><ele>95.0</ele><time>2026-04-18T08:46:26.033Z</time></trkpt><trkpt lat="45.3195445" lon="10.6783068"><ele>95.0</ele><time>2026-04-18T08:46:28.033Z</time></trkpt><trkpt lat="45.319533" lon="10.6784002"><ele>95.0</ele><time>2026-04-18T08:46:30.033Z</time></trkpt><trkpt lat="45.3194726" lon="10.6784441"><ele>95.0</ele><time>2026-04-18T08:46:35.033Z</time></trkpt><trkpt lat="45.3194204" lon="10.6785531"><ele>93.66666666666667</ele><time>2026-04-18T08:47:38.033Z</time></trkpt><trkpt lat="45.3194141" lon="10.6787016"><ele>92.33333333333334</ele><time>2026-04-18T08:48:06.033Z</time></trkpt><trkpt lat="45.3193466" lon="10.6787224"><ele>91.0</ele><time>2026-04-18T08:48:10.033Z</time></trkpt><trkpt lat="45.319292" lon="10.6787723"><ele>89.66666666666667</ele><time>2026-04-18T08:48:13.032Z</time></trkpt><trkpt lat="45.3192229" lon="10.6788184"><ele>88.33333333333333</ele><time>2026-04-18T08:48:16.033Z</time></trkpt><trkpt lat="45.3191889" lon="10.6789"><ele>87.0</ele><time>2026-04-18T08:48:21.033Z</time></trkpt><trkpt lat="45.3191632" lon="10.6789934"><ele>87.0</ele><time>2026-04-18T08:48:24.033Z</time></trkpt><trkpt lat="45.3191377" lon="10.6790943"><ele>87.0</ele><time>2026-04-18T08:48:29.033Z</time></trkpt><trkpt lat="45.319099" lon="10.6791866"><ele>87.0</ele><time>2026-04-18T08:48:35.033Z</time></trkpt><trkpt lat="45.3190986" lon="10.6793084"><ele>87.0</ele><time>2026-04-18T08:48:39.032Z</time></trkpt><trkpt lat="45.3190745" lon="10.6793988"><ele>87.0</ele><time>2026-04-18T08:48:42.033Z</time></trkpt><trkpt lat="45.3190432" lon="10.6794953"><ele>87.0</ele><time>2026-04-18T08:48:49.033Z</time></trkpt><trkpt lat="45.3190027" lon="10.6795866"><ele>86.0</ele><time>2026-04-18T08:48:52.033Z</time></trkpt><trkpt lat="45.3189637" lon="10.6796709"><ele>85.0</ele><time>2026-04-18T08:48:57.033Z</time></trkpt><trkpt lat="45.3189127" lon="10.6797352"><ele>84.0</ele><time>2026-04-18T08:49:01.033Z</time></trkpt><trkpt lat="45.3188458" lon="10.6797575"><ele>83.0</ele><time>2026-04-18T08:49:05.033Z</time></trkpt><trkpt lat="45.3187929" lon="10.6798195"><ele>82.0</ele><time>2026-04-18T08:49:58.033Z</time></trkpt><trkpt lat="45.3187375" lon="10.6799101"><ele>81.0</ele><time>2026-04-18T08:50:08.033Z</time></trkpt><trkpt lat="45.3187038" lon="10.6799884"><ele>80.0</ele><time>2026-04-18T08:50:10.033Z</time></trkpt><trkpt lat="45.3186361" lon="10.6800382"><ele>80.0</ele><time>2026-04-18T08:50:13.033Z</time></trkpt><trkpt lat="45.3185742" lon="10.6800902"><ele>80.0</ele><time>2026-04-18T08:50:15.033Z</time></trkpt><trkpt lat="45.3185009" lon="10.6801418"><ele>80.0</ele><time>2026-04-18T08:50:17.033Z</time></trkpt><trkpt lat="45.3184399" lon="10.6801822"><ele>80.0</ele><time>2026-04-18T08:50:19.033Z</time></trkpt><trkpt lat="45.3183547" lon="10.6802251"><ele>80.0</ele><time>2026-04-18T08:50:23.033Z</time></trkpt><trkpt lat="45.3183032" lon="10.6803015"><ele>80.0</ele><time>2026-04-18T08:50:25.033Z</time></trkpt><trkpt lat="45.3182425" lon="10.6803489"><ele>78.5</ele><time>2026-04-18T08:50:28.033Z</time></trkpt><trkpt lat="45.3181841" lon="10.6804007"><ele>77.0</ele><time>2026-04-18T08:50:31.033Z</time></trkpt><trkpt lat="45.3181235" lon="10.6804577"><ele>75.5</ele><time>2026-04-18T08:50:37.033Z</time></trkpt><trkpt lat="45.3180616" lon="10.6805053"><ele>74.0</ele><time>2026-04-18T08:50:44.033Z</time></trkpt><trkpt lat="45.3181465" lon="10.6805991"><ele>72.5</ele><time>2026-04-18T08:50:47.033Z</time></trkpt><trkpt lat="45.3182" lon="10.6806603"><ele>71.0</ele><time>2026-04-18T08:50:48.033Z</time></trkpt><trkpt lat="45.3182618" lon="10.6807365"><ele>71.0</ele><time>2026-04-18T08:50:49.033Z</time></trkpt><trkpt lat="45.3183264" lon="10.6808164"><ele>71.0</ele><time>2026-04-18T08:50:50.033Z</time></trkpt><trkpt lat="45.3183916" lon="10.6808964"><ele>71.0</ele><time>2026-04-18T08:50:51.033Z</time></trkpt><trkpt lat="45.3184521" lon="10.6809831"><ele>71.0</ele><time>2026-04-18T08:50:52.033Z</time></trkpt><trkpt lat="45.3185111" lon="10.681066"><ele>71.0</ele><time>2026-04-18T08:50:53.032Z</time></trkpt><trkpt lat="45.3185724" lon="10.6811517"><ele>71.0</ele><time>2026-04-18T08:50:54.033Z</time></trkpt><trkpt lat="45.3186324" lon="10.6812305"><ele>70.5</ele><time>2026-04-18T08:50:55.033Z</time></trkpt><trkpt lat="45.3186925" lon="10.6813091"><ele>70.0</ele><time>2026-04-18T08:50:56.032Z</time></trkpt><trkpt lat="45.3187496" lon="10.6813929"><ele>69.5</ele><time>2026-04-18T08:50:57.033Z</time></trkpt><trkpt lat="45.3188092" lon="10.6814769"><ele>69.0</ele><time>2026-04-18T08:50:58.033Z</time></trkpt><trkpt lat="45.318867" lon="10.6815626"><ele>68.5</ele><time>2026-04-18T08:50:59.033Z</time></trkpt><trkpt lat="45.3189193" lon="10.6816498"><ele>68.0</ele><time>2026-04-18T08:51:00.033Z</time></trkpt><trkpt lat="45.3189734" lon="10.6817167"><ele>69.0</ele><time>2026-04-18T08:51:01.033Z</time></trkpt><trkpt lat="45.31905" lon="10.6818044"><ele>70.0</ele><time>2026-04-18T08:51:03.033Z</time></trkpt><trkpt lat="45.319133" lon="10.6818541"><ele>71.0</ele><time>2026-04-18T08:51:06.032Z</time></trkpt><trkpt lat="45.3192162" lon="10.6818088"><ele>72.0</ele><time>2026-04-18T08:51:09.033Z</time></trkpt><trkpt lat="45.319271" lon="10.6817435"><ele>73.0</ele><time>2026-04-18T08:51:11.033Z</time></trkpt><trkpt lat="45.3193044" lon="10.6816501"><ele>74.0</ele><time>2026-04-18T08:51:13.033Z</time></trkpt><trkpt lat="45.3193296" lon="10.6815341"><ele>74.0</ele><time>2026-04-18T08:51:15.033Z</time></trkpt><trkpt lat="45.3193542" lon="10.6814008"><ele>74.0</ele><time>2026-04-18T08:51:17.033Z</time></trkpt><trkpt lat="45.3193751" lon="10.681278"><ele>74.0</ele><time>2026-04-18T08:51:19.033Z</time></trkpt><trkpt lat="45.3194044" lon="10.6811534"><ele>74.0</ele><time>2026-04-18T08:51:21.033Z</time></trkpt><trkpt lat="45.3194306" lon="10.6810542"><ele>74.0</ele><time>2026-04-18T08:51:23.033Z</time></trkpt><trkpt lat="45.3194586" lon="10.6809384"><ele>74.0</ele><time>2026-04-18T08:51:25.033Z</time></trkpt><trkpt lat="45.3195118" lon="10.6808213"><ele>74.2</ele><time>2026-04-18T08:51:28.033Z</time></trkpt><trkpt lat="45.3195694" lon="10.6806845"><ele>74.4</ele><time>2026-04-18T08:51:30.033Z</time></trkpt><trkpt lat="45.3196349" lon="10.6805445"><ele>74.6</ele><time>2026-04-18T08:51:32.033Z</time></trkpt><trkpt lat="45.3197103" lon="10.6804303"><ele>74.8</ele><time>2026-04-18T08:51:33.033Z</time></trkpt><trkpt lat="45.3197625" lon="10.6803338"><ele>75.0</ele><time>2026-04-18T08:51:34.033Z</time></trkpt><trkpt lat="45.3198127" lon="10.6802223"><ele>77.0</ele><time>2026-04-18T08:51:35.033Z</time></trkpt><trkpt lat="45.3198358" lon="10.6800999"><ele>79.0</ele><time>2026-04-18T08:51:36.033Z</time></trkpt><trkpt lat="45.3198618" lon="10.6800007"><ele>81.0</ele><time>2026-04-18T08:51:37.033Z</time></trkpt><trkpt lat="45.3198796" lon="10.6799043"><ele>83.0</ele><time>2026-04-18T08:51:38.033Z</time></trkpt><trkpt lat="45.3199172" lon="10.679789"><ele>85.0</ele><time>2026-04-18T08:51:39.033Z</time></trkpt><trkpt lat="45.3199469" lon="10.6796749"><ele>87.0</ele><time>2026-04-18T08:51:40.033Z</time></trkpt><trkpt lat="45.3199622" lon="10.6795261"><ele>87.0</ele><time>2026-04-18T08:51:42.033Z</time></trkpt><trkpt lat="45.3199826" lon="10.6794161"><ele>87.0</ele><time>2026-04-18T08:51:45.033Z</time></trkpt><trkpt lat="45.3199767" lon="10.6793122"><ele>87.0</ele><time>2026-04-18T08:51:47.033Z</time></trkpt><trkpt lat="45.3199819" lon="10.679214"><ele>87.0</ele><time>2026-04-18T08:51:50.033Z</time></trkpt><trkpt lat="45.3200408" lon="10.6791557"><ele>87.0</ele><time>2026-04-18T08:52:07.033Z</time></trkpt><trkpt lat="45.3200896" lon="10.6792568"><ele>87.0</ele><time>2026-04-18T08:52:10.033Z</time></trkpt><trkpt lat="45.3201033" lon="10.6793571"><ele>87.0</ele><time>2026-04-18T08:52:13.033Z</time></trkpt><trkpt lat="45.3201104" lon="10.6794701"><ele>87.0</ele><time>2026-04-18T08:52:16.033Z</time></trkpt><trkpt lat="45.3201411" lon="10.6795869"><ele>87.0</ele><time>2026-04-18T08:52:25.033Z</time></trkpt><trkpt lat="45.3201869" lon="10.679668"><ele>87.0</ele><time>2026-04-18T08:52:27.033Z</time></trkpt><trkpt lat="45.3202287" lon="10.6797639"><ele>87.0</ele><time>2026-04-18T08:52:29.033Z</time></trkpt><trkpt lat="45.3202852" lon="10.6798803"><ele>87.0</ele><time>2026-04-18T08:52:31.033Z</time></trkpt><trkpt lat="45.3203043" lon="10.6799729"><ele>87.0</ele><time>2026-04-18T08:52:37.033Z</time></trkpt><trkpt lat="45.3202846" lon="10.6800683"><ele>87.0</ele><time>2026-04-18T08:52:55.033Z</time></trkpt><trkpt lat="45.320253" lon="10.680187"><ele>87.0</ele><time>2026-04-18T08:52:59.033Z</time></trkpt><trkpt lat="45.320211" lon="10.6802719"><ele>87.0</ele><time>2026-04-18T08:53:01.033Z</time></trkpt><trkpt lat="45.3201753" lon="10.6803525"><ele>87.0</ele><time>2026-04-18T08:53:03.033Z</time></trkpt><trkpt lat="45.3201448" lon="10.6804337"><ele>87.0</ele><time>2026-04-18T08:53:05.033Z</time></trkpt><trkpt lat="45.3201046" lon="10.6805218"><ele>87.0</ele><time>2026-04-18T08:53:08.033Z</time></trkpt><trkpt lat="45.320087" lon="10.6806397"><ele>87.0</ele><time>2026-04-18T08:53:11.033Z</time></trkpt><trkpt lat="45.3200829" lon="10.6807291"><ele>87.0</ele><time>2026-04-18T08:53:14.033Z</time></trkpt><trkpt lat="45.3200846" lon="10.6808244"><ele>87.0</ele><time>2026-04-18T08:53:17.033Z</time></trkpt><trkpt lat="45.3201159" lon="10.6809099"><ele>87.0</ele><time>2026-04-18T08:53:21.033Z</time></trkpt><trkpt lat="45.3200924" lon="10.6810762"><ele>87.0</ele><time>2026-04-18T08:53:58.033Z</time></trkpt><trkpt lat="45.3200602" lon="10.6811935"><ele>87.0</ele><time>2026-04-18T08:54:02.033Z</time></trkpt><trkpt lat="45.3200953" lon="10.6812992"><ele>86.66666666666667</ele><time>2026-04-18T08:54:07.033Z</time></trkpt><trkpt lat="45.3201082" lon="10.6814276"><ele>86.33333333333333</ele><time>2026-04-18T08:54:10.033Z</time></trkpt><trkpt lat="45.3201083" lon="10.6815203"><ele>86.0</ele><time>2026-04-18T08:54:12.033Z</time></trkpt><trkpt lat="45.3200912" lon="10.6816086"><ele>85.66666666666666</ele><time>2026-04-18T08:54:16.033Z</time></trkpt><trkpt lat="45.3200653" lon="10.6816931"><ele>85.33333333333333</ele><time>2026-04-18T08:54:29.033Z</time></trkpt><trkpt lat="45.3199829" lon="10.6817573"><ele>85.0</ele><time>2026-04-18T08:54:40.033Z</time></trkpt><trkpt lat="45.319888" lon="10.6817781"><ele>85.0</ele><time>2026-04-18T08:54:43.033Z</time></trkpt><trkpt lat="45.319809" lon="10.6817794"><ele>85.0</ele><time>2026-04-18T08:54:45.033Z</time></trkpt><trkpt lat="45.3197305" lon="10.6817906"><ele>85.0</ele><time>2026-04-18T08:54:48.033Z</time></trkpt><trkpt lat="45.3198141" lon="10.6818375"><ele>85.0</ele><time>2026-04-18T08:54:54.033Z</time></trkpt><trkpt lat="45.3198856" lon="10.6818701"><ele>85.0</ele><time>2026-04-18T08:54:56.033Z</time></trkpt><trkpt lat="45.3199587" lon="10.6819082"><ele>85.0</ele><time>2026-04-18T08:54:58.033Z</time></trkpt><trkpt lat="45.3200653" lon="10.6818919"><ele>85.0</ele><time>2026-04-18T08:55:01.033Z</time></trkpt><trkpt lat="45.3201602" lon="10.6818723"><ele>85.0</ele><time>2026-04-18T08:55:03.033Z</time></trkpt><trkpt lat="45.3202468" lon="10.6818888"><ele>85.0</ele><time>2026-04-18T08:55:05.033Z</time></trkpt><trkpt lat="45.3203128" lon="10.6819152"><ele>85.0</ele><time>2026-04-18T08:55:07.033Z</time></trkpt><trkpt lat="45.3203593" lon="10.6819927"><ele>85.0</ele><time>2026-04-18T08:55:09.033Z</time></trkpt><trkpt lat="45.3204178" lon="10.6821286"><ele>85.0</ele><time>2026-04-18T08:55:11.033Z</time></trkpt><trkpt lat="45.3204924" lon="10.6822553"><ele>84.66666666666666</ele><time>2026-04-18T08:55:13.033Z</time></trkpt><trkpt lat="45.3205581" lon="10.6823869"><ele>84.33333333333333</ele><time>2026-04-18T08:55:15.033Z</time></trkpt><trkpt lat="45.3206127" lon="10.6824517"><ele>84.0</ele><time>2026-04-18T08:55:17.033Z</time></trkpt><trkpt lat="45.3206801" lon="10.6824178"><ele>83.66666666666667</ele><time>2026-04-18T08:55:19.033Z</time></trkpt><trkpt lat="45.3207742" lon="10.6823899"><ele>83.33333333333334</ele><time>2026-04-18T08:55:21.033Z</time></trkpt><trkpt lat="45.3208494" lon="10.682369"><ele>83.0</ele><time>2026-04-18T08:55:23.033Z</time></trkpt><trkpt lat="45.3209215" lon="10.6823544"><ele>84.42857142857143</ele><time>2026-04-18T08:55:33.033Z</time></trkpt><trkpt lat="45.3209702" lon="10.6822656"><ele>85.85714285714286</ele><time>2026-04-18T08:55:36.033Z</time></trkpt><trkpt lat="45.3209745" lon="10.6821618"><ele>87.28571428571429</ele><time>2026-04-18T08:55:38.033Z</time></trkpt><trkpt lat="45.3209676" lon="10.6820661"><ele>88.71428571428572</ele><time>2026-04-18T08:55:40.033Z</time></trkpt><trkpt lat="45.3209626" lon="10.6819737"><ele>90.14285714285714</ele><time>2026-04-18T08:55:42.033Z</time></trkpt><trkpt lat="45.3210348" lon="10.6819405"><ele>91.57142857142858</ele><time>2026-04-18T08:55:46.033Z</time></trkpt><trkpt lat="45.3210384" lon="10.6820468"><ele>93.0</ele><time>2026-04-18T08:55:50.033Z</time></trkpt><trkpt lat="45.3210432" lon="10.6821401"><ele>93.0</ele><time>2026-04-18T08:55:53.033Z</time></trkpt><trkpt lat="45.3210344" lon="10.6822666"><ele>93.0</ele><time>2026-04-18T08:56:29.033Z</time></trkpt><trkpt lat="45.3209652" lon="10.682258"><ele>93.0</ele><time>2026-04-18T08:56:43.033Z</time></trkpt><trkpt lat="45.3209423" lon="10.6823604"><ele>93.0</ele><time>2026-04-18T08:56:46.033Z</time></trkpt><trkpt lat="45.3209533" lon="10.6824736"><ele>93.0</ele><time>2026-04-18T08:56:48.033Z</time></trkpt><trkpt lat="45.3209856" lon="10.6826257"><ele>93.0</ele><time>2026-04-18T08:56:50.033Z</time></trkpt><trkpt lat="45.3210162" lon="10.6827814"><ele>92.66666666666667</ele><time>2026-04-18T08:56:52.033Z</time></trkpt><trkpt lat="45.3210493" lon="10.6828861"><ele>92.33333333333333</ele><time>2026-04-18T08:56:54.033Z</time></trkpt><trkpt lat="45.3210691" lon="10.6829919"><ele>92.0</ele><time>2026-04-18T08:56:56.033Z</time></trkpt><trkpt lat="45.3210859" lon="10.683093"><ele>91.66666666666666</ele><time>2026-04-18T08:56:59.033Z</time></trkpt><trkpt lat="45.3211264" lon="10.6831825"><ele>91.33333333333333</ele><time>2026-04-18T08:57:16.033Z</time></trkpt><trkpt lat="45.3211777" lon="10.683289"><ele>91.0</ele><time>2026-04-18T08:57:18.032Z</time></trkpt><trkpt lat="45.3212237" lon="10.6834645"><ele>91.0</ele><time>2026-04-18T08:57:20.033Z</time></trkpt><trkpt lat="45.3212427" lon="10.6835626"><ele>91.0</ele><time>2026-04-18T08:57:21.033Z</time></trkpt><trkpt lat="45.3212634" lon="10.6836618"><ele>91.0</ele><time>2026-04-18T08:57:22.033Z</time></trkpt><trkpt lat="45.3212808" lon="10.6837501"><ele>91.0</ele><time>2026-04-18T08:57:23.033Z</time></trkpt><trkpt lat="45.3213077" lon="10.6838829"><ele>91.0</ele><time>2026-04-18T08:57:25.033Z</time></trkpt><trkpt lat="45.3212945" lon="10.6839815"><ele>91.0</ele><time>2026-04-18T08:57:28.033Z</time></trkpt><trkpt lat="45.3212359" lon="10.6840419"><ele>91.0</ele><time>2026-04-18T08:57:30.033Z</time></trkpt><trkpt lat="45.3211621" lon="10.6840811"><ele>90.5</ele><time>2026-04-18T08:57:32.033Z</time></trkpt><trkpt lat="45.3210879" lon="10.6841392"><ele>90.0</ele><time>2026-04-18T08:57:34.032Z</time></trkpt><trkpt lat="45.3210193" lon="10.6841212"><ele>89.5</ele><time>2026-04-18T08:58:00.033Z</time></trkpt><trkpt lat="45.3209467" lon="10.6840885"><ele>89.0</ele><time>2026-04-18T08:58:09.033Z</time></trkpt><trkpt lat="45.3209501" lon="10.6841798"><ele>88.5</ele><time>2026-04-18T08:58:13.033Z</time></trkpt><trkpt lat="45.3210011" lon="10.6843155"><ele>88.0</ele><time>2026-04-18T08:58:15.033Z</time></trkpt><trkpt lat="45.3210488" lon="10.6844499"><ele>87.5</ele><time>2026-04-18T08:58:17.033Z</time></trkpt><trkpt lat="45.3211079" lon="10.6845508"><ele>87.0</ele><time>2026-04-18T08:58:19.033Z</time></trkpt><trkpt lat="45.3211452" lon="10.6846523"><ele>86.5</ele><time>2026-04-18T08:58:21.033Z</time></trkpt><trkpt lat="45.3211694" lon="10.6847374"><ele>86.0</ele><time>2026-04-18T08:58:28.033Z</time></trkpt><trkpt lat="45.3211486" lon="10.6848237"><ele>85.5</ele><time>2026-04-18T09:00:11.033Z</time></trkpt><trkpt lat="45.3211031" lon="10.6847136"><ele>85.0</ele><time>2026-04-18T09:00:16.032Z</time></trkpt><trkpt lat="45.3210809" lon="10.6845624"><ele>85.0</ele><time>2026-04-18T09:00:18.033Z</time></trkpt><trkpt lat="45.3210465" lon="10.6844305"><ele>85.0</ele><time>2026-04-18T09:00:20.032Z</time></trkpt><trkpt lat="45.3210087" lon="10.6842891"><ele>85.0</ele><time>2026-04-18T09:00:22.033Z</time></trkpt><trkpt lat="45.3209667" lon="10.6841662"><ele>85.0</ele><time>2026-04-18T09:00:24.033Z</time></trkpt><trkpt lat="45.3209345" lon="10.6840329"><ele>85.0</ele><time>2026-04-18T09:00:26.033Z</time></trkpt><trkpt lat="45.3209017" lon="10.6839019"><ele>85.5</ele><time>2026-04-18T09:00:28.033Z</time></trkpt><trkpt lat="45.3208679" lon="10.6837837"><ele>86.0</ele><time>2026-04-18T09:00:30.033Z</time></trkpt><trkpt lat="45.3208309" lon="10.6836561"><ele>86.5</ele><time>2026-04-18T09:00:32.032Z</time></trkpt><trkpt lat="45.3207885" lon="10.6835699"><ele>87.0</ele><time>2026-04-18T09:00:48.033Z</time></trkpt><trkpt lat="45.3208298" lon="10.6834681"><ele>87.5</ele><time>2026-04-18T09:01:09.033Z</time></trkpt><trkpt lat="45.3209154" lon="10.6834134"><ele>88.0</ele><time>2026-04-18T09:01:11.033Z</time></trkpt><trkpt lat="45.3209906" lon="10.6833298"><ele>88.42857142857143</ele><time>2026-04-18T09:01:13.032Z</time></trkpt><trkpt lat="45.3210707" lon="10.6832615"><ele>88.85714285714286</ele><time>2026-04-18T09:01:15.033Z</time></trkpt><trkpt lat="45.3210938" lon="10.6831719"><ele>89.28571428571428</ele><time>2026-04-18T09:01:19.033Z</time></trkpt><trkpt lat="45.3210538" lon="10.683048"><ele>89.71428571428572</ele><time>2026-04-18T09:01:31.033Z</time></trkpt><trkpt lat="45.3210376" lon="10.6829612"><ele>90.14285714285714</ele><time>2026-04-18T09:01:32.033Z</time></trkpt><trkpt lat="45.3210193" lon="10.6828735"><ele>90.57142857142857</ele><time>2026-04-18T09:01:33.032Z</time></trkpt><trkpt lat="45.3210044" lon="10.6827826"><ele>91.0</ele><time>2026-04-18T09:01:34.033Z</time></trkpt><trkpt lat="45.3209799" lon="10.6826163"><ele>91.4</ele><time>2026-04-18T09:01:36.033Z</time></trkpt><trkpt lat="45.3209516" lon="10.6824599"><ele>91.8</ele><time>2026-04-18T09:01:38.033Z</time></trkpt><trkpt lat="45.3209504" lon="10.6823622"><ele>92.2</ele><time>2026-04-18T09:01:40.033Z</time></trkpt><trkpt lat="45.3209699" lon="10.6822131"><ele>92.60000000000001</ele><time>2026-04-18T09:01:42.033Z</time></trkpt><trkpt lat="45.3209699" lon="10.6820928"><ele>93.0</ele><time>2026-04-18T09:01:43.033Z</time></trkpt><trkpt lat="45.3209712" lon="10.6819763"><ele>93.16666666666667</ele><time>2026-04-18T09:01:44.033Z</time></trkpt><trkpt lat="45.3209739" lon="10.6818686"><ele>93.33333333333333</ele><time>2026-04-18T09:01:45.033Z</time></trkpt><trkpt lat="45.320976" lon="10.6817789"><ele>93.5</ele><time>2026-04-18T09:01:46.033Z</time></trkpt><trkpt lat="45.3210065" lon="10.6816719"><ele>93.66666666666666</ele><time>2026-04-18T09:01:48.033Z</time></trkpt><trkpt lat="45.3210935" lon="10.6816417"><ele>93.83333333333333</ele><time>2026-04-18T09:01:50.033Z</time></trkpt><trkpt lat="45.3211638" lon="10.6816507"><ele>94.0</ele><time>2026-04-18T09:01:51.033Z</time></trkpt><trkpt lat="45.3212628" lon="10.6816691"><ele>94.0</ele><time>2026-04-18T09:01:52.033Z</time></trkpt><trkpt lat="45.3213592" lon="10.6816923"><ele>94.0</ele><time>2026-04-18T09:01:53.033Z</time></trkpt><trkpt lat="45.3214696" lon="10.6817124"><ele>94.0</ele><time>2026-04-18T09:01:54.033Z</time></trkpt><trkpt lat="45.321576" lon="10.6817316"><ele>94.0</ele><time>2026-04-18T09:01:55.033Z</time></trkpt><trkpt lat="45.3216816" lon="10.6817554"><ele>94.0</ele><time>2026-04-18T09:01:56.033Z</time></trkpt><trkpt lat="45.3217824" lon="10.6817832"><ele>95.0</ele><time>2026-04-18T09:01:57.033Z</time></trkpt><trkpt lat="45.3218725" lon="10.6818018"><ele>96.0</ele><time>2026-04-18T09:01:58.033Z</time></trkpt><trkpt lat="45.3219566" lon="10.6818145"><ele>97.0</ele><time>2026-04-18T09:01:59.033Z</time></trkpt><trkpt lat="45.3220415" lon="10.6818328"><ele>98.0</ele><time>2026-04-18T09:02:00.033Z</time></trkpt><trkpt lat="45.3221238" lon="10.6818436"><ele>99.00000000000001</ele><time>2026-04-18T09:02:01.033Z</time></trkpt><trkpt lat="45.3221972" lon="10.6818552"><ele>100.0</ele><time>2026-04-18T09:02:02.033Z</time></trkpt><trkpt lat="45.3222744" lon="10.6818688"><ele>100.33333333333334</ele><time>2026-04-18T09:02:03.033Z</time></trkpt><trkpt lat="45.3223429" lon="10.6818821"><ele>100.66666666666667</ele><time>2026-04-18T09:02:04.033Z</time></trkpt><trkpt lat="45.3224077" lon="10.6818934"><ele>101.0</ele><time>2026-04-18T09:02:05.033Z</time></trkpt><trkpt lat="45.3225191" lon="10.6818944"><ele>101.33333333333334</ele><time>2026-04-18T09:02:07.033Z</time></trkpt><trkpt lat="45.3225845" lon="10.6818594"><ele>101.66666666666667</ele><time>2026-04-18T09:02:09.033Z</time></trkpt><trkpt lat="45.3226758" lon="10.6817627"><ele>102.0</ele><time>2026-04-18T09:02:11.032Z</time></trkpt><trkpt lat="45.3227265" lon="10.6816907"><ele>102.0</ele><time>2026-04-18T09:02:12.032Z</time></trkpt><trkpt lat="45.3227941" lon="10.6815342"><ele>102.0</ele><time>2026-04-18T09:02:14.033Z</time></trkpt><trkpt lat="45.3228395" lon="10.6814454"><ele>102.0</ele><time>2026-04-18T09:02:15.033Z</time></trkpt><trkpt lat="45.3228831" lon="10.6813507"><ele>102.0</ele><time>2026-04-18T09:02:16.033Z</time></trkpt><trkpt lat="45.322915" lon="10.6812621"><ele>102.0</ele><time>2026-04-18T09:02:17.033Z</time></trkpt><trkpt lat="45.3229675" lon="10.6811636"><ele>102.0</ele><time>2026-04-18T09:02:18.033Z</time></trkpt><trkpt lat="45.3230116" lon="10.6810732"><ele>101.0</ele><time>2026-04-18T09:02:19.033Z</time></trkpt><trkpt lat="45.3230862" lon="10.6809826"><ele>100.0</ele><time>2026-04-18T09:02:20.033Z</time></trkpt><trkpt lat="45.3231785" lon="10.6808885"><ele>99.0</ele><time>2026-04-18T09:02:21.033Z</time></trkpt><trkpt lat="45.3232477" lon="10.6808095"><ele>98.0</ele><time>2026-04-18T09:02:22.033Z</time></trkpt><trkpt lat="45.32331" lon="10.6807358"><ele>97.0</ele><time>2026-04-18T09:02:23.033Z</time></trkpt><trkpt lat="45.3233645" lon="10.6806844"><ele>96.0</ele><time>2026-04-18T09:02:24.033Z</time></trkpt><trkpt lat="45.3234339" lon="10.6806322"><ele>96.0</ele><time>2026-04-18T09:02:26.033Z</time></trkpt><trkpt lat="45.3235182" lon="10.6805977"><ele>96.0</ele><time>2026-04-18T09:02:29.033Z</time></trkpt><trkpt lat="45.3235597" lon="10.6807378"><ele>96.0</ele><time>2026-04-18T09:02:32.033Z</time></trkpt><trkpt lat="45.3235475" lon="10.6808575"><ele>96.0</ele><time>2026-04-18T09:02:33.033Z</time></trkpt><trkpt lat="45.3235396" lon="10.6809791"><ele>96.0</ele><time>2026-04-18T09:02:34.033Z</time></trkpt><trkpt lat="45.3235352" lon="10.6810922"><ele>96.0</ele><time>2026-04-18T09:02:35.033Z</time></trkpt><trkpt lat="45.3235456" lon="10.6812082"><ele>95.4</ele><time>2026-04-18T09:02:36.033Z</time></trkpt><trkpt lat="45.323554" lon="10.6813344"><ele>94.8</ele><time>2026-04-18T09:02:37.033Z</time></trkpt><trkpt lat="45.3235681" lon="10.6814762"><ele>94.2</ele><time>2026-04-18T09:02:38.033Z</time></trkpt><trkpt lat="45.3235791" lon="10.68161"><ele>93.60000000000001</ele><time>2026-04-18T09:02:39.033Z</time></trkpt><trkpt lat="45.3235936" lon="10.6817547"><ele>93.0</ele><time>2026-04-18T09:02:40.033Z</time></trkpt><trkpt lat="45.323608" lon="10.6818977"><ele>93.0</ele><time>2026-04-18T09:02:41.033Z</time></trkpt><trkpt lat="45.3236241" lon="10.6820474"><ele>93.0</ele><time>2026-04-18T09:02:42.033Z</time></trkpt><trkpt lat="45.3236392" lon="10.6821952"><ele>93.0</ele><time>2026-04-18T09:02:43.033Z</time></trkpt><trkpt lat="45.3236539" lon="10.6823511"><ele>93.0</ele><time>2026-04-18T09:02:44.032Z</time></trkpt><trkpt lat="45.32367" lon="10.6825106"><ele>93.0</ele><time>2026-04-18T09:02:45.032Z</time></trkpt><trkpt lat="45.3236885" lon="10.6826411"><ele>93.0</ele><time>2026-04-18T09:02:46.033Z</time></trkpt><trkpt lat="45.323701" lon="10.682817"><ele>93.0</ele><time>2026-04-18T09:02:47.033Z</time></trkpt><trkpt lat="45.3237232" lon="10.6829761"><ele>93.0</ele><time>2026-04-18T09:02:48.033Z</time></trkpt><trkpt lat="45.3237434" lon="10.683145"><ele>93.0</ele><time>2026-04-18T09:02:49.032Z</time></trkpt><trkpt lat="45.3237743" lon="10.6832773"><ele>93.0</ele><time>2026-04-18T09:02:50.033Z</time></trkpt><trkpt lat="45.3238038" lon="10.6834203"><ele>93.0</ele><time>2026-04-18T09:02:51.033Z</time></trkpt><trkpt lat="45.3238401" lon="10.683567"><ele>93.0</ele><time>2026-04-18T09:02:52.032Z</time></trkpt><trkpt lat="45.3238794" lon="10.6837066"><ele>93.0</ele><time>2026-04-18T09:02:53.033Z</time></trkpt><trkpt lat="45.323914" lon="10.683848"><ele>93.0</ele><time>2026-04-18T09:02:54.033Z</time></trkpt><trkpt lat="45.3239454" lon="10.6839839"><ele>93.2</ele><time>2026-04-18T09:02:55.033Z</time></trkpt><trkpt lat="45.323987" lon="10.6841237"><ele>93.4</ele><time>2026-04-18T09:02:56.033Z</time></trkpt><trkpt lat="45.3240333" lon="10.6842561"><ele>93.60000000000001</ele><time>2026-04-18T09:02:57.033Z</time></trkpt><trkpt lat="45.3240924" lon="10.6843855"><ele>93.80000000000001</ele><time>2026-04-18T09:02:58.033Z</time></trkpt><trkpt lat="45.3241552" lon="10.6845043"><ele>94.0</ele><time>2026-04-18T09:02:59.033Z</time></trkpt><trkpt lat="45.3242292" lon="10.6846039"><ele>94.0</ele><time>2026-04-18T09:03:00.033Z</time></trkpt><trkpt lat="45.3243032" lon="10.684699"><ele>94.0</ele><time>2026-04-18T09:03:01.033Z</time></trkpt><trkpt lat="45.3243768" lon="10.6848044"><ele>94.0</ele><time>2026-04-18T09:03:02.033Z</time></trkpt><trkpt lat="45.3244518" lon="10.6849017"><ele>94.0</ele><time>2026-04-18T09:03:03.033Z</time></trkpt><trkpt lat="45.3245284" lon="10.685"><ele>94.0</ele><time>2026-04-18T09:03:04.033Z</time></trkpt><trkpt lat="45.3246018" lon="10.6850977"><ele>94.0</ele><time>2026-04-18T09:03:05.033Z</time></trkpt><trkpt lat="45.3246806" lon="10.6851907"><ele>94.0</ele><time>2026-04-18T09:03:06.033Z</time></trkpt><trkpt lat="45.3247584" lon="10.6852783"><ele>94.0</ele><time>2026-04-18T09:03:07.033Z</time></trkpt><trkpt lat="45.3248343" lon="10.6853714"><ele>94.0</ele><time>2026-04-18T09:03:08.033Z</time></trkpt><trkpt lat="45.3249124" lon="10.6854551"><ele>94.0</ele><time>2026-04-18T09:03:09.032Z</time></trkpt><trkpt lat="45.3249883" lon="10.6855405"><ele>94.0</ele><time>2026-04-18T09:03:10.033Z</time></trkpt><trkpt lat="45.3250617" lon="10.6856268"><ele>94.0</ele><time>2026-04-18T09:03:11.032Z</time></trkpt><trkpt lat="45.3251185" lon="10.685718"><ele>94.0</ele><time>2026-04-18T09:03:12.033Z</time></trkpt><trkpt lat="45.3251877" lon="10.685818"><ele>94.0</ele><time>2026-04-18T09:03:13.033Z</time></trkpt><trkpt lat="45.325222" lon="10.6859322"><ele>94.0</ele><time>2026-04-18T09:03:14.033Z</time></trkpt><trkpt lat="45.3252357" lon="10.6860343"><ele>94.0</ele><time>2026-04-18T09:03:15.033Z</time></trkpt><trkpt lat="45.3252285" lon="10.6861261"><ele>93.66666666666666</ele><time>2026-04-18T09:03:16.033Z</time></trkpt><trkpt lat="45.3252094" lon="10.6862223"><ele>93.33333333333333</ele><time>2026-04-18T09:03:17.033Z</time></trkpt><trkpt lat="45.3251877" lon="10.6863273"><ele>93.0</ele><time>2026-04-18T09:03:18.033Z</time></trkpt><trkpt lat="45.3251907" lon="10.6864324"><ele>92.66666666666667</ele><time>2026-04-18T09:03:19.033Z</time></trkpt><trkpt lat="45.3252159" lon="10.6865291"><ele>92.33333333333334</ele><time>2026-04-18T09:03:20.033Z</time></trkpt><trkpt lat="45.3252419" lon="10.6866321"><ele>92.0</ele><time>2026-04-18T09:03:21.033Z</time></trkpt><trkpt lat="45.3253213" lon="10.6867909"><ele>92.0</ele><time>2026-04-18T09:03:23.033Z</time></trkpt><trkpt lat="45.3253681" lon="10.6868898"><ele>92.0</ele><time>2026-04-18T09:03:24.033Z</time></trkpt><trkpt lat="45.3254093" lon="10.6869925"><ele>92.0</ele><time>2026-04-18T09:03:25.033Z</time></trkpt><trkpt lat="45.3254535" lon="10.6870874"><ele>92.0</ele><time>2026-04-18T09:03:26.033Z</time></trkpt><trkpt lat="45.3255088" lon="10.687177"><ele>92.0</ele><time>2026-04-18T09:03:27.033Z</time></trkpt><trkpt lat="45.3255605" lon="10.6872621"><ele>92.0</ele><time>2026-04-18T09:03:28.033Z</time></trkpt><trkpt lat="45.3256323" lon="10.6873513"><ele>91.0</ele><time>2026-04-18T09:03:29.033Z</time></trkpt><trkpt lat="45.3257166" lon="10.6874294"><ele>90.0</ele><time>2026-04-18T09:03:30.033Z</time></trkpt><trkpt lat="45.3258042" lon="10.6875058"><ele>89.0</ele><time>2026-04-18T09:03:31.032Z</time></trkpt><trkpt lat="45.325893" lon="10.6875895"><ele>88.0</ele><time>2026-04-18T09:03:32.032Z</time></trkpt><trkpt lat="45.325984" lon="10.6876695"><ele>87.0</ele><time>2026-04-18T09:03:33.033Z</time></trkpt><trkpt lat="45.3260652" lon="10.6877415"><ele>85.8</ele><time>2026-04-18T09:03:34.033Z</time></trkpt><trkpt lat="45.326156" lon="10.6878043"><ele>84.6</ele><time>2026-04-18T09:03:35.033Z</time></trkpt><trkpt lat="45.3262528" lon="10.6878521"><ele>83.39999999999999</ele><time>2026-04-18T09:03:36.033Z</time></trkpt><trkpt lat="45.3263562" lon="10.687903"><ele>82.19999999999999</ele><time>2026-04-18T09:03:37.033Z</time></trkpt><trkpt lat="45.3264528" lon="10.687943"><ele>81.0</ele><time>2026-04-18T09:03:38.033Z</time></trkpt><trkpt lat="45.3265633" lon="10.6879854"><ele>81.0</ele><time>2026-04-18T09:03:39.033Z</time></trkpt><trkpt lat="45.3266632" lon="10.6880392"><ele>81.0</ele><time>2026-04-18T09:03:40.032Z</time></trkpt><trkpt lat="45.3267657" lon="10.6880883"><ele>81.0</ele><time>2026-04-18T09:03:41.033Z</time></trkpt><trkpt lat="45.3268692" lon="10.6881366"><ele>81.0</ele><time>2026-04-18T09:03:42.033Z</time></trkpt><trkpt lat="45.3269696" lon="10.6881987"><ele>81.0</ele><time>2026-04-18T09:03:43.033Z</time></trkpt><trkpt lat="45.3270631" lon="10.6882611"><ele>81.0</ele><time>2026-04-18T09:03:44.033Z</time></trkpt><trkpt lat="45.3271595" lon="10.6883248"><ele>81.0</ele><time>2026-04-18T09:03:45.033Z</time></trkpt><trkpt lat="45.3272544" lon="10.6883991"><ele>81.0</ele><time>2026-04-18T09:03:46.033Z</time></trkpt><trkpt lat="45.3273459" lon="10.6884801"><ele>81.0</ele><time>2026-04-18T09:03:47.033Z</time></trkpt><trkpt lat="45.327433" lon="10.6885601"><ele>81.0</ele><time>2026-04-18T09:03:48.033Z</time></trkpt><trkpt lat="45.3275147" lon="10.6886361"><ele>79.39999999999999</ele><time>2026-04-18T09:03:49.033Z</time></trkpt><trkpt lat="45.3276027" lon="10.6887029"><ele>77.8</ele><time>2026-04-18T09:03:50.033Z</time></trkpt><trkpt lat="45.3276902" lon="10.6887499"><ele>76.19999999999999</ele><time>2026-04-18T09:03:51.033Z</time></trkpt><trkpt lat="45.3277731" lon="10.6887837"><ele>74.6</ele><time>2026-04-18T09:03:52.033Z</time></trkpt><trkpt lat="45.3278741" lon="10.6887996"><ele>73.0</ele><time>2026-04-18T09:03:54.033Z</time></trkpt><trkpt lat="45.3279512" lon="10.6888261"><ele>73.0</ele><time>2026-04-18T09:03:56.033Z</time></trkpt><trkpt lat="45.3280464" lon="10.68888"><ele>73.0</ele><time>2026-04-18T09:03:58.033Z</time></trkpt><trkpt lat="45.3281346" lon="10.6888632"><ele>73.0</ele><time>2026-04-18T09:03:59.033Z</time></trkpt><trkpt lat="45.3282004" lon="10.6888457"><ele>73.0</ele><time>2026-04-18T09:04:00.033Z</time></trkpt><trkpt lat="45.3282788" lon="10.6888099"><ele>73.0</ele><time>2026-04-18T09:04:01.033Z</time></trkpt><trkpt lat="45.3283645" lon="10.6887761"><ele>73.0</ele><time>2026-04-18T09:04:02.033Z</time></trkpt><trkpt lat="45.3284526" lon="10.6887335"><ele>72.8</ele><time>2026-04-18T09:04:03.033Z</time></trkpt><trkpt lat="45.3285343" lon="10.6886882"><ele>72.6</ele><time>2026-04-18T09:04:04.033Z</time></trkpt><trkpt lat="45.3286176" lon="10.6886342"><ele>72.4</ele><time>2026-04-18T09:04:05.033Z</time></trkpt><trkpt lat="45.3287011" lon="10.6885803"><ele>72.2</ele><time>2026-04-18T09:04:06.033Z</time></trkpt><trkpt lat="45.3287865" lon="10.6885208"><ele>72.0</ele><time>2026-04-18T09:04:07.033Z</time></trkpt><trkpt lat="45.3288669" lon="10.6884658"><ele>72.2</ele><time>2026-04-18T09:04:08.032Z</time></trkpt><trkpt lat="45.3289468" lon="10.6884137"><ele>72.4</ele><time>2026-04-18T09:04:09.033Z</time></trkpt><trkpt lat="45.3290278" lon="10.6883677"><ele>72.6</ele><time>2026-04-18T09:04:10.033Z</time></trkpt><trkpt lat="45.3291185" lon="10.6883049"><ele>72.8</ele><time>2026-04-18T09:04:11.033Z</time></trkpt><trkpt lat="45.3292043" lon="10.6882363"><ele>73.0</ele><time>2026-04-18T09:04:12.033Z</time></trkpt><trkpt lat="45.3292903" lon="10.6881753"><ele>73.0</ele><time>2026-04-18T09:04:13.033Z</time></trkpt><trkpt lat="45.3293608" lon="10.6881218"><ele>73.0</ele><time>2026-04-18T09:04:14.033Z</time></trkpt><trkpt lat="45.3294326" lon="10.6880752"><ele>73.0</ele><time>2026-04-18T09:04:15.033Z</time></trkpt><trkpt lat="45.329495" lon="10.6880321"><ele>73.0</ele><time>2026-04-18T09:04:16.033Z</time></trkpt><trkpt lat="45.3296024" lon="10.68798"><ele>73.0</ele><time>2026-04-18T09:04:18.033Z</time></trkpt><trkpt lat="45.3296996" lon="10.6879563"><ele>73.0</ele><time>2026-04-18T09:04:20.032Z</time></trkpt><trkpt lat="45.3297813" lon="10.6880005"><ele>73.16666666666666</ele><time>2026-04-18T09:04:22.033Z</time></trkpt><trkpt lat="45.3298245" lon="10.6881653"><ele>73.33333333333333</ele><time>2026-04-18T09:04:24.033Z</time></trkpt><trkpt lat="45.3298451" lon="10.6882525"><ele>73.5</ele><time>2026-04-18T09:04:25.033Z</time></trkpt><trkpt lat="45.3298675" lon="10.6883413"><ele>73.66666666666667</ele><time>2026-04-18T09:04:26.033Z</time></trkpt><trkpt lat="45.3298858" lon="10.6884306"><ele>73.83333333333334</ele><time>2026-04-18T09:04:27.033Z</time></trkpt><trkpt lat="45.3299116" lon="10.6885264"><ele>74.0</ele><time>2026-04-18T09:04:28.033Z</time></trkpt><trkpt lat="45.3299275" lon="10.6886272"><ele>74.0</ele><time>2026-04-18T09:04:29.033Z</time></trkpt><trkpt lat="45.329958" lon="10.6887361"><ele>74.0</ele><time>2026-04-18T09:04:30.033Z</time></trkpt><trkpt lat="45.3299837" lon="10.6888565"><ele>74.0</ele><time>2026-04-18T09:04:31.032Z</time></trkpt><trkpt lat="45.3300157" lon="10.6889571"><ele>74.0</ele><time>2026-04-18T09:04:32.033Z</time></trkpt><trkpt lat="45.3300775" lon="10.6890525"><ele>74.0</ele><time>2026-04-18T09:04:34.033Z</time></trkpt><trkpt lat="45.3301737" lon="10.6890388"><ele>74.0</ele><time>2026-04-18T09:04:36.032Z</time></trkpt><trkpt lat="45.3302708" lon="10.6889716"><ele>74.0</ele><time>2026-04-18T09:04:38.033Z</time></trkpt><trkpt lat="45.3303631" lon="10.688905"><ele>74.0</ele><time>2026-04-18T09:04:40.033Z</time></trkpt><trkpt lat="45.3304442" lon="10.6889015"><ele>74.0</ele><time>2026-04-18T09:04:42.033Z</time></trkpt><trkpt lat="45.3305132" lon="10.6889936"><ele>74.0</ele><time>2026-04-18T09:04:44.033Z</time></trkpt><trkpt lat="45.3305826" lon="10.6891175"><ele>74.0</ele><time>2026-04-18T09:04:46.033Z</time></trkpt><trkpt lat="45.330655" lon="10.6891908"><ele>75.16666666666667</ele><time>2026-04-18T09:04:48.033Z</time></trkpt><trkpt lat="45.3307134" lon="10.6892244"><ele>76.33333333333334</ele><time>2026-04-18T09:04:50.032Z</time></trkpt><trkpt lat="45.3307327" lon="10.6891108"><ele>77.5</ele><time>2026-04-18T09:04:54.033Z</time></trkpt><trkpt lat="45.330686" lon="10.6889933"><ele>78.66666666666667</ele><time>2026-04-18T09:04:56.033Z</time></trkpt><trkpt lat="45.3306931" lon="10.6888988"><ele>79.83333333333333</ele><time>2026-04-18T09:04:58.033Z</time></trkpt><trkpt lat="45.3307616" lon="10.6888337"><ele>81.0</ele><time>2026-04-18T09:04:59.033Z</time></trkpt><trkpt lat="45.3308567" lon="10.6887589"><ele>81.0</ele><time>2026-04-18T09:05:01.033Z</time></trkpt><trkpt lat="45.3309412" lon="10.6887136"><ele>81.0</ele><time>2026-04-18T09:05:02.033Z</time></trkpt><trkpt lat="45.3310073" lon="10.6886597"><ele>81.0</ele><time>2026-04-18T09:05:03.033Z</time></trkpt><trkpt lat="45.3310737" lon="10.6886111"><ele>81.0</ele><time>2026-04-18T09:05:04.033Z</time></trkpt><trkpt lat="45.3311379" lon="10.6885702"><ele>81.0</ele><time>2026-04-18T09:05:05.033Z</time></trkpt><trkpt lat="45.3312561" lon="10.6884863"><ele>81.0</ele><time>2026-04-18T09:05:07.033Z</time></trkpt><trkpt lat="45.3313712" lon="10.6884234"><ele>85.0</ele><time>2026-04-18T09:05:09.033Z</time></trkpt><trkpt lat="45.3314818" lon="10.6883511"><ele>89.0</ele><time>2026-04-18T09:05:11.033Z</time></trkpt><trkpt lat="45.33158" lon="10.6882681"><ele>93.0</ele><time>2026-04-18T09:05:13.033Z</time></trkpt><trkpt lat="45.3316325" lon="10.6881906"><ele>97.0</ele><time>2026-04-18T09:05:15.033Z</time></trkpt><trkpt lat="45.3317122" lon="10.6880993"><ele>101.0</ele><time>2026-04-18T09:05:17.033Z</time></trkpt><trkpt lat="45.3318027" lon="10.6879736"><ele>101.0</ele><time>2026-04-18T09:05:19.033Z</time></trkpt><trkpt lat="45.3318451" lon="10.6879069"><ele>101.0</ele><time>2026-04-18T09:05:20.033Z</time></trkpt><trkpt lat="45.3319332" lon="10.6878357"><ele>101.0</ele><time>2026-04-18T09:05:22.033Z</time></trkpt><trkpt lat="45.3320333" lon="10.6878165"><ele>101.0</ele><time>2026-04-18T09:05:24.033Z</time></trkpt><trkpt lat="45.3321321" lon="10.687849"><ele>101.0</ele><time>2026-04-18T09:05:26.033Z</time></trkpt><trkpt lat="45.3322094" lon="10.6879454"><ele>103.16666666666666</ele><time>2026-04-18T09:05:28.033Z</time></trkpt><trkpt lat="45.3322599" lon="10.6881149"><ele>105.33333333333333</ele><time>2026-04-18T09:05:30.033Z</time></trkpt><trkpt lat="45.3323015" lon="10.6882017"><ele>107.5</ele><time>2026-04-18T09:05:31.033Z</time></trkpt><trkpt lat="45.3323478" lon="10.6882878"><ele>109.66666666666666</ele><time>2026-04-18T09:05:32.033Z</time></trkpt><trkpt lat="45.3323991" lon="10.6883679"><ele>111.83333333333333</ele><time>2026-04-18T09:05:33.033Z</time></trkpt><trkpt lat="45.3324561" lon="10.6884514"><ele>114.0</ele><time>2026-04-18T09:05:34.033Z</time></trkpt><trkpt lat="45.332512" lon="10.6885234"><ele>114.0</ele><time>2026-04-18T09:05:35.033Z</time></trkpt><trkpt lat="45.3325706" lon="10.6885873"><ele>114.0</ele><time>2026-04-18T09:05:36.033Z</time></trkpt><trkpt lat="45.3326896" lon="10.6886695"><ele>114.0</ele><time>2026-04-18T09:05:38.033Z</time></trkpt><trkpt lat="45.3328068" lon="10.6887295"><ele>114.0</ele><time>2026-04-18T09:05:40.033Z</time></trkpt><trkpt lat="45.3329727" lon="10.688793"><ele>113.4</ele><time>2026-04-18T09:05:42.033Z</time></trkpt><trkpt lat="45.3330608" lon="10.6888305"><ele>112.80000000000001</ele><time>2026-04-18T09:05:43.033Z</time></trkpt><trkpt lat="45.3331952" lon="10.6888484"><ele>112.19999999999999</ele><time>2026-04-18T09:05:44.033Z</time></trkpt><trkpt lat="45.3332956" lon="10.6888772"><ele>111.6</ele><time>2026-04-18T09:05:45.032Z</time></trkpt><trkpt lat="45.3333577" lon="10.6889104"><ele>111.0</ele><time>2026-04-18T09:05:46.033Z</time></trkpt><trkpt lat="45.3334384" lon="10.6889358"><ele>111.0</ele><time>2026-04-18T09:05:47.033Z</time></trkpt><trkpt lat="45.3335228" lon="10.6890479"><ele>111.0</ele><time>2026-04-18T09:05:49.033Z</time></trkpt><trkpt lat="45.333554" lon="10.6891313"><ele>111.0</ele><time>2026-04-18T09:05:50.033Z</time></trkpt><trkpt lat="45.333579" lon="10.6892264"><ele>111.0</ele><time>2026-04-18T09:05:51.033Z</time></trkpt><trkpt lat="45.3336066" lon="10.689329"><ele>111.0</ele><time>2026-04-18T09:05:52.033Z</time></trkpt><trkpt lat="45.3336441" lon="10.6894371"><ele>111.0</ele><time>2026-04-18T09:05:53.033Z</time></trkpt><trkpt lat="45.3336659" lon="10.68954"><ele>110.33333333333333</ele><time>2026-04-18T09:05:54.033Z</time></trkpt><trkpt lat="45.333702" lon="10.6896363"><ele>109.66666666666666</ele><time>2026-04-18T09:05:55.033Z</time></trkpt><trkpt lat="45.3337261" lon="10.6897342"><ele>109.0</ele><time>2026-04-18T09:05:56.033Z</time></trkpt><trkpt lat="45.3337476" lon="10.6898254"><ele>108.33333333333333</ele><time>2026-04-18T09:05:57.033Z</time></trkpt><trkpt lat="45.333787" lon="10.6899191"><ele>107.66666666666666</ele><time>2026-04-18T09:05:58.033Z</time></trkpt><trkpt lat="45.3338155" lon="10.6900046"><ele>107.0</ele><time>2026-04-18T09:05:59.032Z</time></trkpt><trkpt lat="45.3338456" lon="10.6901524"><ele>106.19999999999999</ele><time>2026-04-18T09:06:01.032Z</time></trkpt><trkpt lat="45.3338451" lon="10.6902648"><ele>105.39999999999999</ele><time>2026-04-18T09:06:04.033Z</time></trkpt><trkpt lat="45.3338741" lon="10.6903597"><ele>104.6</ele><time>2026-04-18T09:06:08.033Z</time></trkpt><trkpt lat="45.3339565" lon="10.6903477"><ele>103.80000000000001</ele><time>2026-04-18T09:06:11.033Z</time></trkpt><trkpt lat="45.3340616" lon="10.690276"><ele>103.0</ele><time>2026-04-18T09:06:13.033Z</time></trkpt><trkpt lat="45.3341651" lon="10.6902004"><ele>102.99999999999999</ele><time>2026-04-18T09:06:15.033Z</time></trkpt><trkpt lat="45.3342269" lon="10.6901595"><ele>103.0</ele><time>2026-04-18T09:06:16.033Z</time></trkpt><trkpt lat="45.3342883" lon="10.690119"><ele>103.0</ele><time>2026-04-18T09:06:17.033Z</time></trkpt><trkpt lat="45.3343522" lon="10.6900796"><ele>103.0</ele><time>2026-04-18T09:06:18.033Z</time></trkpt><trkpt lat="45.3344121" lon="10.6900392"><ele>103.0</ele><time>2026-04-18T09:06:19.033Z</time></trkpt><trkpt lat="45.3344848" lon="10.6900113"><ele>102.99999999999999</ele><time>2026-04-18T09:06:20.032Z</time></trkpt><trkpt lat="45.3345513" lon="10.6899796"><ele>103.0</ele><time>2026-04-18T09:06:21.033Z</time></trkpt><trkpt lat="45.334627" lon="10.6899535"><ele>103.00000000000001</ele><time>2026-04-18T09:06:22.033Z</time></trkpt><trkpt lat="45.3346989" lon="10.6899299"><ele>103.0</ele><time>2026-04-18T09:06:23.033Z</time></trkpt><trkpt lat="45.3347706" lon="10.6899363"><ele>103.0</ele><time>2026-04-18T09:06:24.033Z</time></trkpt><trkpt lat="45.3348493" lon="10.6899187"><ele>103.0</ele><time>2026-04-18T09:06:25.033Z</time></trkpt><trkpt lat="45.3349148" lon="10.6899244"><ele>103.00000000000001</ele><time>2026-04-18T09:06:26.033Z</time></trkpt><trkpt lat="45.3350002" lon="10.689951"><ele>103.0</ele><time>2026-04-18T09:06:27.032Z</time></trkpt><trkpt lat="45.3350897" lon="10.6899886"><ele>102.83333333333334</ele><time>2026-04-18T09:06:28.033Z</time></trkpt><trkpt lat="45.3351717" lon="10.6900167"><ele>102.66666666666667</ele><time>2026-04-18T09:06:29.033Z</time></trkpt><trkpt lat="45.3352614" lon="10.6900706"><ele>102.5</ele><time>2026-04-18T09:06:30.033Z</time></trkpt><trkpt lat="45.3353398" lon="10.6901168"><ele>102.33333333333334</ele><time>2026-04-18T09:06:31.033Z</time></trkpt><trkpt lat="45.3354169" lon="10.6901672"><ele>102.16666666666667</ele><time>2026-04-18T09:06:32.033Z</time></trkpt><trkpt lat="45.3354863" lon="10.6902168"><ele>102.0</ele><time>2026-04-18T09:06:33.033Z</time></trkpt><trkpt lat="45.3355582" lon="10.6902658"><ele>102.0</ele><time>2026-04-18T09:06:34.033Z</time></trkpt><trkpt lat="45.3356243" lon="10.6903124"><ele>102.0</ele><time>2026-04-18T09:06:35.033Z</time></trkpt><trkpt lat="45.3357303" lon="10.6903961"><ele>102.0</ele><time>2026-04-18T09:06:37.033Z</time></trkpt><trkpt lat="45.3358016" lon="10.6904542"><ele>102.0</ele><time>2026-04-18T09:06:39.033Z</time></trkpt><trkpt lat="45.3358844" lon="10.6904011"><ele>102.0</ele><time>2026-04-18T09:06:42.033Z</time></trkpt><trkpt lat="45.3359443" lon="10.6902274"><ele>102.0</ele><time>2026-04-18T09:06:44.033Z</time></trkpt><trkpt lat="45.3359912" lon="10.6901296"><ele>102.0</ele><time>2026-04-18T09:06:45.033Z</time></trkpt><trkpt lat="45.3360506" lon="10.690025"><ele>102.0</ele><time>2026-04-18T09:06:46.033Z</time></trkpt><trkpt lat="45.3361156" lon="10.6899201"><ele>102.0</ele><time>2026-04-18T09:06:47.033Z</time></trkpt><trkpt lat="45.3361795" lon="10.6898249"><ele>102.0</ele><time>2026-04-18T09:06:48.032Z</time></trkpt><trkpt lat="45.3362366" lon="10.6897281"><ele>102.0</ele><time>2026-04-18T09:06:49.033Z</time></trkpt><trkpt lat="45.3362846" lon="10.6896491"><ele>102.0</ele><time>2026-04-18T09:06:50.032Z</time></trkpt><trkpt lat="45.3363511" lon="10.6895534"><ele>102.0</ele><time>2026-04-18T09:06:52.033Z</time></trkpt><trkpt lat="45.3364377" lon="10.6895187"><ele>102.0</ele><time>2026-04-18T09:06:54.033Z</time></trkpt><trkpt lat="45.3364968" lon="10.6895786"><ele>102.0</ele><time>2026-04-18T09:06:56.032Z</time></trkpt><trkpt lat="45.3365688" lon="10.6896622"><ele>102.0</ele><time>2026-04-18T09:06:58.032Z</time></trkpt><trkpt lat="45.3366357" lon="10.6897179"><ele>103.0</ele><time>2026-04-18T09:06:59.033Z</time></trkpt><trkpt lat="45.3366959" lon="10.6897654"><ele>104.0</ele><time>2026-04-18T09:07:00.033Z</time></trkpt><trkpt lat="45.336817" lon="10.6898759"><ele>105.0</ele><time>2026-04-18T09:07:02.033Z</time></trkpt><trkpt lat="45.3368815" lon="10.689937"><ele>106.0</ele><time>2026-04-18T09:07:03.033Z</time></trkpt><trkpt lat="45.3369352" lon="10.689998"><ele>107.0</ele><time>2026-04-18T09:07:04.033Z</time></trkpt><trkpt lat="45.3369963" lon="10.6900861"><ele>108.0</ele><time>2026-04-18T09:07:06.033Z</time></trkpt><trkpt lat="45.3370853" lon="10.6901884"><ele>108.4</ele><time>2026-04-18T09:07:08.033Z</time></trkpt><trkpt lat="45.3371797" lon="10.6902852"><ele>108.80000000000001</ele><time>2026-04-18T09:07:10.033Z</time></trkpt><trkpt lat="45.3372701" lon="10.6903635"><ele>109.2</ele><time>2026-04-18T09:07:12.033Z</time></trkpt><trkpt lat="45.3373777" lon="10.6904976"><ele>109.6</ele><time>2026-04-18T09:07:14.033Z</time></trkpt><trkpt lat="45.3374388" lon="10.690566"><ele>110.0</ele><time>2026-04-18T09:07:15.033Z</time></trkpt><trkpt lat="45.3374985" lon="10.690644"><ele>109.16666666666666</ele><time>2026-04-18T09:07:16.033Z</time></trkpt><trkpt lat="45.3375617" lon="10.6907308"><ele>108.33333333333333</ele><time>2026-04-18T09:07:17.033Z</time></trkpt><trkpt lat="45.3376229" lon="10.6908125"><ele>107.5</ele><time>2026-04-18T09:07:18.033Z</time></trkpt><trkpt lat="45.3376788" lon="10.6909003"><ele>106.66666666666666</ele><time>2026-04-18T09:07:19.033Z</time></trkpt><trkpt lat="45.3377401" lon="10.6909922"><ele>105.83333333333333</ele><time>2026-04-18T09:07:20.033Z</time></trkpt><trkpt lat="45.3377922" lon="10.6910827"><ele>105.0</ele><time>2026-04-18T09:07:21.033Z</time></trkpt><trkpt lat="45.3378497" lon="10.691175"><ele>105.0</ele><time>2026-04-18T09:07:22.033Z</time></trkpt><trkpt lat="45.3379052" lon="10.6912636"><ele>105.0</ele><time>2026-04-18T09:07:23.033Z</time></trkpt><trkpt lat="45.3379554" lon="10.6913561"><ele>105.0</ele><time>2026-04-18T09:07:24.033Z</time></trkpt><trkpt lat="45.3379975" lon="10.6914478"><ele>105.0</ele><time>2026-04-18T09:07:25.033Z</time></trkpt><trkpt lat="45.3380393" lon="10.6915399"><ele>105.0</ele><time>2026-04-18T09:07:26.032Z</time></trkpt><trkpt lat="45.3380779" lon="10.6916329"><ele>105.0</ele><time>2026-04-18T09:07:27.033Z</time></trkpt><trkpt lat="45.3381583" lon="10.6917839"><ele>104.14285714285714</ele><time>2026-04-18T09:07:29.033Z</time></trkpt><trkpt lat="45.3381815" lon="10.6918712"><ele>103.28571428571428</ele><time>2026-04-18T09:07:30.033Z</time></trkpt><trkpt lat="45.3382193" lon="10.6919521"><ele>102.42857142857143</ele><time>2026-04-18T09:07:31.032Z</time></trkpt><trkpt lat="45.338264" lon="10.6920385"><ele>101.57142857142857</ele><time>2026-04-18T09:07:32.033Z</time></trkpt><trkpt lat="45.3383095" lon="10.6921111"><ele>100.71428571428571</ele><time>2026-04-18T09:07:33.032Z</time></trkpt><trkpt lat="45.3383582" lon="10.6921703"><ele>99.85714285714286</ele><time>2026-04-18T09:07:34.033Z</time></trkpt><trkpt lat="45.3384228" lon="10.6922375"><ele>99.0</ele><time>2026-04-18T09:07:36.032Z</time></trkpt><trkpt lat="45.3385006" lon="10.692208"><ele>99.0</ele><time>2026-04-18T09:07:39.033Z</time></trkpt><trkpt lat="45.3385496" lon="10.6921515"><ele>99.0</ele><time>2026-04-18T09:07:40.033Z</time></trkpt><trkpt lat="45.338621" lon="10.6920771"><ele>99.0</ele><time>2026-04-18T09:07:41.033Z</time></trkpt><trkpt lat="45.3387013" lon="10.6920019"><ele>99.0</ele><time>2026-04-18T09:07:42.033Z</time></trkpt><trkpt lat="45.3387815" lon="10.6919237"><ele>99.0</ele><time>2026-04-18T09:07:43.033Z</time></trkpt><trkpt lat="45.3388607" lon="10.6918508"><ele>99.0</ele><time>2026-04-18T09:07:44.033Z</time></trkpt><trkpt lat="45.3389363" lon="10.6917743"><ele>97.0</ele><time>2026-04-18T09:07:45.032Z</time></trkpt><trkpt lat="45.3390106" lon="10.6917039"><ele>95.0</ele><time>2026-04-18T09:07:46.033Z</time></trkpt><trkpt lat="45.3390892" lon="10.6916279"><ele>93.0</ele><time>2026-04-18T09:07:47.033Z</time></trkpt><trkpt lat="45.3391649" lon="10.6915511"><ele>91.0</ele><time>2026-04-18T09:07:48.033Z</time></trkpt><trkpt lat="45.3392364" lon="10.6914713"><ele>89.0</ele><time>2026-04-18T09:07:49.033Z</time></trkpt><trkpt lat="45.3393214" lon="10.69138"><ele>89.0</ele><time>2026-04-18T09:07:50.033Z</time></trkpt><trkpt lat="45.339409" lon="10.691301"><ele>89.0</ele><time>2026-04-18T09:07:51.033Z</time></trkpt><trkpt lat="45.3394903" lon="10.6912223"><ele>89.0</ele><time>2026-04-18T09:07:52.033Z</time></trkpt><trkpt lat="45.3395646" lon="10.691147"><ele>89.0</ele><time>2026-04-18T09:07:53.033Z</time></trkpt><trkpt lat="45.3396394" lon="10.6910792"><ele>89.0</ele><time>2026-04-18T09:07:54.033Z</time></trkpt><trkpt lat="45.3396995" lon="10.6910172"><ele>89.2</ele><time>2026-04-18T09:07:55.033Z</time></trkpt><trkpt lat="45.339761" lon="10.6909725"><ele>89.4</ele><time>2026-04-18T09:07:56.033Z</time></trkpt><trkpt lat="45.3398843" lon="10.6909535"><ele>89.6</ele><time>2026-04-18T09:07:58.033Z</time></trkpt><trkpt lat="45.3399628" lon="10.6909813"><ele>89.8</ele><time>2026-04-18T09:07:59.032Z</time></trkpt><trkpt lat="45.3400507" lon="10.6910115"><ele>90.0</ele><time>2026-04-18T09:08:00.033Z</time></trkpt><trkpt lat="45.3401451" lon="10.6910447"><ele>90.0</ele><time>2026-04-18T09:08:01.033Z</time></trkpt><trkpt lat="45.3402446" lon="10.6910814"><ele>90.0</ele><time>2026-04-18T09:08:02.033Z</time></trkpt><trkpt lat="45.3403497" lon="10.6911153"><ele>90.0</ele><time>2026-04-18T09:08:03.033Z</time></trkpt><trkpt lat="45.3404553" lon="10.6911549"><ele>90.0</ele><time>2026-04-18T09:08:04.033Z</time></trkpt><trkpt lat="45.3405588" lon="10.6911874"><ele>90.0</ele><time>2026-04-18T09:08:05.033Z</time></trkpt><trkpt lat="45.340651" lon="10.6912202"><ele>90.16666666666667</ele><time>2026-04-18T09:08:06.033Z</time></trkpt><trkpt lat="45.3407374" lon="10.691248"><ele>90.33333333333333</ele><time>2026-04-18T09:08:07.033Z</time></trkpt><trkpt lat="45.3408185" lon="10.691273"><ele>90.5</ele><time>2026-04-18T09:08:08.033Z</time></trkpt><trkpt lat="45.3408966" lon="10.6912967"><ele>90.66666666666666</ele><time>2026-04-18T09:08:09.033Z</time></trkpt><trkpt lat="45.3409873" lon="10.6913032"><ele>90.83333333333333</ele><time>2026-04-18T09:08:11.033Z</time></trkpt><trkpt lat="45.341037" lon="10.6911881"><ele>91.0</ele><time>2026-04-18T09:08:13.033Z</time></trkpt><trkpt lat="45.341055" lon="10.6910804"><ele>91.0</ele><time>2026-04-18T09:08:14.033Z</time></trkpt><trkpt lat="45.3410794" lon="10.690975"><ele>91.0</ele><time>2026-04-18T09:08:15.032Z</time></trkpt><trkpt lat="45.341119" lon="10.6908687"><ele>91.0</ele><time>2026-04-18T09:08:16.033Z</time></trkpt><trkpt lat="45.3411671" lon="10.6907587"><ele>91.0</ele><time>2026-04-18T09:08:17.033Z</time></trkpt><trkpt lat="45.3412259" lon="10.6906615"><ele>91.0</ele><time>2026-04-18T09:08:18.033Z</time></trkpt><trkpt lat="45.3412841" lon="10.6905653"><ele>91.0</ele><time>2026-04-18T09:08:19.033Z</time></trkpt><trkpt lat="45.3413526" lon="10.6904745"><ele>91.0</ele><time>2026-04-18T09:08:20.033Z</time></trkpt><trkpt lat="45.3414104" lon="10.6903837"><ele>91.0</ele><time>2026-04-18T09:08:21.033Z</time></trkpt><trkpt lat="45.3414663" lon="10.6902879"><ele>91.0</ele><time>2026-04-18T09:08:22.033Z</time></trkpt><trkpt lat="45.3415142" lon="10.6901952"><ele>91.0</ele><time>2026-04-18T09:08:23.033Z</time></trkpt><trkpt lat="45.3415554" lon="10.6900996"><ele>91.0</ele><time>2026-04-18T09:08:24.033Z</time></trkpt><trkpt lat="45.3415883" lon="10.6900092"><ele>91.0</ele><time>2026-04-18T09:08:25.033Z</time></trkpt><trkpt lat="45.3416315" lon="10.6899103"><ele>91.0</ele><time>2026-04-18T09:08:26.033Z</time></trkpt><trkpt lat="45.3416819" lon="10.6898352"><ele>91.0</ele><time>2026-04-18T09:08:27.033Z</time></trkpt><trkpt lat="45.3417386" lon="10.6897318"><ele>91.0</ele><time>2026-04-18T09:08:28.033Z</time></trkpt><trkpt lat="45.3417983" lon="10.6896345"><ele>91.0</ele><time>2026-04-18T09:08:29.033Z</time></trkpt><trkpt lat="45.3418579" lon="10.6895481"><ele>91.0</ele><time>2026-04-18T09:08:30.033Z</time></trkpt><trkpt lat="45.3419227" lon="10.6894852"><ele>91.0</ele><time>2026-04-18T09:08:31.033Z</time></trkpt><trkpt lat="45.3419867" lon="10.6894354"><ele>91.16666666666666</ele><time>2026-04-18T09:08:32.033Z</time></trkpt><trkpt lat="45.3420576" lon="10.6894045"><ele>91.33333333333333</ele><time>2026-04-18T09:08:33.032Z</time></trkpt><trkpt lat="45.3421349" lon="10.6893899"><ele>91.5</ele><time>2026-04-18T09:08:34.033Z</time></trkpt><trkpt lat="45.3422172" lon="10.6893723"><ele>91.66666666666667</ele><time>2026-04-18T09:08:35.033Z</time></trkpt><trkpt lat="45.3423032" lon="10.6893768"><ele>91.83333333333334</ele><time>2026-04-18T09:08:36.033Z</time></trkpt><trkpt lat="45.3423907" lon="10.6893878"><ele>92.0</ele><time>2026-04-18T09:08:37.033Z</time></trkpt><trkpt lat="45.3424797" lon="10.6894111"><ele>92.33333333333334</ele><time>2026-04-18T09:08:38.033Z</time></trkpt><trkpt lat="45.3425742" lon="10.6894306"><ele>92.66666666666667</ele><time>2026-04-18T09:08:39.033Z</time></trkpt><trkpt lat="45.3426682" lon="10.6894447"><ele>93.0</ele><time>2026-04-18T09:08:40.033Z</time></trkpt><trkpt lat="45.3427586" lon="10.689444"><ele>93.33333333333333</ele><time>2026-04-18T09:08:41.033Z</time></trkpt><trkpt lat="45.3428404" lon="10.6894264"><ele>93.66666666666666</ele><time>2026-04-18T09:08:42.033Z</time></trkpt><trkpt lat="45.3429154" lon="10.6894078"><ele>94.0</ele><time>2026-04-18T09:08:43.033Z</time></trkpt><trkpt lat="45.3430016" lon="10.6893942"><ele>95.2</ele><time>2026-04-18T09:08:44.032Z</time></trkpt><trkpt lat="45.3430902" lon="10.6893782"><ele>96.4</ele><time>2026-04-18T09:08:45.032Z</time></trkpt><trkpt lat="45.3431851" lon="10.68938"><ele>97.6</ele><time>2026-04-18T09:08:46.033Z</time></trkpt><trkpt lat="45.3432866" lon="10.6893902"><ele>98.8</ele><time>2026-04-18T09:08:47.033Z</time></trkpt><trkpt lat="45.3433966" lon="10.6893906"><ele>100.0</ele><time>2026-04-18T09:08:48.033Z</time></trkpt><trkpt lat="45.3435044" lon="10.6894121"><ele>100.2</ele><time>2026-04-18T09:08:49.033Z</time></trkpt><trkpt lat="45.3435993" lon="10.6894477"><ele>100.4</ele><time>2026-04-18T09:08:50.033Z</time></trkpt><trkpt lat="45.3436983" lon="10.6894882"><ele>100.6</ele><time>2026-04-18T09:08:51.033Z</time></trkpt><trkpt lat="45.343783" lon="10.6895378"><ele>100.8</ele><time>2026-04-18T09:08:52.033Z</time></trkpt><trkpt lat="45.3438727" lon="10.6895794"><ele>101.0</ele><time>2026-04-18T09:08:53.033Z</time></trkpt><trkpt lat="45.3439414" lon="10.6896196"><ele>100.6</ele><time>2026-04-18T09:08:54.033Z</time></trkpt><trkpt lat="45.3440076" lon="10.6896706"><ele>100.19999999999999</ele><time>2026-04-18T09:08:55.033Z</time></trkpt><trkpt lat="45.3440922" lon="10.6897358"><ele>99.80000000000001</ele><time>2026-04-18T09:08:57.033Z</time></trkpt><trkpt lat="45.3441787" lon="10.689778"><ele>99.4</ele><time>2026-04-18T09:09:50.033Z</time></trkpt><trkpt lat="45.3442369" lon="10.6896459"><ele>99.0</ele><time>2026-04-18T09:09:53.033Z</time></trkpt><trkpt lat="45.3443098" lon="10.6895518"><ele>99.0</ele><time>2026-04-18T09:09:55.033Z</time></trkpt><trkpt lat="45.3443958" lon="10.6894947"><ele>99.0</ele><time>2026-04-18T09:09:57.032Z</time></trkpt><trkpt lat="45.3445206" lon="10.6894314"><ele>99.0</ele><time>2026-04-18T09:09:59.033Z</time></trkpt><trkpt lat="45.3446163" lon="10.6893773"><ele>99.0</ele><time>2026-04-18T09:10:01.033Z</time></trkpt><trkpt lat="45.344707" lon="10.6893187"><ele>99.0</ele><time>2026-04-18T09:10:03.033Z</time></trkpt><trkpt lat="45.3448011" lon="10.6893116"><ele>99.2</ele><time>2026-04-18T09:10:05.033Z</time></trkpt><trkpt lat="45.3448872" lon="10.6893526"><ele>99.4</ele><time>2026-04-18T09:10:07.033Z</time></trkpt><trkpt lat="45.3449855" lon="10.6894175"><ele>99.6</ele><time>2026-04-18T09:10:09.033Z</time></trkpt><trkpt lat="45.3450819" lon="10.6894779"><ele>99.8</ele><time>2026-04-18T09:10:11.033Z</time></trkpt><trkpt lat="45.3451887" lon="10.6895355"><ele>100.0</ele><time>2026-04-18T09:10:13.033Z</time></trkpt><trkpt lat="45.3452685" lon="10.689621"><ele>99.50000000000001</ele><time>2026-04-18T09:10:15.033Z</time></trkpt><trkpt lat="45.345329" lon="10.6897278"><ele>99.0</ele><time>2026-04-18T09:10:17.033Z</time></trkpt><trkpt lat="45.3453589" lon="10.6898075"><ele>98.5</ele><time>2026-04-18T09:10:18.033Z</time></trkpt><trkpt lat="45.3453837" lon="10.6899933"><ele>98.0</ele><time>2026-04-18T09:10:20.033Z</time></trkpt><trkpt lat="45.3453919" lon="10.6900925"><ele>97.50000000000001</ele><time>2026-04-18T09:10:21.033Z</time></trkpt><trkpt lat="45.3453881" lon="10.6902044"><ele>97.0</ele><time>2026-04-18T09:10:22.033Z</time></trkpt><trkpt lat="45.3453775" lon="10.6903084"><ele>96.83333333333334</ele><time>2026-04-18T09:10:23.033Z</time></trkpt><trkpt lat="45.3453612" lon="10.6904022"><ele>96.66666666666667</ele><time>2026-04-18T09:10:24.033Z</time></trkpt><trkpt lat="45.3453089" lon="10.6905594"><ele>96.5</ele><time>2026-04-18T09:10:26.033Z</time></trkpt><trkpt lat="45.3452723" lon="10.6906652"><ele>96.33333333333334</ele><time>2026-04-18T09:10:28.033Z</time></trkpt><trkpt lat="45.3452528" lon="10.6907752"><ele>96.16666666666667</ele><time>2026-04-18T09:10:30.033Z</time></trkpt><trkpt lat="45.3452833" lon="10.6908675"><ele>96.0</ele><time>2026-04-18T09:10:32.033Z</time></trkpt><trkpt lat="45.3453404" lon="10.6910279"><ele>96.0</ele><time>2026-04-18T09:10:34.033Z</time></trkpt><trkpt lat="45.3453943" lon="10.6911203"><ele>96.0</ele><time>2026-04-18T09:10:35.033Z</time></trkpt><trkpt lat="45.3454518" lon="10.6912128"><ele>96.0</ele><time>2026-04-18T09:10:36.033Z</time></trkpt><trkpt lat="45.3455121" lon="10.6912946"><ele>96.0</ele><time>2026-04-18T09:10:37.033Z</time></trkpt><trkpt lat="45.345584" lon="10.6913899"><ele>96.0</ele><time>2026-04-18T09:10:38.033Z</time></trkpt><trkpt lat="45.3456489" lon="10.6914827"><ele>96.0</ele><time>2026-04-18T09:10:39.033Z</time></trkpt><trkpt lat="45.3457262" lon="10.6916102"><ele>96.0</ele><time>2026-04-18T09:10:40.033Z</time></trkpt><trkpt lat="45.3457873" lon="10.6917028"><ele>96.0</ele><time>2026-04-18T09:10:41.033Z</time></trkpt><trkpt lat="45.3458412" lon="10.6917796"><ele>96.0</ele><time>2026-04-18T09:10:42.033Z</time></trkpt><trkpt lat="45.3458958" lon="10.6918541"><ele>96.0</ele><time>2026-04-18T09:10:43.033Z</time></trkpt><trkpt lat="45.3459601" lon="10.6919333"><ele>96.0</ele><time>2026-04-18T09:10:44.033Z</time></trkpt><trkpt lat="45.3460233" lon="10.6920166"><ele>96.0</ele><time>2026-04-18T09:10:45.033Z</time></trkpt><trkpt lat="45.3460679" lon="10.6921263"><ele>95.75</ele><time>2026-04-18T09:10:46.033Z</time></trkpt><trkpt lat="45.3461401" lon="10.6922529"><ele>95.5</ele><time>2026-04-18T09:10:47.033Z</time></trkpt><trkpt lat="45.3462153" lon="10.6923858"><ele>95.25</ele><time>2026-04-18T09:10:48.033Z</time></trkpt><trkpt lat="45.3462858" lon="10.6925212"><ele>95.0</ele><time>2026-04-18T09:10:49.033Z</time></trkpt><trkpt lat="45.3463442" lon="10.6926609"><ele>95.0</ele><time>2026-04-18T09:10:50.033Z</time></trkpt><trkpt lat="45.3463971" lon="10.6927915"><ele>95.0</ele><time>2026-04-18T09:10:51.033Z</time></trkpt><trkpt lat="45.3464468" lon="10.6929281"><ele>95.0</ele><time>2026-04-18T09:10:52.033Z</time></trkpt><trkpt lat="45.3464933" lon="10.6930511"><ele>95.0</ele><time>2026-04-18T09:10:53.033Z</time></trkpt><trkpt lat="45.3465429" lon="10.6931843"><ele>95.0</ele><time>2026-04-18T09:10:54.033Z</time></trkpt><trkpt lat="45.3465977" lon="10.6933189"><ele>95.0</ele><time>2026-04-18T09:10:55.033Z</time></trkpt><trkpt lat="45.346659" lon="10.6934566"><ele>95.0</ele><time>2026-04-18T09:10:56.033Z</time></trkpt><trkpt lat="45.3467294" lon="10.6935938"><ele>95.0</ele><time>2026-04-18T09:10:57.033Z</time></trkpt><trkpt lat="45.3467991" lon="10.6937113"><ele>95.0</ele><time>2026-04-18T09:10:58.032Z</time></trkpt><trkpt lat="45.3468739" lon="10.6938503"><ele>95.25</ele><time>2026-04-18T09:10:59.033Z</time></trkpt><trkpt lat="45.3469448" lon="10.6940003"><ele>95.5</ele><time>2026-04-18T09:11:00.033Z</time></trkpt><trkpt lat="45.3470148" lon="10.6941384"><ele>95.75</ele><time>2026-04-18T09:11:01.032Z</time></trkpt><trkpt lat="45.3470885" lon="10.6942892"><ele>96.0</ele><time>2026-04-18T09:11:02.033Z</time></trkpt><trkpt lat="45.347162" lon="10.6944267"><ele>96.25</ele><time>2026-04-18T09:11:03.033Z</time></trkpt><trkpt lat="45.347233" lon="10.6945761"><ele>96.5</ele><time>2026-04-18T09:11:04.033Z</time></trkpt><trkpt lat="45.3472982" lon="10.694711"><ele>96.75</ele><time>2026-04-18T09:11:05.033Z</time></trkpt><trkpt lat="45.3473713" lon="10.694854"><ele>97.0</ele><time>2026-04-18T09:11:06.033Z</time></trkpt><trkpt lat="45.347441" lon="10.6949902"><ele>97.0</ele><time>2026-04-18T09:11:07.033Z</time></trkpt><trkpt lat="45.3475144" lon="10.6951325"><ele>97.0</ele><time>2026-04-18T09:11:08.033Z</time></trkpt><trkpt lat="45.3475856" lon="10.6952703"><ele>97.0</ele><time>2026-04-18T09:11:09.033Z</time></trkpt><trkpt lat="45.3476509" lon="10.69541"><ele>97.0</ele><time>2026-04-18T09:11:10.032Z</time></trkpt><trkpt lat="45.3477207" lon="10.6955447"><ele>97.19999999999999</ele><time>2026-04-18T09:11:11.033Z</time></trkpt><trkpt lat="45.3477818" lon="10.6956674"><ele>97.4</ele><time>2026-04-18T09:11:12.033Z</time></trkpt><trkpt lat="45.347842" lon="10.6957869"><ele>97.6</ele><time>2026-04-18T09:11:13.033Z</time></trkpt><trkpt lat="45.3479042" lon="10.6958892"><ele>97.80000000000001</ele><time>2026-04-18T09:11:14.033Z</time></trkpt><trkpt lat="45.347966" lon="10.6959816"><ele>98.0</ele><time>2026-04-18T09:11:15.033Z</time></trkpt><trkpt lat="45.3480402" lon="10.696078"><ele>98.16666666666666</ele><time>2026-04-18T09:11:17.032Z</time></trkpt><trkpt lat="45.3480315" lon="10.6961807"><ele>98.33333333333333</ele><time>2026-04-18T09:11:19.033Z</time></trkpt><trkpt lat="45.3479554" lon="10.6962546"><ele>98.5</ele><time>2026-04-18T09:11:21.033Z</time></trkpt><trkpt lat="45.347847" lon="10.6963505"><ele>98.66666666666666</ele><time>2026-04-18T09:11:23.033Z</time></trkpt><trkpt lat="45.3477947" lon="10.6964011"><ele>98.83333333333333</ele><time>2026-04-18T09:11:24.033Z</time></trkpt><trkpt lat="45.3477246" lon="10.696455"><ele>99.0</ele><time>2026-04-18T09:11:25.033Z</time></trkpt><trkpt lat="45.3476474" lon="10.6964992"><ele>99.0</ele><time>2026-04-18T09:11:26.033Z</time></trkpt><trkpt lat="45.3475594" lon="10.6965435"><ele>99.0</ele><time>2026-04-18T09:11:27.033Z</time></trkpt><trkpt lat="45.3474705" lon="10.6965862"><ele>99.0</ele><time>2026-04-18T09:11:28.032Z</time></trkpt><trkpt lat="45.3473871" lon="10.6966405"><ele>99.0</ele><time>2026-04-18T09:11:29.033Z</time></trkpt><trkpt lat="45.3472929" lon="10.6966938"><ele>99.0</ele><time>2026-04-18T09:11:30.033Z</time></trkpt><trkpt lat="45.3472112" lon="10.6967611"><ele>99.2</ele><time>2026-04-18T09:11:31.033Z</time></trkpt><trkpt lat="45.3471212" lon="10.6968447"><ele>99.4</ele><time>2026-04-18T09:11:32.033Z</time></trkpt><trkpt lat="45.3470406" lon="10.6969443"><ele>99.6</ele><time>2026-04-18T09:11:33.033Z</time></trkpt><trkpt lat="45.34696" lon="10.6970428"><ele>99.8</ele><time>2026-04-18T09:11:34.033Z</time></trkpt><trkpt lat="45.3468836" lon="10.6971583"><ele>100.0</ele><time>2026-04-18T09:11:35.033Z</time></trkpt><trkpt lat="45.3468058" lon="10.6972952"><ele>100.25</ele><time>2026-04-18T09:11:36.032Z</time></trkpt><trkpt lat="45.3467245" lon="10.6974375"><ele>100.5</ele><time>2026-04-18T09:11:37.033Z</time></trkpt><trkpt lat="45.3466448" lon="10.6975812"><ele>100.75</ele><time>2026-04-18T09:11:38.033Z</time></trkpt><trkpt lat="45.3465644" lon="10.6977324"><ele>101.0</ele><time>2026-04-18T09:11:39.033Z</time></trkpt><trkpt lat="45.3464843" lon="10.6978858"><ele>101.49999999999999</ele><time>2026-04-18T09:11:40.033Z</time></trkpt><trkpt lat="45.3464202" lon="10.6980315"><ele>102.0</ele><time>2026-04-18T09:11:41.033Z</time></trkpt><trkpt lat="45.3463779" lon="10.6981427"><ele>102.5</ele><time>2026-04-18T09:11:42.033Z</time></trkpt><trkpt lat="45.3463402" lon="10.698243"><ele>103.0</ele><time>2026-04-18T09:11:43.032Z</time></trkpt><trkpt lat="45.3463561" lon="10.6983453"><ele>103.49999999999999</ele><time>2026-04-18T09:11:46.033Z</time></trkpt><trkpt lat="45.3464051" lon="10.6984453"><ele>104.0</ele><time>2026-04-18T09:11:48.033Z</time></trkpt><trkpt lat="45.3464575" lon="10.6985272"><ele>104.83333333333333</ele><time>2026-04-18T09:11:50.033Z</time></trkpt><trkpt lat="45.346484" lon="10.6986342"><ele>105.66666666666666</ele><time>2026-04-18T09:11:53.033Z</time></trkpt><trkpt lat="45.346525" lon="10.6987042"><ele>106.5</ele><time>2026-04-18T09:11:55.033Z</time></trkpt><trkpt lat="45.3465731" lon="10.6987984"><ele>107.33333333333334</ele><time>2026-04-18T09:11:57.033Z</time></trkpt><trkpt lat="45.3465908" lon="10.6989018"><ele>108.16666666666667</ele><time>2026-04-18T09:11:59.033Z</time></trkpt><trkpt lat="45.3465908" lon="10.699016"><ele>109.0</ele><time>2026-04-18T09:12:01.033Z</time></trkpt><trkpt lat="45.3466444" lon="10.6991123"><ele>109.0</ele><time>2026-04-18T09:12:03.033Z</time></trkpt><trkpt lat="45.3467433" lon="10.6992289"><ele>109.0</ele><time>2026-04-18T09:12:05.033Z</time></trkpt><trkpt lat="45.3468114" lon="10.699282"><ele>109.0</ele><time>2026-04-18T09:12:06.033Z</time></trkpt><trkpt lat="45.3468612" lon="10.6993489"><ele>109.0</ele><time>2026-04-18T09:12:07.033Z</time></trkpt><trkpt lat="45.3469813" lon="10.6994446"><ele>109.0</ele><time>2026-04-18T09:12:09.033Z</time></trkpt><trkpt lat="45.3470173" lon="10.6995221"><ele>108.83333333333334</ele><time>2026-04-18T09:12:10.033Z</time></trkpt><trkpt lat="45.347076" lon="10.6995981"><ele>108.66666666666667</ele><time>2026-04-18T09:12:11.033Z</time></trkpt><trkpt lat="45.3471659" lon="10.699659"><ele>108.5</ele><time>2026-04-18T09:12:12.033Z</time></trkpt><trkpt lat="45.3472407" lon="10.6997043"><ele>108.33333333333334</ele><time>2026-04-18T09:12:13.033Z</time></trkpt><trkpt lat="45.3473208" lon="10.6997584"><ele>108.16666666666667</ele><time>2026-04-18T09:12:14.033Z</time></trkpt><trkpt lat="45.3473854" lon="10.6997946"><ele>108.0</ele><time>2026-04-18T09:12:15.033Z</time></trkpt><trkpt lat="45.3474427" lon="10.6998579"><ele>108.0</ele><time>2026-04-18T09:12:16.033Z</time></trkpt><trkpt lat="45.3475" lon="10.6999173"><ele>108.0</ele><time>2026-04-18T09:12:17.033Z</time></trkpt><trkpt lat="45.3475783" lon="10.6999793"><ele>108.0</ele><time>2026-04-18T09:12:19.033Z</time></trkpt><trkpt lat="45.3476401" lon="10.6999417"><ele>108.0</ele><time>2026-04-18T09:12:21.033Z</time></trkpt><trkpt lat="45.3476936" lon="10.6998011"><ele>108.0</ele><time>2026-04-18T09:12:23.033Z</time></trkpt><trkpt lat="45.3477423" lon="10.6996852"><ele>108.0</ele><time>2026-04-18T09:12:25.033Z</time></trkpt><trkpt lat="45.3478108" lon="10.6996993"><ele>108.0</ele><time>2026-04-18T09:12:27.033Z</time></trkpt><trkpt lat="45.34789" lon="10.6997329"><ele>108.0</ele><time>2026-04-18T09:12:29.033Z</time></trkpt><trkpt lat="45.3479682" lon="10.6997806"><ele>108.0</ele><time>2026-04-18T09:12:31.033Z</time></trkpt><trkpt lat="45.3480583" lon="10.6998712"><ele>108.0</ele><time>2026-04-18T09:12:33.033Z</time></trkpt><trkpt lat="45.348101" lon="10.6999408"><ele>108.0</ele><time>2026-04-18T09:12:34.033Z</time></trkpt><trkpt lat="45.3481452" lon="10.7000215"><ele>108.0</ele><time>2026-04-18T09:12:35.032Z</time></trkpt><trkpt lat="45.3482154" lon="10.7001138"><ele>107.4</ele><time>2026-04-18T09:12:37.033Z</time></trkpt><trkpt lat="45.3482679" lon="10.7002149"><ele>106.80000000000001</ele><time>2026-04-18T09:12:40.033Z</time></trkpt><trkpt lat="45.3483323" lon="10.7003174"><ele>106.2</ele><time>2026-04-18T09:12:42.033Z</time></trkpt><trkpt lat="45.3484156" lon="10.700436"><ele>105.6</ele><time>2026-04-18T09:12:44.033Z</time></trkpt><trkpt lat="45.3484694" lon="10.7004966"><ele>105.0</ele><time>2026-04-18T09:12:45.033Z</time></trkpt><trkpt lat="45.3485811" lon="10.7005831"><ele>104.8</ele><time>2026-04-18T09:12:47.033Z</time></trkpt><trkpt lat="45.348647" lon="10.7007009"><ele>104.6</ele><time>2026-04-18T09:12:49.033Z</time></trkpt><trkpt lat="45.3486276" lon="10.7008102"><ele>104.4</ele><time>2026-04-18T09:12:51.033Z</time></trkpt><trkpt lat="45.3486095" lon="10.7009054"><ele>104.2</ele><time>2026-04-18T09:12:53.033Z</time></trkpt><trkpt lat="45.348564" lon="10.7011204"><ele>104.0</ele><time>2026-04-18T09:12:56.033Z</time></trkpt><trkpt lat="45.3485441" lon="10.7012618"><ele>104.0</ele><time>2026-04-18T09:12:57.033Z</time></trkpt><trkpt lat="45.3485327" lon="10.7013724"><ele>104.0</ele><time>2026-04-18T09:12:58.033Z</time></trkpt><trkpt lat="45.3485171" lon="10.7015059"><ele>104.0</ele><time>2026-04-18T09:12:59.033Z</time></trkpt><trkpt lat="45.3484947" lon="10.7016494"><ele>104.0</ele><time>2026-04-18T09:13:00.033Z</time></trkpt><trkpt lat="45.3484874" lon="10.7017984"><ele>104.0</ele><time>2026-04-18T09:13:01.033Z</time></trkpt><trkpt lat="45.3484873" lon="10.7019224"><ele>103.83333333333333</ele><time>2026-04-18T09:13:02.033Z</time></trkpt><trkpt lat="45.3484891" lon="10.7020549"><ele>103.66666666666666</ele><time>2026-04-18T09:13:03.033Z</time></trkpt><trkpt lat="45.3484928" lon="10.702179"><ele>103.5</ele><time>2026-04-18T09:13:04.033Z</time></trkpt><trkpt lat="45.3484958" lon="10.7023089"><ele>103.33333333333334</ele><time>2026-04-18T09:13:05.033Z</time></trkpt><trkpt lat="45.3484973" lon="10.7024174"><ele>103.16666666666667</ele><time>2026-04-18T09:13:06.033Z</time></trkpt><trkpt lat="45.3485079" lon="10.7025405"><ele>103.0</ele><time>2026-04-18T09:13:07.033Z</time></trkpt><trkpt lat="45.3485224" lon="10.7026699"><ele>103.60000000000001</ele><time>2026-04-18T09:13:08.033Z</time></trkpt><trkpt lat="45.3485313" lon="10.7027993"><ele>104.2</ele><time>2026-04-18T09:13:09.033Z</time></trkpt><trkpt lat="45.348545" lon="10.7029257"><ele>104.8</ele><time>2026-04-18T09:13:10.033Z</time></trkpt><trkpt lat="45.3485556" lon="10.7030442"><ele>105.4</ele><time>2026-04-18T09:13:11.033Z</time></trkpt><trkpt lat="45.3486012" lon="10.7031234"><ele>106.0</ele><time>2026-04-18T09:13:12.033Z</time></trkpt><trkpt lat="45.3486385" lon="10.7032778"><ele>106.00000000000001</ele><time>2026-04-18T09:13:14.033Z</time></trkpt><trkpt lat="45.3486734" lon="10.703395"><ele>106.0</ele><time>2026-04-18T09:13:16.033Z</time></trkpt><trkpt lat="45.348656" lon="10.7035096"><ele>106.0</ele><time>2026-04-18T09:13:22.033Z</time></trkpt><trkpt lat="45.3486172" lon="10.7036034"><ele>106.0</ele><time>2026-04-18T09:13:24.033Z</time></trkpt><trkpt lat="45.3486051" lon="10.7037032"><ele>106.00000000000001</ele><time>2026-04-18T09:13:28.033Z</time></trkpt><trkpt lat="45.3486217" lon="10.7038249"><ele>106.0</ele><time>2026-04-18T09:13:31.033Z</time></trkpt><trkpt lat="45.3485949" lon="10.703996"><ele>106.00000000000001</ele><time>2026-04-18T09:13:33.033Z</time></trkpt><trkpt lat="45.3485765" lon="10.7041421"><ele>106.0</ele><time>2026-04-18T09:13:35.033Z</time></trkpt><trkpt lat="45.3485697" lon="10.7042355"><ele>106.0</ele><time>2026-04-18T09:13:37.033Z</time></trkpt><trkpt lat="45.3485801" lon="10.7044058"><ele>106.0</ele><time>2026-04-18T09:13:41.033Z</time></trkpt><trkpt lat="45.3485985" lon="10.7045218"><ele>106.00000000000001</ele><time>2026-04-18T09:13:43.033Z</time></trkpt><trkpt lat="45.3486118" lon="10.7046119"><ele>106.0</ele><time>2026-04-18T09:13:45.033Z</time></trkpt><trkpt lat="45.3486087" lon="10.7047334"><ele>106.00000000000001</ele><time>2026-04-18T09:13:48.033Z</time></trkpt><trkpt lat="45.3486171" lon="10.7048341"><ele>106.0</ele><time>2026-04-18T09:13:51.033Z</time></trkpt><trkpt lat="45.3486144" lon="10.7049338"><ele>106.0</ele><time>2026-04-18T09:13:57.033Z</time></trkpt><trkpt lat="45.3486282" lon="10.7050546"><ele>106.0</ele><time>2026-04-18T09:14:01.033Z</time></trkpt><trkpt lat="45.3486418" lon="10.7051653"><ele>106.00000000000001</ele><time>2026-04-18T09:14:04.033Z</time></trkpt><trkpt lat="45.3486617" lon="10.7052892"><ele>106.0</ele><time>2026-04-18T09:14:06.033Z</time></trkpt><trkpt lat="45.3486906" lon="10.7053817"><ele>106.16666666666667</ele><time>2026-04-18T09:14:08.033Z</time></trkpt><trkpt lat="45.3487293" lon="10.7054819"><ele>106.33333333333334</ele><time>2026-04-18T09:14:10.033Z</time></trkpt><trkpt lat="45.3487538" lon="10.7055847"><ele>106.5</ele><time>2026-04-18T09:14:12.033Z</time></trkpt><trkpt lat="45.3487583" lon="10.7056874"><ele>106.66666666666666</ele><time>2026-04-18T09:14:15.033Z</time></trkpt><trkpt lat="45.3487565" lon="10.7057986"><ele>106.83333333333333</ele><time>2026-04-18T09:14:34.033Z</time></trkpt><trkpt lat="45.348804" lon="10.7058757"><ele>107.0</ele><time>2026-04-18T09:14:39.033Z</time></trkpt><trkpt lat="45.3489444" lon="10.7059128"><ele>104.00000000000001</ele><time>2026-04-18T09:14:42.033Z</time></trkpt><trkpt lat="45.3490136" lon="10.7059502"><ele>101.0</ele><time>2026-04-18T09:14:43.033Z</time></trkpt><trkpt lat="45.3490703" lon="10.7059929"><ele>98.0</ele><time>2026-04-18T09:14:44.033Z</time></trkpt><trkpt lat="45.3491361" lon="10.7060353"><ele>95.0</ele><time>2026-04-18T09:14:45.033Z</time></trkpt><trkpt lat="45.3491976" lon="10.7060737"><ele>92.0</ele><time>2026-04-18T09:14:46.033Z</time></trkpt><trkpt lat="45.3492881" lon="10.706148"><ele>89.00000000000001</ele><time>2026-04-18T09:14:48.033Z</time></trkpt><trkpt lat="45.3493446" lon="10.7061941"><ele>86.0</ele><time>2026-04-18T09:14:50.032Z</time></trkpt><trkpt lat="45.349393" lon="10.7062649"><ele>86.0</ele><time>2026-04-18T09:14:54.033Z</time></trkpt><trkpt lat="45.3494755" lon="10.706246"><ele>86.0</ele><time>2026-04-18T09:14:59.033Z</time></trkpt><trkpt lat="45.3495101" lon="10.7061667"><ele>86.0</ele><time>2026-04-18T09:15:01.033Z</time></trkpt><trkpt lat="45.3495568" lon="10.7060633"><ele>86.0</ele><time>2026-04-18T09:15:04.033Z</time></trkpt><trkpt lat="45.3496267" lon="10.7059859"><ele>86.0</ele><time>2026-04-18T09:15:07.033Z</time></trkpt><trkpt lat="45.3497175" lon="10.7059652"><ele>86.0</ele><time>2026-04-18T09:15:11.033Z</time></trkpt><trkpt lat="45.3497746" lon="10.7058971"><ele>82.6</ele><time>2026-04-18T09:15:14.033Z</time></trkpt><trkpt lat="45.3497844" lon="10.7057582"><ele>79.19999999999999</ele><time>2026-04-18T09:15:17.033Z</time></trkpt><trkpt lat="45.3498295" lon="10.7056272"><ele>75.80000000000001</ele><time>2026-04-18T09:15:19.033Z</time></trkpt><trkpt lat="45.3498721" lon="10.7055382"><ele>72.4</ele><time>2026-04-18T09:15:20.033Z</time></trkpt><trkpt lat="45.3499631" lon="10.7054496"><ele>69.0</ele><time>2026-04-18T09:15:21.033Z</time></trkpt><trkpt lat="45.3500265" lon="10.7053584"><ele>69.0</ele><time>2026-04-18T09:15:22.033Z</time></trkpt><trkpt lat="45.3500827" lon="10.7052546"><ele>69.0</ele><time>2026-04-18T09:15:23.033Z</time></trkpt><trkpt lat="45.3501478" lon="10.7051493"><ele>69.0</ele><time>2026-04-18T09:15:24.033Z</time></trkpt><trkpt lat="45.3501967" lon="10.7050586"><ele>69.0</ele><time>2026-04-18T09:15:25.033Z</time></trkpt><trkpt lat="45.3502474" lon="10.7049384"><ele>69.0</ele><time>2026-04-18T09:15:26.033Z</time></trkpt><trkpt lat="45.3503079" lon="10.7048275"><ele>69.60000000000001</ele><time>2026-04-18T09:15:27.033Z</time></trkpt><trkpt lat="45.3503804" lon="10.7047151"><ele>70.2</ele><time>2026-04-18T09:15:28.033Z</time></trkpt><trkpt lat="45.3504514" lon="10.7046133"><ele>70.80000000000001</ele><time>2026-04-18T09:15:29.033Z</time></trkpt><trkpt lat="45.3505311" lon="10.7045153"><ele>71.4</ele><time>2026-04-18T09:15:30.032Z</time></trkpt><trkpt lat="45.3506131" lon="10.7044113"><ele>72.0</ele><time>2026-04-18T09:15:31.033Z</time></trkpt><trkpt lat="45.3506996" lon="10.7043208"><ele>72.0</ele><time>2026-04-18T09:15:32.033Z</time></trkpt><trkpt lat="45.3507505" lon="10.7042279"><ele>72.0</ele><time>2026-04-18T09:15:33.033Z</time></trkpt><trkpt lat="45.3507768" lon="10.7041269"><ele>72.0</ele><time>2026-04-18T09:15:34.033Z</time></trkpt><trkpt lat="45.35084" lon="10.7040372"><ele>72.0</ele><time>2026-04-18T09:15:35.033Z</time></trkpt><trkpt lat="45.3509411" lon="10.7039387"><ele>72.0</ele><time>2026-04-18T09:15:37.033Z</time></trkpt><trkpt lat="45.3510348" lon="10.7038714"><ele>72.0</ele><time>2026-04-18T09:15:38.033Z</time></trkpt><trkpt lat="45.3511137" lon="10.7038042"><ele>72.0</ele><time>2026-04-18T09:15:39.033Z</time></trkpt><trkpt lat="45.3511997" lon="10.7037323"><ele>72.0</ele><time>2026-04-18T09:15:40.032Z</time></trkpt><trkpt lat="45.3513085" lon="10.7037"><ele>72.0</ele><time>2026-04-18T09:15:41.033Z</time></trkpt><trkpt lat="45.3514022" lon="10.7036515"><ele>72.0</ele><time>2026-04-18T09:15:42.033Z</time></trkpt><trkpt lat="45.3514958" lon="10.7036078"><ele>73.0</ele><time>2026-04-18T09:15:43.033Z</time></trkpt><trkpt lat="45.3515814" lon="10.7035707"><ele>74.0</ele><time>2026-04-18T09:15:44.033Z</time></trkpt><trkpt lat="45.3516693" lon="10.7035456"><ele>75.0</ele><time>2026-04-18T09:15:45.033Z</time></trkpt><trkpt lat="45.3517552" lon="10.7035145"><ele>76.0</ele><time>2026-04-18T09:15:46.033Z</time></trkpt><trkpt lat="45.3518435" lon="10.7034942"><ele>77.0</ele><time>2026-04-18T09:15:47.033Z</time></trkpt><trkpt lat="45.3519281" lon="10.7034817"><ele>78.0</ele><time>2026-04-18T09:15:48.033Z</time></trkpt><trkpt lat="45.3520022" lon="10.7034815"><ele>78.0</ele><time>2026-04-18T09:15:49.033Z</time></trkpt><trkpt lat="45.3520608" lon="10.7034484"><ele>78.0</ele><time>2026-04-18T09:15:50.033Z</time></trkpt><trkpt lat="45.3521192" lon="10.7034001"><ele>78.0</ele><time>2026-04-18T09:15:51.033Z</time></trkpt><trkpt lat="45.352223" lon="10.7033234"><ele>78.0</ele><time>2026-04-18T09:15:53.033Z</time></trkpt><trkpt lat="45.3523543" lon="10.703337"><ele>78.0</ele><time>2026-04-18T09:15:55.033Z</time></trkpt><trkpt lat="45.3524201" lon="10.7033458"><ele>78.0</ele><time>2026-04-18T09:15:56.033Z</time></trkpt><trkpt lat="45.3524884" lon="10.7033463"><ele>77.4</ele><time>2026-04-18T09:15:57.033Z</time></trkpt><trkpt lat="45.3525815" lon="10.7033736"><ele>76.8</ele><time>2026-04-18T09:15:58.033Z</time></trkpt><trkpt lat="45.352673" lon="10.703375"><ele>76.2</ele><time>2026-04-18T09:15:59.032Z</time></trkpt><trkpt lat="45.3527562" lon="10.7033954"><ele>75.6</ele><time>2026-04-18T09:16:00.033Z</time></trkpt><trkpt lat="45.3528575" lon="10.7033878"><ele>75.0</ele><time>2026-04-18T09:16:01.033Z</time></trkpt><trkpt lat="45.3529436" lon="10.7033386"><ele>75.83333333333333</ele><time>2026-04-18T09:16:02.033Z</time></trkpt><trkpt lat="45.3530485" lon="10.7033278"><ele>76.66666666666667</ele><time>2026-04-18T09:16:03.033Z</time></trkpt><trkpt lat="45.3531099" lon="10.7034118"><ele>77.5</ele><time>2026-04-18T09:16:04.033Z</time></trkpt><trkpt lat="45.353189" lon="10.7034699"><ele>78.33333333333334</ele><time>2026-04-18T09:16:06.033Z</time></trkpt><trkpt lat="45.353245" lon="10.7035369"><ele>79.16666666666667</ele><time>2026-04-18T09:16:14.033Z</time></trkpt><trkpt lat="45.3533233" lon="10.7035768"><ele>80.0</ele><time>2026-04-18T09:16:16.033Z</time></trkpt><trkpt lat="45.3534249" lon="10.7036069"><ele>79.57142857142857</ele><time>2026-04-18T09:16:18.033Z</time></trkpt><trkpt lat="45.353489" lon="10.7036183"><ele>79.14285714285714</ele><time>2026-04-18T09:16:19.033Z</time></trkpt><trkpt lat="45.3535619" lon="10.7036348"><ele>78.71428571428572</ele><time>2026-04-18T09:16:20.033Z</time></trkpt><trkpt lat="45.3536357" lon="10.703654"><ele>78.28571428571428</ele><time>2026-04-18T09:16:21.033Z</time></trkpt><trkpt lat="45.3537138" lon="10.7036754"><ele>77.85714285714286</ele><time>2026-04-18T09:16:22.033Z</time></trkpt><trkpt lat="45.3537809" lon="10.7037115"><ele>77.42857142857143</ele><time>2026-04-18T09:16:23.033Z</time></trkpt><trkpt lat="45.3538452" lon="10.7037349"><ele>77.0</ele><time>2026-04-18T09:16:24.033Z</time></trkpt><trkpt lat="45.3539069" lon="10.703764"><ele>77.0</ele><time>2026-04-18T09:16:25.033Z</time></trkpt><trkpt lat="45.3539747" lon="10.7038067"><ele>77.0</ele><time>2026-04-18T09:16:26.033Z</time></trkpt><trkpt lat="45.354044" lon="10.7038325"><ele>77.0</ele><time>2026-04-18T09:16:27.033Z</time></trkpt><trkpt lat="45.3541541" lon="10.7039024"><ele>77.0</ele><time>2026-04-18T09:16:29.033Z</time></trkpt><trkpt lat="45.3542277" lon="10.7040077"><ele>77.0</ele><time>2026-04-18T09:16:31.033Z</time></trkpt><trkpt lat="45.3542962" lon="10.704117"><ele>77.0</ele><time>2026-04-18T09:16:33.033Z</time></trkpt><trkpt lat="45.3543719" lon="10.7042515"><ele>77.0</ele><time>2026-04-18T09:16:35.033Z</time></trkpt><trkpt lat="45.3544526" lon="10.704362"><ele>77.0</ele><time>2026-04-18T09:16:37.033Z</time></trkpt><trkpt lat="45.3544923" lon="10.7044335"><ele>77.0</ele><time>2026-04-18T09:16:38.033Z</time></trkpt><trkpt lat="45.3545534" lon="10.7045144"><ele>77.0</ele><time>2026-04-18T09:16:40.033Z</time></trkpt><trkpt lat="45.3545936" lon="10.7045876"><ele>77.0</ele><time>2026-04-18T09:16:42.033Z</time></trkpt><trkpt lat="45.3546397" lon="10.7046655"><ele>77.28571428571429</ele><time>2026-04-18T09:16:44.033Z</time></trkpt><trkpt lat="45.3546981" lon="10.7047427"><ele>77.57142857142857</ele><time>2026-04-18T09:16:47.033Z</time></trkpt><trkpt lat="45.3547428" lon="10.7048085"><ele>77.85714285714286</ele><time>2026-04-18T09:16:49.033Z</time></trkpt><trkpt lat="45.3547864" lon="10.7049086"><ele>78.14285714285714</ele><time>2026-04-18T09:16:51.033Z</time></trkpt><trkpt lat="45.3548171" lon="10.7049919"><ele>78.42857142857143</ele><time>2026-04-18T09:16:52.033Z</time></trkpt><trkpt lat="45.3548702" lon="10.7050999"><ele>78.71428571428572</ele><time>2026-04-18T09:16:54.033Z</time></trkpt><trkpt lat="45.354917" lon="10.7051618"><ele>79.0</ele><time>2026-04-18T09:16:56.033Z</time></trkpt><trkpt lat="45.354955" lon="10.7052563"><ele>77.66666666666666</ele><time>2026-04-18T09:16:58.033Z</time></trkpt><trkpt lat="45.3550289" lon="10.7053244"><ele>76.33333333333333</ele><time>2026-04-18T09:17:01.033Z</time></trkpt><trkpt lat="45.3551061" lon="10.7054136"><ele>75.0</ele><time>2026-04-18T09:17:04.033Z</time></trkpt><trkpt lat="45.355149" lon="10.7054982"><ele>73.66666666666667</ele><time>2026-04-18T09:17:06.033Z</time></trkpt><trkpt lat="45.3551813" lon="10.7056103"><ele>72.33333333333334</ele><time>2026-04-18T09:17:08.033Z</time></trkpt><trkpt lat="45.355216" lon="10.7057198"><ele>71.0</ele><time>2026-04-18T09:17:10.033Z</time></trkpt><trkpt lat="45.3552433" lon="10.7058104"><ele>71.0</ele><time>2026-04-18T09:17:11.033Z</time></trkpt><trkpt lat="45.3552659" lon="10.7059244"><ele>71.0</ele><time>2026-04-18T09:17:13.033Z</time></trkpt><trkpt lat="45.3552688" lon="10.7060172"><ele>71.0</ele><time>2026-04-18T09:17:17.033Z</time></trkpt><trkpt lat="45.3552646" lon="10.7059174"><ele>71.0</ele><time>2026-04-18T09:19:01.033Z</time></trkpt><trkpt lat="45.3552193" lon="10.7057707"><ele>71.0</ele><time>2026-04-18T09:19:20.033Z</time></trkpt><trkpt lat="45.3551902" lon="10.7056479"><ele>71.0</ele><time>2026-04-18T09:19:22.033Z</time></trkpt><trkpt lat="45.3551635" lon="10.7055548"><ele>71.0</ele><time>2026-04-18T09:19:24.032Z</time></trkpt><trkpt lat="45.3551124" lon="10.7054612"><ele>71.0</ele><time>2026-04-18T09:19:26.033Z</time></trkpt><trkpt lat="45.3550718" lon="10.7053904"><ele>71.0</ele><time>2026-04-18T09:19:28.032Z</time></trkpt><trkpt lat="45.3550242" lon="10.7053072"><ele>71.0</ele><time>2026-04-18T09:19:31.032Z</time></trkpt><trkpt lat="45.3549572" lon="10.7053469"><ele>71.0</ele><time>2026-04-18T09:19:36.032Z</time></trkpt><trkpt lat="45.3549817" lon="10.7054348"><ele>71.0</ele><time>2026-04-18T09:19:38.033Z</time></trkpt><trkpt lat="45.3550414" lon="10.7055472"><ele>71.0</ele><time>2026-04-18T09:19:40.033Z</time></trkpt><trkpt lat="45.3551008" lon="10.7056887"><ele>71.0</ele><time>2026-04-18T09:19:42.033Z</time></trkpt><trkpt lat="45.355143" lon="10.7058528"><ele>71.0</ele><time>2026-04-18T09:19:44.033Z</time></trkpt><trkpt lat="45.3551682" lon="10.7060193"><ele>71.0</ele><time>2026-04-18T09:19:46.033Z</time></trkpt><trkpt lat="45.3551909" lon="10.7061308"><ele>71.0</ele><time>2026-04-18T09:19:48.033Z</time></trkpt><trkpt lat="45.3552016" lon="10.7062447"><ele>70.8</ele><time>2026-04-18T09:19:50.033Z</time></trkpt><trkpt lat="45.3552101" lon="10.7063503"><ele>70.6</ele><time>2026-04-18T09:19:52.033Z</time></trkpt><trkpt lat="45.355209" lon="10.7064761"><ele>70.4</ele><time>2026-04-18T09:19:54.033Z</time></trkpt><trkpt lat="45.3551972" lon="10.7066217"><ele>70.2</ele><time>2026-04-18T09:19:56.033Z</time></trkpt><trkpt lat="45.3551772" lon="10.7067572"><ele>70.0</ele><time>2026-04-18T09:19:58.033Z</time></trkpt><trkpt lat="45.3551428" lon="10.7068919"><ele>70.0</ele><time>2026-04-18T09:20:00.033Z</time></trkpt><trkpt lat="45.35512" lon="10.7069979"><ele>70.0</ele><time>2026-04-18T09:20:02.033Z</time></trkpt><trkpt lat="45.3551044" lon="10.7071033"><ele>70.0</ele><time>2026-04-18T09:20:05.032Z</time></trkpt><trkpt lat="45.3550757" lon="10.707192"><ele>70.0</ele><time>2026-04-18T09:20:09.033Z</time></trkpt><trkpt lat="45.3550025" lon="10.7071448"><ele>70.0</ele><time>2026-04-18T09:20:13.032Z</time></trkpt><trkpt lat="45.3550101" lon="10.7070253"><ele>70.0</ele><time>2026-04-18T09:20:16.033Z</time></trkpt><trkpt lat="45.3550448" lon="10.7069085"><ele>70.0</ele><time>2026-04-18T09:20:19.033Z</time></trkpt><trkpt lat="45.3551006" lon="10.70684"><ele>70.0</ele><time>2026-04-18T09:20:24.033Z</time></trkpt><trkpt lat="45.355167" lon="10.7068888"><ele>70.0</ele><time>2026-04-18T09:20:35.033Z</time></trkpt><trkpt lat="45.3552032" lon="10.7069683"><ele>70.0</ele><time>2026-04-18T09:20:48.033Z</time></trkpt><trkpt lat="45.355203" lon="10.7070788"><ele>70.0</ele><time>2026-04-18T09:20:55.033Z</time></trkpt><trkpt lat="45.355185" lon="10.7071774"><ele>70.0</ele><time>2026-04-18T09:21:44.033Z</time></trkpt><trkpt lat="45.3552048" lon="10.707266"><ele>70.0</ele><time>2026-04-18T09:22:03.033Z</time></trkpt><trkpt lat="45.3552594" lon="10.7073143"><ele>70.0</ele><time>2026-04-18T09:22:09.032Z</time></trkpt><trkpt lat="45.3553257" lon="10.7073648"><ele>70.0</ele><time>2026-04-18T09:22:14.033Z</time></trkpt><trkpt lat="45.3553772" lon="10.707417"><ele>70.0</ele><time>2026-04-18T09:22:17.033Z</time></trkpt><trkpt lat="45.3554123" lon="10.7074963"><ele>70.0</ele><time>2026-04-18T09:24:14.033Z</time></trkpt><trkpt lat="45.3554511" lon="10.7075892"><ele>70.0</ele><time>2026-04-18T09:24:48.033Z</time></trkpt><trkpt lat="45.3554879" lon="10.7076914"><ele>70.0</ele><time>2026-04-18T09:24:52.033Z</time></trkpt><trkpt lat="45.3555079" lon="10.7078286"><ele>73.0</ele><time>2026-04-18T09:25:44.033Z</time></trkpt><trkpt lat="45.3555431" lon="10.7079274"><ele>76.0</ele><time>2026-04-18T09:25:46.033Z</time></trkpt><trkpt lat="45.3556206" lon="10.7079637"><ele>79.0</ele><time>2026-04-18T09:25:49.033Z</time></trkpt><trkpt lat="45.355703" lon="10.7079909"><ele>82.0</ele><time>2026-04-18T09:25:52.033Z</time></trkpt><trkpt lat="45.355799" lon="10.7080114"><ele>85.0</ele><time>2026-04-18T09:25:55.033Z</time></trkpt><trkpt lat="45.355886" lon="10.7080497"><ele>88.0</ele><time>2026-04-18T09:25:57.033Z</time></trkpt><trkpt lat="45.3560005" lon="10.708108"><ele>88.0</ele><time>2026-04-18T09:25:59.033Z</time></trkpt><trkpt lat="45.356107" lon="10.7081662"><ele>88.0</ele><time>2026-04-18T09:26:01.033Z</time></trkpt><trkpt lat="45.3562193" lon="10.7082223"><ele>88.0</ele><time>2026-04-18T09:26:03.032Z</time></trkpt><trkpt lat="45.3563259" lon="10.7082682"><ele>88.0</ele><time>2026-04-18T09:26:05.032Z</time></trkpt><trkpt lat="45.3564455" lon="10.7082962"><ele>87.2</ele><time>2026-04-18T09:26:07.033Z</time></trkpt><trkpt lat="45.3565556" lon="10.7082858"><ele>86.4</ele><time>2026-04-18T09:26:09.033Z</time></trkpt><trkpt lat="45.3566709" lon="10.7082041"><ele>85.60000000000001</ele><time>2026-04-18T09:26:11.033Z</time></trkpt><trkpt lat="45.3567348" lon="10.7081431"><ele>84.80000000000001</ele><time>2026-04-18T09:26:12.033Z</time></trkpt><trkpt lat="45.3568049" lon="10.7080618"><ele>84.0</ele><time>2026-04-18T09:26:13.033Z</time></trkpt><trkpt lat="45.3568727" lon="10.7079487"><ele>84.0</ele><time>2026-04-18T09:26:14.033Z</time></trkpt><trkpt lat="45.356954" lon="10.7078793"><ele>84.0</ele><time>2026-04-18T09:26:15.033Z</time></trkpt><trkpt lat="45.3570199" lon="10.7077842"><ele>84.0</ele><time>2026-04-18T09:26:16.033Z</time></trkpt><trkpt lat="45.3570838" lon="10.7076946"><ele>84.0</ele><time>2026-04-18T09:26:17.033Z</time></trkpt><trkpt lat="45.3571525" lon="10.7075954"><ele>84.0</ele><time>2026-04-18T09:26:18.033Z</time></trkpt><trkpt lat="45.3572271" lon="10.7075017"><ele>84.0</ele><time>2026-04-18T09:26:19.033Z</time></trkpt><trkpt lat="45.3573026" lon="10.7074175"><ele>84.0</ele><time>2026-04-18T09:26:20.033Z</time></trkpt><trkpt lat="45.3573745" lon="10.7073399"><ele>84.0</ele><time>2026-04-18T09:26:21.033Z</time></trkpt><trkpt lat="45.3574491" lon="10.707272"><ele>84.0</ele><time>2026-04-18T09:26:22.033Z</time></trkpt><trkpt lat="45.3575314" lon="10.7072098"><ele>84.0</ele><time>2026-04-18T09:26:23.033Z</time></trkpt><trkpt lat="45.3576035" lon="10.7071462"><ele>84.0</ele><time>2026-04-18T09:26:24.033Z</time></trkpt><trkpt lat="45.3576851" lon="10.7070764"><ele>84.0</ele><time>2026-04-18T09:26:25.032Z</time></trkpt><trkpt lat="45.3577669" lon="10.7070208"><ele>84.0</ele><time>2026-04-18T09:26:26.033Z</time></trkpt><trkpt lat="45.3578436" lon="10.7069713"><ele>84.0</ele><time>2026-04-18T09:26:27.033Z</time></trkpt><trkpt lat="45.3579357" lon="10.7069181"><ele>84.0</ele><time>2026-04-18T09:26:28.032Z</time></trkpt><trkpt lat="45.3580287" lon="10.706867"><ele>85.6</ele><time>2026-04-18T09:26:29.033Z</time></trkpt><trkpt lat="45.3581099" lon="10.7068252"><ele>87.2</ele><time>2026-04-18T09:26:30.033Z</time></trkpt><trkpt lat="45.3581992" lon="10.7067653"><ele>88.8</ele><time>2026-04-18T09:26:31.033Z</time></trkpt><trkpt lat="45.3582748" lon="10.706722"><ele>90.39999999999999</ele><time>2026-04-18T09:26:32.033Z</time></trkpt><trkpt lat="45.3583635" lon="10.7066947"><ele>92.0</ele><time>2026-04-18T09:26:33.033Z</time></trkpt><trkpt lat="45.358457" lon="10.7066756"><ele>92.0</ele><time>2026-04-18T09:26:34.033Z</time></trkpt><trkpt lat="45.3585484" lon="10.7066619"><ele>92.0</ele><time>2026-04-18T09:26:35.032Z</time></trkpt><trkpt lat="45.3586456" lon="10.7066438"><ele>92.0</ele><time>2026-04-18T09:26:36.033Z</time></trkpt><trkpt lat="45.3587304" lon="10.7066209"><ele>92.0</ele><time>2026-04-18T09:26:37.033Z</time></trkpt><trkpt lat="45.3588289" lon="10.7065887"><ele>92.0</ele><time>2026-04-18T09:26:38.033Z</time></trkpt><trkpt lat="45.3589131" lon="10.7065476"><ele>91.39999999999999</ele><time>2026-04-18T09:26:39.033Z</time></trkpt><trkpt lat="45.3589944" lon="10.7065133"><ele>90.8</ele><time>2026-04-18T09:26:40.033Z</time></trkpt><trkpt lat="45.3591329" lon="10.7064948"><ele>90.2</ele><time>2026-04-18T09:26:42.033Z</time></trkpt><trkpt lat="45.3592006" lon="10.7065201"><ele>89.6</ele><time>2026-04-18T09:26:43.033Z</time></trkpt><trkpt lat="45.3592763" lon="10.7065511"><ele>89.0</ele><time>2026-04-18T09:26:44.032Z</time></trkpt><trkpt lat="45.3593561" lon="10.7065758"><ele>89.0</ele><time>2026-04-18T09:26:45.033Z</time></trkpt><trkpt lat="45.35943" lon="10.7065902"><ele>89.0</ele><time>2026-04-18T09:26:46.033Z</time></trkpt><trkpt lat="45.3594932" lon="10.706604"><ele>89.0</ele><time>2026-04-18T09:26:47.033Z</time></trkpt><trkpt lat="45.3596062" lon="10.7066145"><ele>89.0</ele><time>2026-04-18T09:26:49.033Z</time></trkpt><trkpt lat="45.3597587" lon="10.7066247"><ele>89.0</ele><time>2026-04-18T09:26:59.033Z</time></trkpt><trkpt lat="45.3598485" lon="10.7066299"><ele>88.6</ele><time>2026-04-18T09:27:00.033Z</time></trkpt><trkpt lat="45.3599413" lon="10.706622"><ele>88.2</ele><time>2026-04-18T09:27:01.033Z</time></trkpt><trkpt lat="45.3600386" lon="10.7066003"><ele>87.8</ele><time>2026-04-18T09:27:02.033Z</time></trkpt><trkpt lat="45.3601291" lon="10.7065523"><ele>87.39999999999999</ele><time>2026-04-18T09:27:03.032Z</time></trkpt><trkpt lat="45.3602255" lon="10.7064822"><ele>87.0</ele><time>2026-04-18T09:27:04.033Z</time></trkpt><trkpt lat="45.3603123" lon="10.7064006"><ele>87.0</ele><time>2026-04-18T09:27:05.033Z</time></trkpt><trkpt lat="45.3604148" lon="10.7063238"><ele>87.0</ele><time>2026-04-18T09:27:06.033Z</time></trkpt><trkpt lat="45.3605145" lon="10.7062588"><ele>87.0</ele><time>2026-04-18T09:27:07.033Z</time></trkpt><trkpt lat="45.3606357" lon="10.7061849"><ele>87.0</ele><time>2026-04-18T09:27:08.033Z</time></trkpt><trkpt lat="45.3607581" lon="10.7061372"><ele>87.8</ele><time>2026-04-18T09:27:09.033Z</time></trkpt><trkpt lat="45.3608763" lon="10.7061121"><ele>88.6</ele><time>2026-04-18T09:27:10.033Z</time></trkpt><trkpt lat="45.3609868" lon="10.7061004"><ele>89.39999999999999</ele><time>2026-04-18T09:27:11.033Z</time></trkpt><trkpt lat="45.3610797" lon="10.70609"><ele>90.19999999999999</ele><time>2026-04-18T09:27:12.032Z</time></trkpt><trkpt lat="45.361166" lon="10.7060808"><ele>91.0</ele><time>2026-04-18T09:27:13.033Z</time></trkpt><trkpt lat="45.36123" lon="10.7060668"><ele>91.83333333333333</ele><time>2026-04-18T09:27:14.033Z</time></trkpt><trkpt lat="45.3612956" lon="10.7060449"><ele>92.66666666666666</ele><time>2026-04-18T09:27:16.033Z</time></trkpt><trkpt lat="45.3612364" lon="10.7060007"><ele>93.5</ele><time>2026-04-18T09:27:19.033Z</time></trkpt><trkpt lat="45.3611346" lon="10.7059653"><ele>94.33333333333333</ele><time>2026-04-18T09:27:21.033Z</time></trkpt><trkpt lat="45.3610622" lon="10.7059236"><ele>95.16666666666667</ele><time>2026-04-18T09:27:22.032Z</time></trkpt><trkpt lat="45.3609597" lon="10.7058625"><ele>96.0</ele><time>2026-04-18T09:27:23.033Z</time></trkpt><trkpt lat="45.3608569" lon="10.7058044"><ele>96.0</ele><time>2026-04-18T09:27:24.033Z</time></trkpt><trkpt lat="45.3607548" lon="10.7057584"><ele>96.0</ele><time>2026-04-18T09:27:25.033Z</time></trkpt><trkpt lat="45.3606219" lon="10.7056102"><ele>96.0</ele><time>2026-04-18T09:27:26.033Z</time></trkpt><trkpt lat="45.3604186" lon="10.7054825"><ele>96.33333333333334</ele><time>2026-04-18T09:27:27.033Z</time></trkpt><trkpt lat="45.360271" lon="10.7053452"><ele>96.66666666666667</ele><time>2026-04-18T09:27:28.033Z</time></trkpt><trkpt lat="45.3601277" lon="10.705229"><ele>97.0</ele><time>2026-04-18T09:27:29.033Z</time></trkpt><trkpt lat="45.3600022" lon="10.7050939"><ele>97.0</ele><time>2026-04-18T09:27:30.033Z</time></trkpt><trkpt lat="45.3598553" lon="10.7049412"><ele>97.0</ele><time>2026-04-18T09:27:31.033Z</time></trkpt><trkpt lat="45.3597197" lon="10.704785"><ele>97.0</ele><time>2026-04-18T09:27:32.033Z</time></trkpt><trkpt lat="45.3595877" lon="10.7046422"><ele>96.5</ele><time>2026-04-18T09:27:33.033Z</time></trkpt><trkpt lat="45.3594838" lon="10.7045302"><ele>96.0</ele><time>2026-04-18T09:27:34.033Z</time></trkpt><trkpt lat="45.3593874" lon="10.7044285"><ele>95.5</ele><time>2026-04-18T09:27:35.033Z</time></trkpt><trkpt lat="45.359296" lon="10.7043532"><ele>95.0</ele><time>2026-04-18T09:27:36.033Z</time></trkpt><trkpt lat="45.3591936" lon="10.7042837"><ele>95.0</ele><time>2026-04-18T09:27:37.033Z</time></trkpt><trkpt lat="45.3590855" lon="10.7042434"><ele>95.0</ele><time>2026-04-18T09:27:38.033Z</time></trkpt><trkpt lat="45.3589741" lon="10.7042113"><ele>95.0</ele><time>2026-04-18T09:27:39.033Z</time></trkpt><trkpt lat="45.358877" lon="10.7041857"><ele>95.0</ele><time>2026-04-18T09:27:40.033Z</time></trkpt><trkpt lat="45.3587966" lon="10.7041566"><ele>95.0</ele><time>2026-04-18T09:27:41.033Z</time></trkpt><trkpt lat="45.3587365" lon="10.7040982"><ele>94.75</ele><time>2026-04-18T09:27:42.032Z</time></trkpt><trkpt lat="45.3586921" lon="10.7040041"><ele>94.5</ele><time>2026-04-18T09:27:43.033Z</time></trkpt><trkpt lat="45.3586467" lon="10.7038578"><ele>94.25</ele><time>2026-04-18T09:27:44.033Z</time></trkpt><trkpt lat="45.358604" lon="10.7036868"><ele>94.0</ele><time>2026-04-18T09:27:45.033Z</time></trkpt><trkpt lat="45.3585592" lon="10.7034881"><ele>94.0</ele><time>2026-04-18T09:27:46.033Z</time></trkpt><trkpt lat="45.3585148" lon="10.7032912"><ele>94.0</ele><time>2026-04-18T09:27:47.033Z</time></trkpt><trkpt lat="45.3584781" lon="10.7031046"><ele>94.0</ele><time>2026-04-18T09:27:48.033Z</time></trkpt><trkpt lat="45.3584389" lon="10.7029264"><ele>94.0</ele><time>2026-04-18T09:27:49.033Z</time></trkpt><trkpt lat="45.3584016" lon="10.7027566"><ele>94.6</ele><time>2026-04-18T09:27:50.033Z</time></trkpt><trkpt lat="45.3583602" lon="10.7026062"><ele>95.2</ele><time>2026-04-18T09:27:51.033Z</time></trkpt><trkpt lat="45.3583105" lon="10.7024615"><ele>95.8</ele><time>2026-04-18T09:27:52.033Z</time></trkpt><trkpt lat="45.3582568" lon="10.7023295"><ele>96.39999999999999</ele><time>2026-04-18T09:27:53.033Z</time></trkpt><trkpt lat="45.3582194" lon="10.7022019"><ele>97.0</ele><time>2026-04-18T09:27:54.033Z</time></trkpt><trkpt lat="45.3582116" lon="10.7020841"><ele>97.0</ele><time>2026-04-18T09:27:55.033Z</time></trkpt><trkpt lat="45.3582319" lon="10.7019864"><ele>97.0</ele><time>2026-04-18T09:27:56.033Z</time></trkpt><trkpt lat="45.358257" lon="10.7018735"><ele>97.0</ele><time>2026-04-18T09:27:57.033Z</time></trkpt><trkpt lat="45.3582685" lon="10.7017732"><ele>97.0</ele><time>2026-04-18T09:27:58.033Z</time></trkpt><trkpt lat="45.3582641" lon="10.7016691"><ele>97.0</ele><time>2026-04-18T09:27:59.033Z</time></trkpt><trkpt lat="45.3582317" lon="10.7015781"><ele>97.0</ele><time>2026-04-18T09:28:00.033Z</time></trkpt><trkpt lat="45.3581875" lon="10.7014927"><ele>97.0</ele><time>2026-04-18T09:28:01.033Z</time></trkpt><trkpt lat="45.3581331" lon="10.7014048"><ele>97.00000000000001</ele><time>2026-04-18T09:28:02.033Z</time></trkpt><trkpt lat="45.3580761" lon="10.7013188"><ele>97.0</ele><time>2026-04-18T09:28:03.032Z</time></trkpt><trkpt lat="45.3580286" lon="10.7012415"><ele>97.0</ele><time>2026-04-18T09:28:04.033Z</time></trkpt><trkpt lat="45.3579744" lon="10.7011295"><ele>97.0</ele><time>2026-04-18T09:28:06.033Z</time></trkpt><trkpt lat="45.3579958" lon="10.7010051"><ele>97.00000000000001</ele><time>2026-04-18T09:28:08.033Z</time></trkpt><trkpt lat="45.3580448" lon="10.7009202"><ele>97.0</ele><time>2026-04-18T09:28:09.033Z</time></trkpt><trkpt lat="45.3580915" lon="10.7008325"><ele>96.8</ele><time>2026-04-18T09:28:10.032Z</time></trkpt><trkpt lat="45.3581508" lon="10.7007248"><ele>96.6</ele><time>2026-04-18T09:28:11.033Z</time></trkpt><trkpt lat="45.3582077" lon="10.7006244"><ele>96.39999999999999</ele><time>2026-04-18T09:28:12.033Z</time></trkpt><trkpt lat="45.3582606" lon="10.7005161"><ele>96.19999999999999</ele><time>2026-04-18T09:28:13.033Z</time></trkpt><trkpt lat="45.3583153" lon="10.7004078"><ele>96.0</ele><time>2026-04-18T09:28:14.033Z</time></trkpt><trkpt lat="45.35837" lon="10.7002981"><ele>95.6</ele><time>2026-04-18T09:28:15.033Z</time></trkpt><trkpt lat="45.3584301" lon="10.7001768"><ele>95.19999999999999</ele><time>2026-04-18T09:28:16.033Z</time></trkpt><trkpt lat="45.358485" lon="10.7000581"><ele>94.80000000000001</ele><time>2026-04-18T09:28:17.033Z</time></trkpt><trkpt lat="45.3585487" lon="10.6999648"><ele>94.4</ele><time>2026-04-18T09:28:18.033Z</time></trkpt><trkpt lat="45.358604" lon="10.6998665"><ele>94.0</ele><time>2026-04-18T09:28:19.032Z</time></trkpt><trkpt lat="45.3586606" lon="10.6997991"><ele>94.0</ele><time>2026-04-18T09:28:20.033Z</time></trkpt><trkpt lat="45.3587123" lon="10.699725"><ele>94.0</ele><time>2026-04-18T09:28:21.033Z</time></trkpt><trkpt lat="45.3587423" lon="10.6996362"><ele>94.0</ele><time>2026-04-18T09:28:22.033Z</time></trkpt><trkpt lat="45.3587684" lon="10.6995476"><ele>94.0</ele><time>2026-04-18T09:28:23.033Z</time></trkpt><trkpt lat="45.3587851" lon="10.699446"><ele>94.0</ele><time>2026-04-18T09:28:24.033Z</time></trkpt><trkpt lat="45.3588185" lon="10.6993364"><ele>94.0</ele><time>2026-04-18T09:28:25.032Z</time></trkpt><trkpt lat="45.3588636" lon="10.6992246"><ele>93.83333333333333</ele><time>2026-04-18T09:28:26.032Z</time></trkpt><trkpt lat="45.3589149" lon="10.6991141"><ele>93.66666666666666</ele><time>2026-04-18T09:28:28.033Z</time></trkpt><trkpt lat="45.3589472" lon="10.6990327"><ele>93.5</ele><time>2026-04-18T09:28:31.033Z</time></trkpt><trkpt lat="45.3588731" lon="10.6989299"><ele>93.33333333333333</ele><time>2026-04-18T09:28:34.033Z</time></trkpt><trkpt lat="45.358822" lon="10.6988669"><ele>93.16666666666667</ele><time>2026-04-18T09:28:35.033Z</time></trkpt><trkpt lat="45.3587636" lon="10.6988006"><ele>93.0</ele><time>2026-04-18T09:28:36.033Z</time></trkpt><trkpt lat="45.3586984" lon="10.6987204"><ele>93.0</ele><time>2026-04-18T09:28:37.033Z</time></trkpt><trkpt lat="45.3586269" lon="10.6986575"><ele>93.0</ele><time>2026-04-18T09:28:38.033Z</time></trkpt><trkpt lat="45.3585438" lon="10.698584"><ele>93.0</ele><time>2026-04-18T09:28:39.033Z</time></trkpt><trkpt lat="45.3584607" lon="10.6985146"><ele>93.0</ele><time>2026-04-18T09:28:40.033Z</time></trkpt><trkpt lat="45.3583752" lon="10.698438"><ele>93.0</ele><time>2026-04-18T09:28:41.033Z</time></trkpt><trkpt lat="45.3582905" lon="10.6983555"><ele>93.0</ele><time>2026-04-18T09:28:42.033Z</time></trkpt><trkpt lat="45.3582021" lon="10.6982593"><ele>93.0</ele><time>2026-04-18T09:28:43.033Z</time></trkpt><trkpt lat="45.3581028" lon="10.6981616"><ele>93.0</ele><time>2026-04-18T09:28:44.033Z</time></trkpt><trkpt lat="45.3579938" lon="10.6980647"><ele>93.0</ele><time>2026-04-18T09:28:45.033Z</time></trkpt><trkpt lat="45.3578741" lon="10.6979791"><ele>92.5</ele><time>2026-04-18T09:28:46.033Z</time></trkpt><trkpt lat="45.3577445" lon="10.6979174"><ele>92.0</ele><time>2026-04-18T09:28:47.033Z</time></trkpt><trkpt lat="45.3576166" lon="10.6978537"><ele>91.5</ele><time>2026-04-18T09:28:48.033Z</time></trkpt><trkpt lat="45.357498" lon="10.6977853"><ele>91.0</ele><time>2026-04-18T09:28:49.033Z</time></trkpt><trkpt lat="45.3573919" lon="10.6977323"><ele>91.0</ele><time>2026-04-18T09:28:50.033Z</time></trkpt><trkpt lat="45.3572838" lon="10.6976687"><ele>91.0</ele><time>2026-04-18T09:28:51.033Z</time></trkpt><trkpt lat="45.357174" lon="10.6975926"><ele>91.0</ele><time>2026-04-18T09:28:52.033Z</time></trkpt><trkpt lat="45.3570626" lon="10.697524"><ele>91.0</ele><time>2026-04-18T09:28:53.033Z</time></trkpt><trkpt lat="45.3569485" lon="10.6974509"><ele>90.5</ele><time>2026-04-18T09:28:54.033Z</time></trkpt><trkpt lat="45.3568425" lon="10.6973756"><ele>90.0</ele><time>2026-04-18T09:28:55.033Z</time></trkpt><trkpt lat="45.3567332" lon="10.6972919"><ele>89.5</ele><time>2026-04-18T09:28:56.033Z</time></trkpt><trkpt lat="45.3566176" lon="10.6972169"><ele>89.0</ele><time>2026-04-18T09:28:57.033Z</time></trkpt><trkpt lat="45.3565025" lon="10.6971391"><ele>89.0</ele><time>2026-04-18T09:28:58.033Z</time></trkpt><trkpt lat="45.3563886" lon="10.6970494"><ele>89.0</ele><time>2026-04-18T09:28:59.033Z</time></trkpt><trkpt lat="45.3562769" lon="10.6969612"><ele>89.0</ele><time>2026-04-18T09:29:00.033Z</time></trkpt><trkpt lat="45.3561662" lon="10.6968855"><ele>89.0</ele><time>2026-04-18T09:29:01.033Z</time></trkpt><trkpt lat="45.356067" lon="10.6967982"><ele>89.2</ele><time>2026-04-18T09:29:02.033Z</time></trkpt><trkpt lat="45.3559699" lon="10.6967264"><ele>89.4</ele><time>2026-04-18T09:29:03.033Z</time></trkpt><trkpt lat="45.3558836" lon="10.6966723"><ele>89.6</ele><time>2026-04-18T09:29:04.033Z</time></trkpt><trkpt lat="45.3558035" lon="10.6965962"><ele>89.8</ele><time>2026-04-18T09:29:05.032Z</time></trkpt><trkpt lat="45.3557304" lon="10.6965327"><ele>90.0</ele><time>2026-04-18T09:29:06.033Z</time></trkpt><trkpt lat="45.3556577" lon="10.6964756"><ele>90.0</ele><time>2026-04-18T09:29:07.033Z</time></trkpt><trkpt lat="45.3555963" lon="10.6964153"><ele>90.0</ele><time>2026-04-18T09:29:08.033Z</time></trkpt><trkpt lat="45.3555384" lon="10.6963404"><ele>90.0</ele><time>2026-04-18T09:29:09.033Z</time></trkpt><trkpt lat="45.3554963" lon="10.6962382"><ele>90.0</ele><time>2026-04-18T09:29:11.033Z</time></trkpt><trkpt lat="45.3555413" lon="10.6961596"><ele>90.0</ele><time>2026-04-18T09:29:13.033Z</time></trkpt><trkpt lat="45.3556155" lon="10.6960923"><ele>90.0</ele><time>2026-04-18T09:29:15.033Z</time></trkpt><trkpt lat="45.3556514" lon="10.6959884"><ele>91.2</ele><time>2026-04-18T09:29:17.033Z</time></trkpt><trkpt lat="45.3557098" lon="10.6958211"><ele>92.4</ele><time>2026-04-18T09:29:19.033Z</time></trkpt><trkpt lat="45.355739" lon="10.6957093"><ele>93.6</ele><time>2026-04-18T09:29:20.033Z</time></trkpt><trkpt lat="45.3557831" lon="10.6955953"><ele>94.8</ele><time>2026-04-18T09:29:21.033Z</time></trkpt><trkpt lat="45.3558372" lon="10.6954716"><ele>96.0</ele><time>2026-04-18T09:29:22.033Z</time></trkpt><trkpt lat="45.3558879" lon="10.6953476"><ele>96.19999999999999</ele><time>2026-04-18T09:29:23.033Z</time></trkpt><trkpt lat="45.355932" lon="10.6952097"><ele>96.39999999999999</ele><time>2026-04-18T09:29:24.033Z</time></trkpt><trkpt lat="45.3559773" lon="10.6950745"><ele>96.6</ele><time>2026-04-18T09:29:25.033Z</time></trkpt><trkpt lat="45.3560111" lon="10.694924"><ele>96.8</ele><time>2026-04-18T09:29:26.033Z</time></trkpt><trkpt lat="45.3560543" lon="10.6947722"><ele>97.0</ele><time>2026-04-18T09:29:27.033Z</time></trkpt><trkpt lat="45.3561032" lon="10.6946412"><ele>97.0</ele><time>2026-04-18T09:29:28.033Z</time></trkpt><trkpt lat="45.3561568" lon="10.6945111"><ele>97.0</ele><time>2026-04-18T09:29:29.033Z</time></trkpt><trkpt lat="45.3562105" lon="10.6943949"><ele>97.0</ele><time>2026-04-18T09:29:30.033Z</time></trkpt><trkpt lat="45.3562584" lon="10.6942601"><ele>97.0</ele><time>2026-04-18T09:29:31.033Z</time></trkpt><trkpt lat="45.3563056" lon="10.6941702"><ele>97.0</ele><time>2026-04-18T09:29:32.033Z</time></trkpt><trkpt lat="45.3563559" lon="10.6941002"><ele>97.50000000000001</ele><time>2026-04-18T09:29:33.033Z</time></trkpt><trkpt lat="45.3564328" lon="10.6940284"><ele>98.0</ele><time>2026-04-18T09:29:35.033Z</time></trkpt><trkpt lat="45.3565211" lon="10.6939946"><ele>98.5</ele><time>2026-04-18T09:29:38.033Z</time></trkpt><trkpt lat="45.356583" lon="10.6939677"><ele>99.0</ele><time>2026-04-18T09:29:41.033Z</time></trkpt><trkpt lat="45.3565668" lon="10.6938768"><ele>99.50000000000001</ele><time>2026-04-18T09:29:45.033Z</time></trkpt><trkpt lat="45.3564964" lon="10.6939219"><ele>100.0</ele><time>2026-04-18T09:29:48.032Z</time></trkpt><trkpt lat="45.3564363" lon="10.6939773"><ele>100.00000000000001</ele><time>2026-04-18T09:29:50.033Z</time></trkpt><trkpt lat="45.356385" lon="10.6940403"><ele>100.0</ele><time>2026-04-18T09:29:52.033Z</time></trkpt><trkpt lat="45.3563198" lon="10.6940112"><ele>100.0</ele><time>2026-04-18T09:29:55.033Z</time></trkpt><trkpt lat="45.3563636" lon="10.6939011"><ele>100.0</ele><time>2026-04-18T09:29:57.033Z</time></trkpt><trkpt lat="45.356443" lon="10.6937758"><ele>100.00000000000001</ele><time>2026-04-18T09:29:59.033Z</time></trkpt><trkpt lat="45.3564945" lon="10.6936862"><ele>100.0</ele><time>2026-04-18T09:30:00.033Z</time></trkpt><trkpt lat="45.3565471" lon="10.6935959"><ele>99.00000000000001</ele><time>2026-04-18T09:30:01.033Z</time></trkpt><trkpt lat="45.3566047" lon="10.6935163"><ele>98.0</ele><time>2026-04-18T09:30:02.033Z</time></trkpt><trkpt lat="45.3566635" lon="10.6934331"><ele>97.0</ele><time>2026-04-18T09:30:03.033Z</time></trkpt><trkpt lat="45.3567302" lon="10.6933523"><ele>96.0</ele><time>2026-04-18T09:30:04.032Z</time></trkpt><trkpt lat="45.356801" lon="10.6932566"><ele>95.0</ele><time>2026-04-18T09:30:05.033Z</time></trkpt><trkpt lat="45.3568764" lon="10.6931708"><ele>94.0</ele><time>2026-04-18T09:30:06.033Z</time></trkpt><trkpt lat="45.3569523" lon="10.6931086"><ele>94.0</ele><time>2026-04-18T09:30:07.033Z</time></trkpt><trkpt lat="45.3570144" lon="10.6930296"><ele>94.0</ele><time>2026-04-18T09:30:08.033Z</time></trkpt><trkpt lat="45.3570778" lon="10.6929545"><ele>94.0</ele><time>2026-04-18T09:30:09.033Z</time></trkpt><trkpt lat="45.3571416" lon="10.6928772"><ele>94.0</ele><time>2026-04-18T09:30:10.033Z</time></trkpt><trkpt lat="45.3571945" lon="10.6928047"><ele>94.0</ele><time>2026-04-18T09:30:11.033Z</time></trkpt><trkpt lat="45.3572654" lon="10.6926514"><ele>94.0</ele><time>2026-04-18T09:30:13.033Z</time></trkpt><trkpt lat="45.3572962" lon="10.6925645"><ele>94.0</ele><time>2026-04-18T09:30:14.033Z</time></trkpt><trkpt lat="45.3573268" lon="10.6924765"><ele>94.0</ele><time>2026-04-18T09:30:15.032Z</time></trkpt><trkpt lat="45.357352" lon="10.6923743"><ele>94.0</ele><time>2026-04-18T09:30:16.033Z</time></trkpt><trkpt lat="45.3573846" lon="10.6922753"><ele>94.0</ele><time>2026-04-18T09:30:17.033Z</time></trkpt><trkpt lat="45.3574017" lon="10.6921711"><ele>94.0</ele><time>2026-04-18T09:30:18.033Z</time></trkpt><trkpt lat="45.3574091" lon="10.6920596"><ele>94.0</ele><time>2026-04-18T09:30:19.033Z</time></trkpt><trkpt lat="45.357416" lon="10.6919361"><ele>94.83333333333333</ele><time>2026-04-18T09:30:20.033Z</time></trkpt><trkpt lat="45.3574159" lon="10.6918127"><ele>95.66666666666666</ele><time>2026-04-18T09:30:21.033Z</time></trkpt><trkpt lat="45.3574148" lon="10.6917045"><ele>96.5</ele><time>2026-04-18T09:30:22.033Z</time></trkpt><trkpt lat="45.3574113" lon="10.6915982"><ele>97.33333333333333</ele><time>2026-04-18T09:30:23.033Z</time></trkpt><trkpt lat="45.357405" lon="10.6914855"><ele>98.16666666666667</ele><time>2026-04-18T09:30:24.033Z</time></trkpt><trkpt lat="45.3573976" lon="10.6913748"><ele>99.0</ele><time>2026-04-18T09:30:25.033Z</time></trkpt><trkpt lat="45.3573811" lon="10.6912529"><ele>99.0</ele><time>2026-04-18T09:30:26.033Z</time></trkpt><trkpt lat="45.3573647" lon="10.691132"><ele>99.0</ele><time>2026-04-18T09:30:27.033Z</time></trkpt><trkpt lat="45.3573486" lon="10.6910066"><ele>99.0</ele><time>2026-04-18T09:30:28.033Z</time></trkpt><trkpt lat="45.3573368" lon="10.6908766"><ele>99.0</ele><time>2026-04-18T09:30:29.033Z</time></trkpt><trkpt lat="45.3573247" lon="10.6907562"><ele>99.0</ele><time>2026-04-18T09:30:30.033Z</time></trkpt><trkpt lat="45.3573181" lon="10.6906114"><ele>99.83333333333333</ele><time>2026-04-18T09:30:31.033Z</time></trkpt><trkpt lat="45.3573101" lon="10.6904719"><ele>100.66666666666666</ele><time>2026-04-18T09:30:32.033Z</time></trkpt><trkpt lat="45.3573094" lon="10.6903612"><ele>101.5</ele><time>2026-04-18T09:30:33.033Z</time></trkpt><trkpt lat="45.3573127" lon="10.690237"><ele>102.33333333333333</ele><time>2026-04-18T09:30:34.033Z</time></trkpt><trkpt lat="45.3573212" lon="10.6901229"><ele>103.16666666666666</ele><time>2026-04-18T09:30:35.033Z</time></trkpt><trkpt lat="45.3573364" lon="10.6900065"><ele>104.0</ele><time>2026-04-18T09:30:36.033Z</time></trkpt><trkpt lat="45.357356" lon="10.6898863"><ele>104.4</ele><time>2026-04-18T09:30:37.033Z</time></trkpt><trkpt lat="45.357383" lon="10.6897465"><ele>104.80000000000001</ele><time>2026-04-18T09:30:38.033Z</time></trkpt><trkpt lat="45.3574088" lon="10.6896008"><ele>105.19999999999999</ele><time>2026-04-18T09:30:39.033Z</time></trkpt><trkpt lat="45.3574243" lon="10.6894434"><ele>105.6</ele><time>2026-04-18T09:30:40.033Z</time></trkpt><trkpt lat="45.3574266" lon="10.6893103"><ele>106.0</ele><time>2026-04-18T09:30:41.032Z</time></trkpt><trkpt lat="45.3574295" lon="10.6891837"><ele>106.19999999999999</ele><time>2026-04-18T09:30:42.033Z</time></trkpt><trkpt lat="45.3574301" lon="10.6890579"><ele>106.39999999999999</ele><time>2026-04-18T09:30:43.033Z</time></trkpt><trkpt lat="45.3574449" lon="10.688918"><ele>106.6</ele><time>2026-04-18T09:30:44.033Z</time></trkpt><trkpt lat="45.3574681" lon="10.6887879"><ele>106.8</ele><time>2026-04-18T09:30:45.033Z</time></trkpt><trkpt lat="45.357493" lon="10.6886542"><ele>107.0</ele><time>2026-04-18T09:30:46.033Z</time></trkpt><trkpt lat="45.3575122" lon="10.6885266"><ele>107.0</ele><time>2026-04-18T09:30:47.033Z</time></trkpt><trkpt lat="45.3575222" lon="10.6883876"><ele>106.99999999999999</ele><time>2026-04-18T09:30:48.033Z</time></trkpt><trkpt lat="45.3575288" lon="10.6882531"><ele>106.99999999999999</ele><time>2026-04-18T09:30:49.033Z</time></trkpt><trkpt lat="45.3575302" lon="10.6881335"><ele>107.0</ele><time>2026-04-18T09:30:50.033Z</time></trkpt><trkpt lat="45.3575382" lon="10.6880088"><ele>107.0</ele><time>2026-04-18T09:30:51.033Z</time></trkpt><trkpt lat="45.3575616" lon="10.6878803"><ele>107.25</ele><time>2026-04-18T09:30:52.033Z</time></trkpt><trkpt lat="45.3575975" lon="10.6877444"><ele>107.5</ele><time>2026-04-18T09:30:53.033Z</time></trkpt><trkpt lat="45.3576454" lon="10.6875973"><ele>107.75</ele><time>2026-04-18T09:30:54.033Z</time></trkpt><trkpt lat="45.3577055" lon="10.6874574"><ele>108.0</ele><time>2026-04-18T09:30:55.033Z</time></trkpt><trkpt lat="45.3577696" lon="10.6873145"><ele>108.0</ele><time>2026-04-18T09:30:56.033Z</time></trkpt><trkpt lat="45.3578282" lon="10.6872131"><ele>108.00000000000001</ele><time>2026-04-18T09:30:57.033Z</time></trkpt><trkpt lat="45.3578957" lon="10.6871109"><ele>108.00000000000001</ele><time>2026-04-18T09:30:58.032Z</time></trkpt><trkpt lat="45.3579694" lon="10.6870257"><ele>108.0</ele><time>2026-04-18T09:30:59.033Z</time></trkpt><trkpt lat="45.3580443" lon="10.6869408"><ele>108.0</ele><time>2026-04-18T09:31:00.033Z</time></trkpt><trkpt lat="45.3581278" lon="10.6868595"><ele>109.0</ele><time>2026-04-18T09:31:01.033Z</time></trkpt><trkpt lat="45.3582196" lon="10.6867725"><ele>110.00000000000001</ele><time>2026-04-18T09:31:02.033Z</time></trkpt><trkpt lat="45.3583186" lon="10.6867043"><ele>111.00000000000001</ele><time>2026-04-18T09:31:03.032Z</time></trkpt><trkpt lat="45.3584114" lon="10.6866305"><ele>112.0</ele><time>2026-04-18T09:31:04.033Z</time></trkpt><trkpt lat="45.3585067" lon="10.6865628"><ele>113.0</ele><time>2026-04-18T09:31:05.033Z</time></trkpt><trkpt lat="45.3586071" lon="10.686481"><ele>113.0</ele><time>2026-04-18T09:31:06.033Z</time></trkpt><trkpt lat="45.358712" lon="10.686401"><ele>113.00000000000001</ele><time>2026-04-18T09:31:07.032Z</time></trkpt><trkpt lat="45.3588069" lon="10.6863212"><ele>113.00000000000001</ele><time>2026-04-18T09:31:08.032Z</time></trkpt><trkpt lat="45.3588884" lon="10.6862489"><ele>113.0</ele><time>2026-04-18T09:31:09.033Z</time></trkpt><trkpt lat="45.3589572" lon="10.6861607"><ele>113.0</ele><time>2026-04-18T09:31:10.033Z</time></trkpt><trkpt lat="45.359022" lon="10.6860764"><ele>114.4</ele><time>2026-04-18T09:31:11.033Z</time></trkpt><trkpt lat="45.3590828" lon="10.6859891"><ele>115.80000000000001</ele><time>2026-04-18T09:31:12.033Z</time></trkpt><trkpt lat="45.359145" lon="10.6859034"><ele>117.2</ele><time>2026-04-18T09:31:13.033Z</time></trkpt><trkpt lat="45.3592021" lon="10.6858035"><ele>118.6</ele><time>2026-04-18T09:31:14.033Z</time></trkpt><trkpt lat="45.3592536" lon="10.6856836"><ele>120.0</ele><time>2026-04-18T09:31:15.033Z</time></trkpt><trkpt lat="45.3593041" lon="10.6855701"><ele>120.0</ele><time>2026-04-18T09:31:16.032Z</time></trkpt><trkpt lat="45.3593517" lon="10.6854466"><ele>120.0</ele><time>2026-04-18T09:31:17.033Z</time></trkpt><trkpt lat="45.3594008" lon="10.6853039"><ele>120.0</ele><time>2026-04-18T09:31:18.032Z</time></trkpt><trkpt lat="45.359459" lon="10.6851585"><ele>120.0</ele><time>2026-04-18T09:31:19.033Z</time></trkpt><trkpt lat="45.3595206" lon="10.6850072"><ele>119.6</ele><time>2026-04-18T09:31:20.033Z</time></trkpt><trkpt lat="45.3595697" lon="10.684874"><ele>119.2</ele><time>2026-04-18T09:31:21.033Z</time></trkpt><trkpt lat="45.3596232" lon="10.6847421"><ele>118.80000000000001</ele><time>2026-04-18T09:31:22.033Z</time></trkpt><trkpt lat="45.3596782" lon="10.6846331"><ele>118.4</ele><time>2026-04-18T09:31:23.032Z</time></trkpt><trkpt lat="45.359732" lon="10.6845684"><ele>118.0</ele><time>2026-04-18T09:31:24.033Z</time></trkpt><trkpt lat="45.3597847" lon="10.6844671"><ele>118.2</ele><time>2026-04-18T09:31:25.033Z</time></trkpt><trkpt lat="45.3598419" lon="10.6843593"><ele>118.4</ele><time>2026-04-18T09:31:26.033Z</time></trkpt><trkpt lat="45.3599054" lon="10.6842568"><ele>118.60000000000001</ele><time>2026-04-18T09:31:27.033Z</time></trkpt><trkpt lat="45.3599714" lon="10.6841395"><ele>118.80000000000001</ele><time>2026-04-18T09:31:28.033Z</time></trkpt><trkpt lat="45.3600259" lon="10.6840109"><ele>119.0</ele><time>2026-04-18T09:31:29.033Z</time></trkpt><trkpt lat="45.3600824" lon="10.6838974"><ele>118.99999999999999</ele><time>2026-04-18T09:31:30.033Z</time></trkpt><trkpt lat="45.3601312" lon="10.6838075"><ele>119.0</ele><time>2026-04-18T09:31:31.033Z</time></trkpt><trkpt lat="45.3601664" lon="10.6837279"><ele>119.0</ele><time>2026-04-18T09:31:32.033Z</time></trkpt><trkpt lat="45.3602085" lon="10.6836273"><ele>119.0</ele><time>2026-04-18T09:31:34.033Z</time></trkpt><trkpt lat="45.36022" lon="10.6835043"><ele>118.99999999999999</ele><time>2026-04-18T09:31:36.033Z</time></trkpt><trkpt lat="45.3601959" lon="10.6833235"><ele>119.0</ele><time>2026-04-18T09:31:38.033Z</time></trkpt><trkpt lat="45.3601827" lon="10.6832214"><ele>119.80000000000001</ele><time>2026-04-18T09:31:39.033Z</time></trkpt><trkpt lat="45.3601737" lon="10.6830988"><ele>120.60000000000001</ele><time>2026-04-18T09:31:40.033Z</time></trkpt><trkpt lat="45.3601712" lon="10.6829674"><ele>121.4</ele><time>2026-04-18T09:31:41.033Z</time></trkpt><trkpt lat="45.3601651" lon="10.682839"><ele>122.2</ele><time>2026-04-18T09:31:42.033Z</time></trkpt><trkpt lat="45.3601629" lon="10.6827006"><ele>123.0</ele><time>2026-04-18T09:31:43.033Z</time></trkpt><trkpt lat="45.3601569" lon="10.6825635"><ele>123.5</ele><time>2026-04-18T09:31:44.033Z</time></trkpt><trkpt lat="45.3601581" lon="10.6824642"><ele>124.0</ele><time>2026-04-18T09:31:45.033Z</time></trkpt><trkpt lat="45.3601524" lon="10.6823419"><ele>124.5</ele><time>2026-04-18T09:31:47.032Z</time></trkpt><trkpt lat="45.3601906" lon="10.6822628"><ele>125.0</ele><time>2026-04-18T09:31:50.033Z</time></trkpt><trkpt lat="45.360272" lon="10.6821993"><ele>125.5</ele><time>2026-04-18T09:31:52.033Z</time></trkpt><trkpt lat="45.3603801" lon="10.6821549"><ele>126.0</ele><time>2026-04-18T09:31:54.032Z</time></trkpt><trkpt lat="45.3604521" lon="10.6821344"><ele>125.83333333333333</ele><time>2026-04-18T09:31:55.033Z</time></trkpt><trkpt lat="45.3605352" lon="10.6821023"><ele>125.66666666666666</ele><time>2026-04-18T09:31:56.033Z</time></trkpt><trkpt lat="45.3606088" lon="10.6820779"><ele>125.5</ele><time>2026-04-18T09:31:57.033Z</time></trkpt><trkpt lat="45.3606899" lon="10.6820495"><ele>125.33333333333333</ele><time>2026-04-18T09:31:58.033Z</time></trkpt><trkpt lat="45.36076" lon="10.6820079"><ele>125.16666666666666</ele><time>2026-04-18T09:31:59.033Z</time></trkpt><trkpt lat="45.3608373" lon="10.6819869"><ele>125.0</ele><time>2026-04-18T09:32:00.033Z</time></trkpt><trkpt lat="45.3609199" lon="10.6819619"><ele>125.66666666666666</ele><time>2026-04-18T09:32:01.032Z</time></trkpt><trkpt lat="45.3609877" lon="10.6819241"><ele>126.33333333333333</ele><time>2026-04-18T09:32:02.033Z</time></trkpt><trkpt lat="45.3610655" lon="10.6818962"><ele>127.0</ele><time>2026-04-18T09:32:03.032Z</time></trkpt><trkpt lat="45.3611236" lon="10.6818443"><ele>127.66666666666666</ele><time>2026-04-18T09:32:04.032Z</time></trkpt><trkpt lat="45.3611938" lon="10.6817561"><ele>128.33333333333334</ele><time>2026-04-18T09:32:05.032Z</time></trkpt><trkpt lat="45.361271" lon="10.6816472"><ele>129.0</ele><time>2026-04-18T09:32:06.033Z</time></trkpt><trkpt lat="45.3613257" lon="10.6815384"><ele>128.8</ele><time>2026-04-18T09:32:07.033Z</time></trkpt><trkpt lat="45.361394" lon="10.6814277"><ele>128.60000000000002</ele><time>2026-04-18T09:32:08.033Z</time></trkpt><trkpt lat="45.3614437" lon="10.6813285"><ele>128.4</ele><time>2026-04-18T09:32:09.033Z</time></trkpt><trkpt lat="45.3615057" lon="10.6812182"><ele>128.20000000000002</ele><time>2026-04-18T09:32:10.033Z</time></trkpt><trkpt lat="45.36158" lon="10.68111"><ele>128.0</ele><time>2026-04-18T09:32:11.033Z</time></trkpt><trkpt lat="45.3616512" lon="10.6809798"><ele>128.75</ele><time>2026-04-18T09:32:12.033Z</time></trkpt><trkpt lat="45.3617244" lon="10.6808527"><ele>129.5</ele><time>2026-04-18T09:32:13.033Z</time></trkpt><trkpt lat="45.361799" lon="10.6807195"><ele>130.25</ele><time>2026-04-18T09:32:14.033Z</time></trkpt><trkpt lat="45.3618828" lon="10.6805919"><ele>131.0</ele><time>2026-04-18T09:32:15.033Z</time></trkpt><trkpt lat="45.3619691" lon="10.6804761"><ele>131.0</ele><time>2026-04-18T09:32:16.033Z</time></trkpt><trkpt lat="45.3620609" lon="10.680355"><ele>131.0</ele><time>2026-04-18T09:32:17.033Z</time></trkpt><trkpt lat="45.3621483" lon="10.6802543"><ele>131.0</ele><time>2026-04-18T09:32:18.032Z</time></trkpt><trkpt lat="45.362245" lon="10.6801556"><ele>131.0</ele><time>2026-04-18T09:32:19.033Z</time></trkpt><trkpt lat="45.3623339" lon="10.6800718"><ele>131.75</ele><time>2026-04-18T09:32:20.032Z</time></trkpt><trkpt lat="45.3624376" lon="10.6799808"><ele>132.5</ele><time>2026-04-18T09:32:21.033Z</time></trkpt><trkpt lat="45.362538" lon="10.6798967"><ele>133.25</ele><time>2026-04-18T09:32:22.033Z</time></trkpt><trkpt lat="45.3626319" lon="10.6798315"><ele>134.0</ele><time>2026-04-18T09:32:23.033Z</time></trkpt><trkpt lat="45.3627301" lon="10.6797628"><ele>134.0</ele><time>2026-04-18T09:32:24.033Z</time></trkpt><trkpt lat="45.3628248" lon="10.6797016"><ele>134.0</ele><time>2026-04-18T09:32:25.033Z</time></trkpt><trkpt lat="45.3629108" lon="10.6796433"><ele>134.0</ele><time>2026-04-18T09:32:26.033Z</time></trkpt><trkpt lat="45.3629833" lon="10.6795784"><ele>134.0</ele><time>2026-04-18T09:32:27.033Z</time></trkpt><trkpt lat="45.3630428" lon="10.6795192"><ele>134.0</ele><time>2026-04-18T09:32:28.033Z</time></trkpt><trkpt lat="45.3630849" lon="10.6794491"><ele>134.0</ele><time>2026-04-18T09:32:50.033Z</time></trkpt><trkpt lat="45.3631669" lon="10.6794671"><ele>133.42857142857144</ele><time>2026-04-18T09:32:59.033Z</time></trkpt><trkpt lat="45.3632393" lon="10.6794729"><ele>132.85714285714286</ele><time>2026-04-18T09:33:01.033Z</time></trkpt><trkpt lat="45.3633097" lon="10.6794712"><ele>132.28571428571428</ele><time>2026-04-18T09:33:03.032Z</time></trkpt><trkpt lat="45.3633842" lon="10.6794629"><ele>131.71428571428572</ele><time>2026-04-18T09:33:05.033Z</time></trkpt><trkpt lat="45.3634531" lon="10.6794346"><ele>131.14285714285714</ele><time>2026-04-18T09:33:07.033Z</time></trkpt><trkpt lat="45.3635178" lon="10.6794086"><ele>130.57142857142858</ele><time>2026-04-18T09:33:09.033Z</time></trkpt><trkpt lat="45.3636037" lon="10.6793784"><ele>130.0</ele><time>2026-04-18T09:33:11.033Z</time></trkpt><trkpt lat="45.3636809" lon="10.6793229"><ele>131.6</ele><time>2026-04-18T09:33:13.033Z</time></trkpt><trkpt lat="45.3637715" lon="10.6792684"><ele>133.2</ele><time>2026-04-18T09:33:15.032Z</time></trkpt><trkpt lat="45.3638535" lon="10.6791963"><ele>134.8</ele><time>2026-04-18T09:33:17.033Z</time></trkpt><trkpt lat="45.3639384" lon="10.679115"><ele>136.4</ele><time>2026-04-18T09:33:19.032Z</time></trkpt><trkpt lat="45.3640365" lon="10.6790403"><ele>138.0</ele><time>2026-04-18T09:33:21.032Z</time></trkpt><trkpt lat="45.3641139" lon="10.6789215"><ele>138.20000000000002</ele><time>2026-04-18T09:33:23.033Z</time></trkpt><trkpt lat="45.364188" lon="10.6787803"><ele>138.4</ele><time>2026-04-18T09:33:25.033Z</time></trkpt><trkpt lat="45.3642684" lon="10.6786303"><ele>138.60000000000002</ele><time>2026-04-18T09:33:27.033Z</time></trkpt><trkpt lat="45.3643215" lon="10.6785482"><ele>138.8</ele><time>2026-04-18T09:33:28.033Z</time></trkpt><trkpt lat="45.3643568" lon="10.6784702"><ele>139.0</ele><time>2026-04-18T09:33:29.033Z</time></trkpt><trkpt lat="45.3644625" lon="10.678321"><ele>139.66666666666669</ele><time>2026-04-18T09:33:31.033Z</time></trkpt><trkpt lat="45.3645198" lon="10.6782462"><ele>140.33333333333334</ele><time>2026-04-18T09:33:32.033Z</time></trkpt><trkpt lat="45.3645822" lon="10.6781653"><ele>141.0</ele><time>2026-04-18T09:33:33.033Z</time></trkpt><trkpt lat="45.3646336" lon="10.6780833"><ele>141.66666666666666</ele><time>2026-04-18T09:33:34.033Z</time></trkpt><trkpt lat="45.3646958" lon="10.6780035"><ele>142.33333333333331</ele><time>2026-04-18T09:33:35.033Z</time></trkpt><trkpt lat="45.364758" lon="10.6779375"><ele>143.0</ele><time>2026-04-18T09:33:36.032Z</time></trkpt><trkpt lat="45.3648504" lon="10.6778148"><ele>145.6</ele><time>2026-04-18T09:33:38.033Z</time></trkpt><trkpt lat="45.3649149" lon="10.6777002"><ele>148.20000000000002</ele><time>2026-04-18T09:33:40.032Z</time></trkpt><trkpt lat="45.3649678" lon="10.6775514"><ele>150.8</ele><time>2026-04-18T09:33:42.033Z</time></trkpt><trkpt lat="45.3650039" lon="10.6774697"><ele>153.4</ele><time>2026-04-18T09:33:43.033Z</time></trkpt><trkpt lat="45.365024" lon="10.6773679"><ele>156.0</ele><time>2026-04-18T09:33:45.033Z</time></trkpt><trkpt lat="45.3650712" lon="10.6772525"><ele>156.0</ele><time>2026-04-18T09:33:47.033Z</time></trkpt><trkpt lat="45.3651045" lon="10.6771363"><ele>156.0</ele><time>2026-04-18T09:33:48.033Z</time></trkpt><trkpt lat="45.3651408" lon="10.6770394"><ele>156.0</ele><time>2026-04-18T09:33:50.033Z</time></trkpt><trkpt lat="45.3652385" lon="10.6767569"><ele>156.0</ele><time>2026-04-18T09:33:53.033Z</time></trkpt><trkpt lat="45.3652602" lon="10.676666"><ele>156.71428571428572</ele><time>2026-04-18T09:33:55.033Z</time></trkpt><trkpt lat="45.3652929" lon="10.6765719"><ele>157.42857142857142</ele><time>2026-04-18T09:33:57.033Z</time></trkpt><trkpt lat="45.3653124" lon="10.6764768"><ele>158.14285714285714</ele><time>2026-04-18T09:33:59.032Z</time></trkpt><trkpt lat="45.3653299" lon="10.6763689"><ele>158.85714285714286</ele><time>2026-04-18T09:34:01.033Z</time></trkpt><trkpt lat="45.3653427" lon="10.6762808"><ele>159.57142857142856</ele><time>2026-04-18T09:34:02.033Z</time></trkpt><trkpt lat="45.3653628" lon="10.6761533"><ele>160.28571428571428</ele><time>2026-04-18T09:34:04.033Z</time></trkpt><trkpt lat="45.3653694" lon="10.6760526"><ele>161.0</ele><time>2026-04-18T09:34:06.033Z</time></trkpt><trkpt lat="45.3653734" lon="10.6759608"><ele>161.0</ele><time>2026-04-18T09:34:08.033Z</time></trkpt><trkpt lat="45.3653915" lon="10.6758415"><ele>161.0</ele><time>2026-04-18T09:34:10.033Z</time></trkpt><trkpt lat="45.3654057" lon="10.6757083"><ele>161.0</ele><time>2026-04-18T09:34:12.033Z</time></trkpt><trkpt lat="45.3654227" lon="10.67555"><ele>161.0</ele><time>2026-04-18T09:34:14.032Z</time></trkpt><trkpt lat="45.3654417" lon="10.6753899"><ele>161.0</ele><time>2026-04-18T09:34:16.033Z</time></trkpt><trkpt lat="45.3654589" lon="10.6752315"><ele>160.4</ele><time>2026-04-18T09:34:18.033Z</time></trkpt><trkpt lat="45.3654734" lon="10.6750668"><ele>159.8</ele><time>2026-04-18T09:34:20.033Z</time></trkpt><trkpt lat="45.3655059" lon="10.6748964"><ele>159.20000000000002</ele><time>2026-04-18T09:34:22.033Z</time></trkpt><trkpt lat="45.3655341" lon="10.674799"><ele>158.60000000000002</ele><time>2026-04-18T09:34:23.033Z</time></trkpt><trkpt lat="45.3655766" lon="10.6746638"><ele>158.0</ele><time>2026-04-18T09:34:25.033Z</time></trkpt><trkpt lat="45.3656111" lon="10.6745259"><ele>157.8</ele><time>2026-04-18T09:34:27.033Z</time></trkpt><trkpt lat="45.3656108" lon="10.6743778"><ele>157.60000000000002</ele><time>2026-04-18T09:34:29.033Z</time></trkpt><trkpt lat="45.3656215" lon="10.6742403"><ele>157.39999999999998</ele><time>2026-04-18T09:34:32.032Z</time></trkpt><trkpt lat="45.3656696" lon="10.6740562"><ele>157.2</ele><time>2026-04-18T09:34:35.033Z</time></trkpt><trkpt lat="45.3657121" lon="10.6739665"><ele>157.0</ele><time>2026-04-18T09:34:36.033Z</time></trkpt><trkpt lat="45.3657656" lon="10.6738984"><ele>157.0</ele><time>2026-04-18T09:34:38.033Z</time></trkpt><trkpt lat="45.3658171" lon="10.6738084"><ele>157.0</ele><time>2026-04-18T09:34:41.033Z</time></trkpt><trkpt lat="45.3658635" lon="10.6737189"><ele>157.0</ele><time>2026-04-18T09:34:46.033Z</time></trkpt><trkpt lat="45.3659305" lon="10.6735372"><ele>157.0</ele><time>2026-04-18T09:34:52.033Z</time></trkpt><trkpt lat="45.3659635" lon="10.6733714"><ele>157.0</ele><time>2026-04-18T09:34:54.033Z</time></trkpt><trkpt lat="45.3660096" lon="10.6732654"><ele>157.4</ele><time>2026-04-18T09:34:55.033Z</time></trkpt><trkpt lat="45.3660646" lon="10.6731872"><ele>157.79999999999998</ele><time>2026-04-18T09:34:56.033Z</time></trkpt><trkpt lat="45.3661098" lon="10.6730962"><ele>158.2</ele><time>2026-04-18T09:34:57.033Z</time></trkpt><trkpt lat="45.3661841" lon="10.6729104"><ele>158.6</ele><time>2026-04-18T09:34:59.033Z</time></trkpt><trkpt lat="45.3662098" lon="10.6727978"><ele>159.0</ele><time>2026-04-18T09:35:00.033Z</time></trkpt><trkpt lat="45.3662244" lon="10.6727007"><ele>158.0</ele><time>2026-04-18T09:35:01.033Z</time></trkpt><trkpt lat="45.3662589" lon="10.6726164"><ele>157.0</ele><time>2026-04-18T09:35:02.033Z</time></trkpt><trkpt lat="45.3663025" lon="10.6724819"><ele>156.0</ele><time>2026-04-18T09:35:04.033Z</time></trkpt><trkpt lat="45.3663647" lon="10.6722961"><ele>155.0</ele><time>2026-04-18T09:35:06.033Z</time></trkpt><trkpt lat="45.3663827" lon="10.672197"><ele>154.0</ele><time>2026-04-18T09:35:07.033Z</time></trkpt><trkpt lat="45.3664229" lon="10.6720553"><ele>153.6</ele><time>2026-04-18T09:35:09.032Z</time></trkpt><trkpt lat="45.3664774" lon="10.671981"><ele>153.2</ele><time>2026-04-18T09:35:13.033Z</time></trkpt><trkpt lat="45.366507" lon="10.6718869"><ele>152.79999999999998</ele><time>2026-04-18T09:35:18.033Z</time></trkpt><trkpt lat="45.3666343" lon="10.6717821"><ele>152.4</ele><time>2026-04-18T09:35:21.032Z</time></trkpt><trkpt lat="45.3667375" lon="10.6716878"><ele>152.0</ele><time>2026-04-18T09:35:23.033Z</time></trkpt><trkpt lat="45.3667959" lon="10.6716349"><ele>152.0</ele><time>2026-04-18T09:35:24.033Z</time></trkpt><trkpt lat="45.3668524" lon="10.6715755"><ele>152.0</ele><time>2026-04-18T09:35:25.032Z</time></trkpt><trkpt lat="45.3669103" lon="10.6715168"><ele>152.0</ele><time>2026-04-18T09:35:26.033Z</time></trkpt><trkpt lat="45.36701" lon="10.6714498"><ele>152.0</ele><time>2026-04-18T09:35:28.033Z</time></trkpt><trkpt lat="45.3670776" lon="10.6714544"><ele>152.0</ele><time>2026-04-18T09:35:30.033Z</time></trkpt><trkpt lat="45.367173" lon="10.6714702"><ele>152.0</ele><time>2026-04-18T09:35:33.033Z</time></trkpt><trkpt lat="45.367247" lon="10.6714988"><ele>152.0</ele><time>2026-04-18T09:35:35.033Z</time></trkpt><trkpt lat="45.3673235" lon="10.6715229"><ele>152.0</ele><time>2026-04-18T09:35:37.033Z</time></trkpt><trkpt lat="45.3673803" lon="10.6715627"><ele>152.0</ele><time>2026-04-18T09:35:39.033Z</time></trkpt><trkpt lat="45.3674103" lon="10.671642"><ele>152.0</ele><time>2026-04-18T09:35:44.033Z</time></trkpt><trkpt lat="45.3673392" lon="10.6715609"><ele>152.0</ele><time>2026-04-18T09:35:50.033Z</time></trkpt><trkpt lat="45.3672685" lon="10.6715248"><ele>152.0</ele><time>2026-04-18T09:35:51.033Z</time></trkpt><trkpt lat="45.3672078" lon="10.6714952"><ele>152.0</ele><time>2026-04-18T09:35:52.033Z</time></trkpt><trkpt lat="45.367145" lon="10.6714688"><ele>152.0</ele><time>2026-04-18T09:35:53.033Z</time></trkpt><trkpt lat="45.3670396" lon="10.6714321"><ele>152.0</ele><time>2026-04-18T09:35:55.033Z</time></trkpt><trkpt lat="45.3669422" lon="10.6714512"><ele>152.0</ele><time>2026-04-18T09:35:57.033Z</time></trkpt><trkpt lat="45.3668862" lon="10.6714993"><ele>152.0</ele><time>2026-04-18T09:35:58.033Z</time></trkpt><trkpt lat="45.3668342" lon="10.6715671"><ele>152.0</ele><time>2026-04-18T09:35:59.032Z</time></trkpt><trkpt lat="45.3667685" lon="10.6716335"><ele>152.0</ele><time>2026-04-18T09:36:00.033Z</time></trkpt><trkpt lat="45.3667015" lon="10.6716882"><ele>152.0</ele><time>2026-04-18T09:36:01.033Z</time></trkpt><trkpt lat="45.3666403" lon="10.6717319"><ele>152.0</ele><time>2026-04-18T09:36:02.033Z</time></trkpt><trkpt lat="45.3665613" lon="10.6717733"><ele>152.0</ele><time>2026-04-18T09:36:04.033Z</time></trkpt><trkpt lat="45.3665104" lon="10.6718456"><ele>152.0</ele><time>2026-04-18T09:36:08.033Z</time></trkpt><trkpt lat="45.3664806" lon="10.6719369"><ele>152.0</ele><time>2026-04-18T09:36:13.033Z</time></trkpt><trkpt lat="45.3664335" lon="10.6720033"><ele>152.0</ele><time>2026-04-18T09:36:17.033Z</time></trkpt><trkpt lat="45.3664012" lon="10.6721163"><ele>152.0</ele><time>2026-04-18T09:36:20.033Z</time></trkpt><trkpt lat="45.3663898" lon="10.6722268"><ele>152.4</ele><time>2026-04-18T09:36:23.033Z</time></trkpt><trkpt lat="45.3663562" lon="10.6723206"><ele>152.79999999999998</ele><time>2026-04-18T09:36:26.033Z</time></trkpt><trkpt lat="45.3663154" lon="10.6724293"><ele>153.2</ele><time>2026-04-18T09:36:28.033Z</time></trkpt><trkpt lat="45.3662513" lon="10.6725597"><ele>153.6</ele><time>2026-04-18T09:36:30.033Z</time></trkpt><trkpt lat="45.3662045" lon="10.6726835"><ele>154.0</ele><time>2026-04-18T09:36:31.033Z</time></trkpt><trkpt lat="45.3661662" lon="10.6727835"><ele>155.0</ele><time>2026-04-18T09:36:32.033Z</time></trkpt><trkpt lat="45.3661107" lon="10.6729087"><ele>156.0</ele><time>2026-04-18T09:36:33.033Z</time></trkpt><trkpt lat="45.3660722" lon="10.6730492"><ele>157.0</ele><time>2026-04-18T09:36:34.033Z</time></trkpt><trkpt lat="45.3660407" lon="10.6731356"><ele>158.0</ele><time>2026-04-18T09:36:35.033Z</time></trkpt><trkpt lat="45.3660153" lon="10.6732897"><ele>159.0</ele><time>2026-04-18T09:36:36.033Z</time></trkpt><trkpt lat="45.3659653" lon="10.6734091"><ele>159.0</ele><time>2026-04-18T09:36:37.033Z</time></trkpt><trkpt lat="45.365931" lon="10.6735315"><ele>159.0</ele><time>2026-04-18T09:36:38.033Z</time></trkpt><trkpt lat="45.365901" lon="10.673621"><ele>159.0</ele><time>2026-04-18T09:36:40.032Z</time></trkpt><trkpt lat="45.3658775" lon="10.6737297"><ele>159.0</ele><time>2026-04-18T09:36:43.033Z</time></trkpt><trkpt lat="45.3658188" lon="10.6738098"><ele>159.0</ele><time>2026-04-18T09:36:48.033Z</time></trkpt><trkpt lat="45.3657557" lon="10.6739164"><ele>159.0</ele><time>2026-04-18T09:36:50.033Z</time></trkpt><trkpt lat="45.3657116" lon="10.6740303"><ele>158.66666666666666</ele><time>2026-04-18T09:36:51.033Z</time></trkpt><trkpt lat="45.365675" lon="10.6741124"><ele>158.33333333333334</ele><time>2026-04-18T09:36:52.033Z</time></trkpt><trkpt lat="45.3656554" lon="10.6741991"><ele>158.0</ele><time>2026-04-18T09:36:53.033Z</time></trkpt><trkpt lat="45.3656243" lon="10.6742809"><ele>157.66666666666669</ele><time>2026-04-18T09:36:54.033Z</time></trkpt><trkpt lat="45.3656099" lon="10.6744206"><ele>157.33333333333334</ele><time>2026-04-18T09:36:56.033Z</time></trkpt><trkpt lat="45.3655837" lon="10.6745779"><ele>157.0</ele><time>2026-04-18T09:36:58.033Z</time></trkpt><trkpt lat="45.3655547" lon="10.6746615"><ele>157.14285714285714</ele><time>2026-04-18T09:36:59.032Z</time></trkpt><trkpt lat="45.3655022" lon="10.6748063"><ele>157.28571428571428</ele><time>2026-04-18T09:37:01.033Z</time></trkpt><trkpt lat="45.3654794" lon="10.6748913"><ele>157.42857142857144</ele><time>2026-04-18T09:37:02.033Z</time></trkpt><trkpt lat="45.365457" lon="10.674979"><ele>157.57142857142856</ele><time>2026-04-18T09:37:03.033Z</time></trkpt><trkpt lat="45.3654397" lon="10.6750697"><ele>157.71428571428572</ele><time>2026-04-18T09:37:04.033Z</time></trkpt><trkpt lat="45.365431" lon="10.6751595"><ele>157.85714285714286</ele><time>2026-04-18T09:37:05.033Z</time></trkpt><trkpt lat="45.3654237" lon="10.6752515"><ele>158.0</ele><time>2026-04-18T09:37:06.033Z</time></trkpt><trkpt lat="45.3653995" lon="10.6754321"><ele>158.75</ele><time>2026-04-18T09:37:08.033Z</time></trkpt><trkpt lat="45.3653736" lon="10.6756061"><ele>159.5</ele><time>2026-04-18T09:37:10.033Z</time></trkpt><trkpt lat="45.3653609" lon="10.6757817"><ele>160.25</ele><time>2026-04-18T09:37:12.033Z</time></trkpt><trkpt lat="45.3653345" lon="10.6759335"><ele>161.0</ele><time>2026-04-18T09:37:14.033Z</time></trkpt><trkpt lat="45.3653235" lon="10.6760786"><ele>161.5</ele><time>2026-04-18T09:37:16.033Z</time></trkpt><trkpt lat="45.3652892" lon="10.6762387"><ele>162.0</ele><time>2026-04-18T09:37:18.032Z</time></trkpt><trkpt lat="45.3652928" lon="10.6763459"><ele>162.5</ele><time>2026-04-18T09:37:19.033Z</time></trkpt><trkpt lat="45.3652685" lon="10.6764478"><ele>163.0</ele><time>2026-04-18T09:37:20.033Z</time></trkpt><trkpt lat="45.3652597" lon="10.676541"><ele>163.5</ele><time>2026-04-18T09:37:21.033Z</time></trkpt><trkpt lat="45.3652466" lon="10.676636"><ele>164.0</ele><time>2026-04-18T09:37:29.033Z</time></trkpt><trkpt lat="45.3652037" lon="10.6767255"><ele>164.0</ele><time>2026-04-18T09:37:40.032Z</time></trkpt><trkpt lat="45.3651614" lon="10.6768204"><ele>164.0</ele><time>2026-04-18T09:37:50.033Z</time></trkpt><trkpt lat="45.3651263" lon="10.6769644"><ele>164.0</ele><time>2026-04-18T09:38:04.033Z</time></trkpt><trkpt lat="45.3650714" lon="10.6770354"><ele>164.0</ele><time>2026-04-18T09:38:07.032Z</time></trkpt><trkpt lat="45.3649976" lon="10.6770215"><ele>164.0</ele><time>2026-04-18T09:38:10.033Z</time></trkpt><trkpt lat="45.3649157" lon="10.6769715"><ele>164.0</ele><time>2026-04-18T09:38:13.033Z</time></trkpt><trkpt lat="45.3648508" lon="10.6769311"><ele>163.99999999999997</ele><time>2026-04-18T09:38:15.033Z</time></trkpt><trkpt lat="45.3647882" lon="10.6769194"><ele>164.0</ele><time>2026-04-18T09:38:17.033Z</time></trkpt><trkpt lat="45.3647131" lon="10.6768968"><ele>164.0</ele><time>2026-04-18T09:38:20.033Z</time></trkpt><trkpt lat="45.3646985" lon="10.6767827"><ele>164.0</ele><time>2026-04-18T09:38:22.032Z</time></trkpt><trkpt lat="45.364682" lon="10.6766862"><ele>164.0</ele><time>2026-04-18T09:40:22.033Z</time></trkpt><trkpt lat="45.3646379" lon="10.6765836"><ele>163.99999999999997</ele><time>2026-04-18T09:40:25.033Z</time></trkpt><trkpt lat="45.3645816" lon="10.6765333"><ele>164.0</ele><time>2026-04-18T09:40:27.033Z</time></trkpt><trkpt lat="45.364513" lon="10.6764809"><ele>163.16666666666666</ele><time>2026-04-18T09:40:29.033Z</time></trkpt><trkpt lat="45.364449" lon="10.6764252"><ele>162.33333333333331</ele><time>2026-04-18T09:40:31.032Z</time></trkpt><trkpt lat="45.3643811" lon="10.6763585"><ele>161.5</ele><time>2026-04-18T09:40:33.032Z</time></trkpt><trkpt lat="45.3643081" lon="10.6762949"><ele>160.66666666666666</ele><time>2026-04-18T09:40:36.033Z</time></trkpt><trkpt lat="45.3642494" lon="10.6762085"><ele>159.83333333333334</ele><time>2026-04-18T09:40:39.033Z</time></trkpt><trkpt lat="45.3641818" lon="10.6762475"><ele>159.0</ele><time>2026-04-18T09:40:42.033Z</time></trkpt><trkpt lat="45.3641513" lon="10.6763404"><ele>159.0</ele><time>2026-04-18T09:40:44.033Z</time></trkpt><trkpt lat="45.364128" lon="10.6764546"><ele>159.0</ele><time>2026-04-18T09:40:46.033Z</time></trkpt><trkpt lat="45.3640808" lon="10.6765745"><ele>159.0</ele><time>2026-04-18T09:40:48.033Z</time></trkpt><trkpt lat="45.3640155" lon="10.6766855"><ele>159.0</ele><time>2026-04-18T09:40:50.033Z</time></trkpt><trkpt lat="45.3639343" lon="10.676783"><ele>159.0</ele><time>2026-04-18T09:40:52.033Z</time></trkpt><trkpt lat="45.3638537" lon="10.6768997"><ele>155.8</ele><time>2026-04-18T09:40:54.033Z</time></trkpt><trkpt lat="45.3637589" lon="10.6769723"><ele>152.60000000000002</ele><time>2026-04-18T09:40:56.033Z</time></trkpt><trkpt lat="45.3636605" lon="10.6770384"><ele>149.4</ele><time>2026-04-18T09:40:58.033Z</time></trkpt><trkpt lat="45.3635893" lon="10.67707"><ele>146.20000000000002</ele><time>2026-04-18T09:41:00.033Z</time></trkpt><trkpt lat="45.3635189" lon="10.677058"><ele>143.0</ele><time>2026-04-18T09:41:02.033Z</time></trkpt><trkpt lat="45.3634273" lon="10.6770279"><ele>142.99999999999997</ele><time>2026-04-18T09:41:04.033Z</time></trkpt><trkpt lat="45.3633591" lon="10.6770015"><ele>143.0</ele><time>2026-04-18T09:41:06.032Z</time></trkpt><trkpt lat="45.363326" lon="10.6769109"><ele>143.0</ele><time>2026-04-18T09:41:12.033Z</time></trkpt><trkpt lat="45.3633445" lon="10.6768151"><ele>143.0</ele><time>2026-04-18T09:41:14.033Z</time></trkpt><trkpt lat="45.3634035" lon="10.676734"><ele>143.0</ele><time>2026-04-18T09:41:16.033Z</time></trkpt><trkpt lat="45.3634313" lon="10.67665"><ele>142.99999999999997</ele><time>2026-04-18T09:41:18.033Z</time></trkpt><trkpt lat="45.3634164" lon="10.6765478"><ele>143.0</ele><time>2026-04-18T09:41:20.032Z</time></trkpt><trkpt lat="45.3633652" lon="10.676453"><ele>143.16666666666666</ele><time>2026-04-18T09:41:23.033Z</time></trkpt><trkpt lat="45.363301" lon="10.676451"><ele>143.33333333333331</ele><time>2026-04-18T09:41:25.033Z</time></trkpt><trkpt lat="45.3631937" lon="10.676469"><ele>143.5</ele><time>2026-04-18T09:41:27.033Z</time></trkpt><trkpt lat="45.3631217" lon="10.6764662"><ele>143.66666666666666</ele><time>2026-04-18T09:41:29.033Z</time></trkpt><trkpt lat="45.3630848" lon="10.6763401"><ele>143.83333333333334</ele><time>2026-04-18T09:41:33.033Z</time></trkpt><trkpt lat="45.3630715" lon="10.6762345"><ele>144.0</ele><time>2026-04-18T09:41:34.033Z</time></trkpt><trkpt lat="45.3630644" lon="10.6760596"><ele>143.33333333333334</ele><time>2026-04-18T09:41:36.033Z</time></trkpt><trkpt lat="45.3630499" lon="10.6759675"><ele>142.66666666666666</ele><time>2026-04-18T09:41:37.033Z</time></trkpt><trkpt lat="45.3630388" lon="10.6758664"><ele>142.0</ele><time>2026-04-18T09:41:38.033Z</time></trkpt><trkpt lat="45.3630258" lon="10.6757554"><ele>141.33333333333331</ele><time>2026-04-18T09:41:39.033Z</time></trkpt><trkpt lat="45.3630164" lon="10.6756216"><ele>140.66666666666666</ele><time>2026-04-18T09:41:40.032Z</time></trkpt><trkpt lat="45.363004" lon="10.6754971"><ele>140.0</ele><time>2026-04-18T09:41:41.033Z</time></trkpt><trkpt lat="45.3629963" lon="10.6753677"><ele>139.16666666666666</ele><time>2026-04-18T09:41:42.033Z</time></trkpt><trkpt lat="45.3629839" lon="10.6752396"><ele>138.33333333333331</ele><time>2026-04-18T09:41:43.033Z</time></trkpt><trkpt lat="45.3629719" lon="10.6751125"><ele>137.5</ele><time>2026-04-18T09:41:44.033Z</time></trkpt><trkpt lat="45.3629591" lon="10.6749812"><ele>136.66666666666666</ele><time>2026-04-18T09:41:45.033Z</time></trkpt><trkpt lat="45.362955" lon="10.6748534"><ele>135.83333333333334</ele><time>2026-04-18T09:41:46.033Z</time></trkpt><trkpt lat="45.3629499" lon="10.674734"><ele>135.0</ele><time>2026-04-18T09:41:47.033Z</time></trkpt><trkpt lat="45.3629384" lon="10.6746151"><ele>135.0</ele><time>2026-04-18T09:41:48.033Z</time></trkpt><trkpt lat="45.3629435" lon="10.6744741"><ele>135.0</ele><time>2026-04-18T09:41:49.033Z</time></trkpt><trkpt lat="45.3629555" lon="10.6743391"><ele>135.0</ele><time>2026-04-18T09:41:50.033Z</time></trkpt><trkpt lat="45.3629737" lon="10.6741861"><ele>135.0</ele><time>2026-04-18T09:41:51.033Z</time></trkpt><trkpt lat="45.3629992" lon="10.6740356"><ele>135.0</ele><time>2026-04-18T09:41:52.033Z</time></trkpt><trkpt lat="45.3630206" lon="10.6738864"><ele>134.6</ele><time>2026-04-18T09:41:53.033Z</time></trkpt><trkpt lat="45.3630478" lon="10.6737465"><ele>134.2</ele><time>2026-04-18T09:41:54.033Z</time></trkpt><trkpt lat="45.3630773" lon="10.6736091"><ele>133.8</ele><time>2026-04-18T09:41:55.033Z</time></trkpt><trkpt lat="45.3631076" lon="10.6734749"><ele>133.4</ele><time>2026-04-18T09:41:56.033Z</time></trkpt><trkpt lat="45.3631369" lon="10.6733412"><ele>133.0</ele><time>2026-04-18T09:41:57.033Z</time></trkpt><trkpt lat="45.3631623" lon="10.6732092"><ele>133.0</ele><time>2026-04-18T09:41:58.033Z</time></trkpt><trkpt lat="45.3631953" lon="10.6730865"><ele>133.0</ele><time>2026-04-18T09:41:59.033Z</time></trkpt><trkpt lat="45.36322" lon="10.6729594"><ele>133.0</ele><time>2026-04-18T09:42:00.033Z</time></trkpt><trkpt lat="45.3632501" lon="10.672837"><ele>133.0</ele><time>2026-04-18T09:42:01.033Z</time></trkpt><trkpt lat="45.3632896" lon="10.6727221"><ele>133.0</ele><time>2026-04-18T09:42:02.033Z</time></trkpt><trkpt lat="45.3633143" lon="10.6725949"><ele>133.4</ele><time>2026-04-18T09:42:03.033Z</time></trkpt><trkpt lat="45.363341" lon="10.6724651"><ele>133.8</ele><time>2026-04-18T09:42:04.033Z</time></trkpt><trkpt lat="45.3633685" lon="10.6723422"><ele>134.2</ele><time>2026-04-18T09:42:05.033Z</time></trkpt><trkpt lat="45.3633976" lon="10.6722101"><ele>134.6</ele><time>2026-04-18T09:42:06.033Z</time></trkpt><trkpt lat="45.3634224" lon="10.6720906"><ele>135.0</ele><time>2026-04-18T09:42:07.033Z</time></trkpt><trkpt lat="45.363447" lon="10.6719759"><ele>135.33333333333334</ele><time>2026-04-18T09:42:08.033Z</time></trkpt><trkpt lat="45.3634707" lon="10.6718786"><ele>135.66666666666666</ele><time>2026-04-18T09:42:09.033Z</time></trkpt><trkpt lat="45.3635053" lon="10.6717349"><ele>136.0</ele><time>2026-04-18T09:42:11.033Z</time></trkpt><trkpt lat="45.3635184" lon="10.67164"><ele>136.33333333333331</ele><time>2026-04-18T09:42:13.033Z</time></trkpt><trkpt lat="45.363442" lon="10.6715245"><ele>136.66666666666666</ele><time>2026-04-18T09:42:16.033Z</time></trkpt><trkpt lat="45.3633768" lon="10.6714855"><ele>137.0</ele><time>2026-04-18T09:42:17.033Z</time></trkpt><trkpt lat="45.3632985" lon="10.6714437"><ele>137.0</ele><time>2026-04-18T09:42:18.033Z</time></trkpt><trkpt lat="45.3632189" lon="10.671394"><ele>137.0</ele><time>2026-04-18T09:42:19.033Z</time></trkpt><trkpt lat="45.3631472" lon="10.6713363"><ele>137.0</ele><time>2026-04-18T09:42:20.033Z</time></trkpt><trkpt lat="45.3630927" lon="10.6712599"><ele>137.0</ele><time>2026-04-18T09:42:21.033Z</time></trkpt><trkpt lat="45.3630542" lon="10.6711685"><ele>137.0</ele><time>2026-04-18T09:42:22.033Z</time></trkpt><trkpt lat="45.3630369" lon="10.6710667"><ele>137.0</ele><time>2026-04-18T09:42:23.033Z</time></trkpt><trkpt lat="45.3630395" lon="10.6709601"><ele>137.0</ele><time>2026-04-18T09:42:24.033Z</time></trkpt><trkpt lat="45.3630481" lon="10.6708478"><ele>137.0</ele><time>2026-04-18T09:42:25.033Z</time></trkpt><trkpt lat="45.3630574" lon="10.6707322"><ele>137.0</ele><time>2026-04-18T09:42:26.033Z</time></trkpt><trkpt lat="45.3630641" lon="10.6706061"><ele>137.0</ele><time>2026-04-18T09:42:27.033Z</time></trkpt><trkpt lat="45.3630756" lon="10.6704781"><ele>137.0</ele><time>2026-04-18T09:42:28.033Z</time></trkpt><trkpt lat="45.3630898" lon="10.6703438"><ele>137.0</ele><time>2026-04-18T09:42:29.033Z</time></trkpt><trkpt lat="45.3630989" lon="10.6702139"><ele>137.0</ele><time>2026-04-18T09:42:30.033Z</time></trkpt><trkpt lat="45.363109" lon="10.6700919"><ele>137.0</ele><time>2026-04-18T09:42:31.033Z</time></trkpt><trkpt lat="45.3631156" lon="10.6699823"><ele>137.0</ele><time>2026-04-18T09:42:32.033Z</time></trkpt><trkpt lat="45.3631087" lon="10.6698746"><ele>137.0</ele><time>2026-04-18T09:42:33.033Z</time></trkpt><trkpt lat="45.3630755" lon="10.6697826"><ele>137.0</ele><time>2026-04-18T09:42:34.033Z</time></trkpt><trkpt lat="45.3630247" lon="10.6697219"><ele>137.0</ele><time>2026-04-18T09:42:35.032Z</time></trkpt><trkpt lat="45.3629607" lon="10.6696734"><ele>135.6</ele><time>2026-04-18T09:42:36.033Z</time></trkpt><trkpt lat="45.3628767" lon="10.6696326"><ele>134.2</ele><time>2026-04-18T09:42:37.032Z</time></trkpt><trkpt lat="45.3627836" lon="10.6695947"><ele>132.8</ele><time>2026-04-18T09:42:38.033Z</time></trkpt><trkpt lat="45.3626834" lon="10.6695674"><ele>131.4</ele><time>2026-04-18T09:42:39.033Z</time></trkpt><trkpt lat="45.3625793" lon="10.6695442"><ele>130.0</ele><time>2026-04-18T09:42:40.033Z</time></trkpt><trkpt lat="45.3624648" lon="10.6695234"><ele>130.0</ele><time>2026-04-18T09:42:41.033Z</time></trkpt><trkpt lat="45.3623477" lon="10.6694955"><ele>130.0</ele><time>2026-04-18T09:42:42.033Z</time></trkpt><trkpt lat="45.3622168" lon="10.6694684"><ele>130.0</ele><time>2026-04-18T09:42:43.032Z</time></trkpt><trkpt lat="45.3621067" lon="10.669446"><ele>130.0</ele><time>2026-04-18T09:42:44.033Z</time></trkpt><trkpt lat="45.3620093" lon="10.6693809"><ele>129.0</ele><time>2026-04-18T09:42:45.033Z</time></trkpt><trkpt lat="45.3618994" lon="10.6693205"><ele>128.0</ele><time>2026-04-18T09:42:46.033Z</time></trkpt><trkpt lat="45.3617858" lon="10.6692689"><ele>127.0</ele><time>2026-04-18T09:42:47.033Z</time></trkpt><trkpt lat="45.3616715" lon="10.669224"><ele>126.0</ele><time>2026-04-18T09:42:48.033Z</time></trkpt><trkpt lat="45.3615548" lon="10.6691753"><ele>126.0</ele><time>2026-04-18T09:42:49.033Z</time></trkpt><trkpt lat="45.3614376" lon="10.6691279"><ele>126.0</ele><time>2026-04-18T09:42:50.033Z</time></trkpt><trkpt lat="45.3613263" lon="10.6690822"><ele>126.0</ele><time>2026-04-18T09:42:51.032Z</time></trkpt><trkpt lat="45.3612292" lon="10.6690151"><ele>126.0</ele><time>2026-04-18T09:42:52.033Z</time></trkpt><trkpt lat="45.3611407" lon="10.668919"><ele>126.0</ele><time>2026-04-18T09:42:53.033Z</time></trkpt><trkpt lat="45.3610601" lon="10.6688174"><ele>126.0</ele><time>2026-04-18T09:42:54.033Z</time></trkpt><trkpt lat="45.3609892" lon="10.6687323"><ele>126.0</ele><time>2026-04-18T09:42:55.033Z</time></trkpt><trkpt lat="45.3609148" lon="10.6686671"><ele>126.0</ele><time>2026-04-18T09:42:56.033Z</time></trkpt><trkpt lat="45.3608536" lon="10.6685903"><ele>126.0</ele><time>2026-04-18T09:42:57.033Z</time></trkpt><trkpt lat="45.3608064" lon="10.6685051"><ele>126.0</ele><time>2026-04-18T09:42:58.033Z</time></trkpt><trkpt lat="45.3607581" lon="10.6684063"><ele>125.0</ele><time>2026-04-18T09:42:59.033Z</time></trkpt><trkpt lat="45.3607203" lon="10.6683183"><ele>124.0</ele><time>2026-04-18T09:43:00.033Z</time></trkpt><trkpt lat="45.3606793" lon="10.6681853"><ele>123.0</ele><time>2026-04-18T09:43:01.033Z</time></trkpt><trkpt lat="45.3606539" lon="10.6680711"><ele>122.0</ele><time>2026-04-18T09:43:02.033Z</time></trkpt><trkpt lat="45.3606301" lon="10.6679444"><ele>121.0</ele><time>2026-04-18T09:43:03.033Z</time></trkpt><trkpt lat="45.3606006" lon="10.667816"><ele>120.0</ele><time>2026-04-18T09:43:04.033Z</time></trkpt><trkpt lat="45.3605804" lon="10.6676869"><ele>119.4</ele><time>2026-04-18T09:43:05.033Z</time></trkpt><trkpt lat="45.3605539" lon="10.667548"><ele>118.8</ele><time>2026-04-18T09:43:06.033Z</time></trkpt><trkpt lat="45.3605393" lon="10.6674027"><ele>118.19999999999999</ele><time>2026-04-18T09:43:07.033Z</time></trkpt><trkpt lat="45.3605417" lon="10.6672395"><ele>117.6</ele><time>2026-04-18T09:43:08.032Z</time></trkpt><trkpt lat="45.3605505" lon="10.6670809"><ele>117.0</ele><time>2026-04-18T09:43:09.033Z</time></trkpt><trkpt lat="45.3605646" lon="10.6669162"><ele>117.0</ele><time>2026-04-18T09:43:10.033Z</time></trkpt><trkpt lat="45.360576" lon="10.6667557"><ele>116.99999999999999</ele><time>2026-04-18T09:43:11.033Z</time></trkpt><trkpt lat="45.3605927" lon="10.6666281"><ele>116.99999999999999</ele><time>2026-04-18T09:43:12.033Z</time></trkpt><trkpt lat="45.3606002" lon="10.6665167"><ele>117.0</ele><time>2026-04-18T09:43:13.033Z</time></trkpt><trkpt lat="45.3605988" lon="10.6664134"><ele>117.0</ele><time>2026-04-18T09:43:14.033Z</time></trkpt><trkpt lat="45.3605525" lon="10.6662768"><ele>116.19999999999999</ele><time>2026-04-18T09:43:16.033Z</time></trkpt><trkpt lat="45.360421" lon="10.6662333"><ele>115.39999999999999</ele><time>2026-04-18T09:43:18.032Z</time></trkpt><trkpt lat="45.3603303" lon="10.6662161"><ele>114.60000000000001</ele><time>2026-04-18T09:43:19.033Z</time></trkpt><trkpt lat="45.360232" lon="10.666205"><ele>113.80000000000001</ele><time>2026-04-18T09:43:20.033Z</time></trkpt><trkpt lat="45.3601378" lon="10.6661942"><ele>113.0</ele><time>2026-04-18T09:43:21.033Z</time></trkpt><trkpt lat="45.3600662" lon="10.6661746"><ele>112.99999999999999</ele><time>2026-04-18T09:43:22.033Z</time></trkpt><trkpt lat="45.3599941" lon="10.6661406"><ele>113.0</ele><time>2026-04-18T09:43:23.032Z</time></trkpt><trkpt lat="45.3599362" lon="10.6660098"><ele>113.0</ele><time>2026-04-18T09:43:25.033Z</time></trkpt><trkpt lat="45.3599301" lon="10.6659065"><ele>113.0</ele><time>2026-04-18T09:43:26.033Z</time></trkpt><trkpt lat="45.3599231" lon="10.6657833"><ele>112.99999999999999</ele><time>2026-04-18T09:43:27.033Z</time></trkpt><trkpt lat="45.3599174" lon="10.6656659"><ele>113.0</ele><time>2026-04-18T09:43:28.033Z</time></trkpt><trkpt lat="45.3599167" lon="10.6655363"><ele>113.4</ele><time>2026-04-18T09:43:29.033Z</time></trkpt><trkpt lat="45.3599146" lon="10.6654237"><ele>113.80000000000001</ele><time>2026-04-18T09:43:30.033Z</time></trkpt><trkpt lat="45.3599134" lon="10.6653198"><ele>114.2</ele><time>2026-04-18T09:43:31.033Z</time></trkpt><trkpt lat="45.3599121" lon="10.6651726"><ele>114.6</ele><time>2026-04-18T09:43:33.033Z</time></trkpt><trkpt lat="45.3598647" lon="10.6650972"><ele>115.0</ele><time>2026-04-18T09:43:34.033Z</time></trkpt><trkpt lat="45.3597469" lon="10.6650355"><ele>117.4</ele><time>2026-04-18T09:43:36.032Z</time></trkpt><trkpt lat="45.3596412" lon="10.6649875"><ele>119.8</ele><time>2026-04-18T09:43:38.032Z</time></trkpt><trkpt lat="45.3595607" lon="10.6649756"><ele>122.19999999999999</ele><time>2026-04-18T09:43:39.033Z</time></trkpt><trkpt lat="45.3594512" lon="10.6649101"><ele>124.6</ele><time>2026-04-18T09:43:41.032Z</time></trkpt><trkpt lat="45.3593686" lon="10.6648251"><ele>127.0</ele><time>2026-04-18T09:43:43.032Z</time></trkpt><trkpt lat="45.3592982" lon="10.6647635"><ele>127.0</ele><time>2026-04-18T09:43:45.033Z</time></trkpt><trkpt lat="45.3592566" lon="10.6646157"><ele>126.99999999999999</ele><time>2026-04-18T09:44:03.033Z</time></trkpt><trkpt lat="45.3592023" lon="10.6645493"><ele>126.99999999999999</ele><time>2026-04-18T09:44:04.033Z</time></trkpt><trkpt lat="45.3591273" lon="10.6644579"><ele>127.0</ele><time>2026-04-18T09:44:05.033Z</time></trkpt><trkpt lat="45.3590578" lon="10.6643747"><ele>127.0</ele><time>2026-04-18T09:44:06.033Z</time></trkpt><trkpt lat="45.3589876" lon="10.6642858"><ele>126.8</ele><time>2026-04-18T09:44:07.033Z</time></trkpt><trkpt lat="45.3589213" lon="10.6642045"><ele>126.6</ele><time>2026-04-18T09:44:08.032Z</time></trkpt><trkpt lat="45.3588233" lon="10.6641143"><ele>126.39999999999999</ele><time>2026-04-18T09:44:10.033Z</time></trkpt><trkpt lat="45.3587663" lon="10.6640231"><ele>126.19999999999999</ele><time>2026-04-18T09:44:12.033Z</time></trkpt><trkpt lat="45.3587974" lon="10.6638903"><ele>126.0</ele><time>2026-04-18T09:44:14.033Z</time></trkpt><trkpt lat="45.3588744" lon="10.6637814"><ele>125.4</ele><time>2026-04-18T09:44:16.033Z</time></trkpt><trkpt lat="45.3588675" lon="10.6636488"><ele>124.8</ele><time>2026-04-18T09:44:18.033Z</time></trkpt><trkpt lat="45.3588267" lon="10.6635717"><ele>124.20000000000002</ele><time>2026-04-18T09:44:19.033Z</time></trkpt><trkpt lat="45.3587783" lon="10.6634817"><ele>123.60000000000001</ele><time>2026-04-18T09:44:20.033Z</time></trkpt><trkpt lat="45.3587117" lon="10.6633674"><ele>123.0</ele><time>2026-04-18T09:44:21.033Z</time></trkpt><trkpt lat="45.3586452" lon="10.6632387"><ele>121.75</ele><time>2026-04-18T09:44:22.033Z</time></trkpt><trkpt lat="45.3585709" lon="10.6630925"><ele>120.5</ele><time>2026-04-18T09:44:23.033Z</time></trkpt><trkpt lat="45.3584976" lon="10.6629395"><ele>119.25</ele><time>2026-04-18T09:44:24.033Z</time></trkpt><trkpt lat="45.3584271" lon="10.6627865"><ele>118.0</ele><time>2026-04-18T09:44:25.033Z</time></trkpt><trkpt lat="45.3583649" lon="10.6626504"><ele>117.60000000000001</ele><time>2026-04-18T09:44:26.033Z</time></trkpt><trkpt lat="45.3583043" lon="10.6625126"><ele>117.20000000000002</ele><time>2026-04-18T09:44:27.033Z</time></trkpt><trkpt lat="45.358265" lon="10.6623877"><ele>116.8</ele><time>2026-04-18T09:44:28.033Z</time></trkpt><trkpt lat="45.3582366" lon="10.6622977"><ele>116.4</ele><time>2026-04-18T09:44:29.032Z</time></trkpt><trkpt lat="45.3582459" lon="10.6621914"><ele>116.0</ele><time>2026-04-18T09:44:31.033Z</time></trkpt><trkpt lat="45.3583376" lon="10.6621298"><ele>116.0</ele><time>2026-04-18T09:44:33.033Z</time></trkpt><trkpt lat="45.358401" lon="10.6620907"><ele>116.0</ele><time>2026-04-18T09:44:34.033Z</time></trkpt><trkpt lat="45.358468" lon="10.6620235"><ele>116.0</ele><time>2026-04-18T09:44:35.033Z</time></trkpt><trkpt lat="45.3585396" lon="10.6619447"><ele>116.0</ele><time>2026-04-18T09:44:36.033Z</time></trkpt><trkpt lat="45.358622" lon="10.6618508"><ele>116.0</ele><time>2026-04-18T09:44:37.033Z</time></trkpt><trkpt lat="45.3587057" lon="10.6617573"><ele>116.0</ele><time>2026-04-18T09:44:38.033Z</time></trkpt><trkpt lat="45.3587818" lon="10.6616678"><ele>116.0</ele><time>2026-04-18T09:44:39.033Z</time></trkpt><trkpt lat="45.3588459" lon="10.6615793"><ele>116.0</ele><time>2026-04-18T09:44:40.033Z</time></trkpt><trkpt lat="45.3588966" lon="10.6614812"><ele>116.0</ele><time>2026-04-18T09:44:41.033Z</time></trkpt><trkpt lat="45.3589422" lon="10.6613669"><ele>116.0</ele><time>2026-04-18T09:44:42.033Z</time></trkpt><trkpt lat="45.3589825" lon="10.6612386"><ele>116.8</ele><time>2026-04-18T09:44:43.032Z</time></trkpt><trkpt lat="45.3590244" lon="10.6610985"><ele>117.6</ele><time>2026-04-18T09:44:44.033Z</time></trkpt><trkpt lat="45.3590742" lon="10.6609591"><ele>118.4</ele><time>2026-04-18T09:44:45.033Z</time></trkpt><trkpt lat="45.3591279" lon="10.6608285"><ele>119.2</ele><time>2026-04-18T09:44:46.033Z</time></trkpt><trkpt lat="45.3591769" lon="10.6607112"><ele>120.0</ele><time>2026-04-18T09:44:47.033Z</time></trkpt><trkpt lat="45.3592156" lon="10.6606107"><ele>120.0</ele><time>2026-04-18T09:44:48.033Z</time></trkpt><trkpt lat="45.359256" lon="10.6604788"><ele>120.0</ele><time>2026-04-18T09:44:50.033Z</time></trkpt><trkpt lat="45.3592097" lon="10.660369"><ele>120.0</ele><time>2026-04-18T09:44:53.033Z</time></trkpt><trkpt lat="45.3591066" lon="10.6603445"><ele>120.0</ele><time>2026-04-18T09:44:55.033Z</time></trkpt><trkpt lat="45.3590405" lon="10.6603199"><ele>120.0</ele><time>2026-04-18T09:44:56.033Z</time></trkpt><trkpt lat="45.3589653" lon="10.6602637"><ele>120.0</ele><time>2026-04-18T09:44:57.033Z</time></trkpt><trkpt lat="45.3588937" lon="10.6601956"><ele>122.0</ele><time>2026-04-18T09:44:58.033Z</time></trkpt><trkpt lat="45.3588217" lon="10.6601083"><ele>124.0</ele><time>2026-04-18T09:44:59.033Z</time></trkpt><trkpt lat="45.3587528" lon="10.6599964"><ele>126.0</ele><time>2026-04-18T09:45:00.032Z</time></trkpt><trkpt lat="45.3586892" lon="10.6598693"><ele>128.0</ele><time>2026-04-18T09:45:01.033Z</time></trkpt><trkpt lat="45.3586329" lon="10.6597388"><ele>130.0</ele><time>2026-04-18T09:45:02.033Z</time></trkpt><trkpt lat="45.3585754" lon="10.6596279"><ele>130.0</ele><time>2026-04-18T09:45:03.033Z</time></trkpt><trkpt lat="45.3585299" lon="10.6595045"><ele>130.0</ele><time>2026-04-18T09:45:04.033Z</time></trkpt><trkpt lat="45.3584908" lon="10.6593835"><ele>130.0</ele><time>2026-04-18T09:45:05.033Z</time></trkpt><trkpt lat="45.3584564" lon="10.6592482"><ele>130.0</ele><time>2026-04-18T09:45:06.033Z</time></trkpt><trkpt lat="45.3584178" lon="10.6591232"><ele>130.0</ele><time>2026-04-18T09:45:07.033Z</time></trkpt><trkpt lat="45.3583741" lon="10.658995"><ele>130.0</ele><time>2026-04-18T09:45:08.033Z</time></trkpt><trkpt lat="45.3583333" lon="10.6588531"><ele>130.0</ele><time>2026-04-18T09:45:09.033Z</time></trkpt><trkpt lat="45.3582954" lon="10.6587471"><ele>130.0</ele><time>2026-04-18T09:45:10.033Z</time></trkpt><trkpt lat="45.3582533" lon="10.6586448"><ele>130.0</ele><time>2026-04-18T09:45:11.033Z</time></trkpt><trkpt lat="45.3581966" lon="10.6585575"><ele>130.0</ele><time>2026-04-18T09:45:12.033Z</time></trkpt><trkpt lat="45.3581316" lon="10.6584819"><ele>130.0</ele><time>2026-04-18T09:45:13.033Z</time></trkpt><trkpt lat="45.3580778" lon="10.6584104"><ele>130.16666666666669</ele><time>2026-04-18T09:45:14.033Z</time></trkpt><trkpt lat="45.3580458" lon="10.6583115"><ele>130.33333333333334</ele><time>2026-04-18T09:45:15.032Z</time></trkpt><trkpt lat="45.3580354" lon="10.658203"><ele>130.5</ele><time>2026-04-18T09:45:16.033Z</time></trkpt><trkpt lat="45.3580383" lon="10.6580807"><ele>130.66666666666666</ele><time>2026-04-18T09:45:17.033Z</time></trkpt><trkpt lat="45.3580448" lon="10.6579579"><ele>130.83333333333331</ele><time>2026-04-18T09:45:18.033Z</time></trkpt><trkpt lat="45.3580472" lon="10.657851"><ele>131.0</ele><time>2026-04-18T09:45:19.033Z</time></trkpt><trkpt lat="45.3580652" lon="10.6577538"><ele>131.16666666666666</ele><time>2026-04-18T09:45:20.033Z</time></trkpt><trkpt lat="45.3581073" lon="10.6576688"><ele>131.33333333333331</ele><time>2026-04-18T09:45:21.033Z</time></trkpt><trkpt lat="45.3581475" lon="10.6575853"><ele>131.5</ele><time>2026-04-18T09:45:22.033Z</time></trkpt><trkpt lat="45.3582196" lon="10.6575036"><ele>131.66666666666666</ele><time>2026-04-18T09:45:23.033Z</time></trkpt><trkpt lat="45.3582852" lon="10.6574175"><ele>131.83333333333334</ele><time>2026-04-18T09:45:24.033Z</time></trkpt><trkpt lat="45.3583531" lon="10.6573374"><ele>132.0</ele><time>2026-04-18T09:45:25.032Z</time></trkpt><trkpt lat="45.3584347" lon="10.6572679"><ele>132.0</ele><time>2026-04-18T09:45:26.033Z</time></trkpt><trkpt lat="45.3585163" lon="10.6572072"><ele>132.0</ele><time>2026-04-18T09:45:27.033Z</time></trkpt><trkpt lat="45.3585978" lon="10.6571735"><ele>132.0</ele><time>2026-04-18T09:45:28.033Z</time></trkpt><trkpt lat="45.3586835" lon="10.657148"><ele>132.0</ele><time>2026-04-18T09:45:29.033Z</time></trkpt><trkpt lat="45.3587443" lon="10.6571104"><ele>132.0</ele><time>2026-04-18T09:45:30.033Z</time></trkpt><trkpt lat="45.3588135" lon="10.6570796"><ele>132.0</ele><time>2026-04-18T09:45:34.033Z</time></trkpt><trkpt lat="45.3588731" lon="10.6571199"><ele>132.66666666666666</ele><time>2026-04-18T09:45:36.033Z</time></trkpt><trkpt lat="45.3588871" lon="10.6572499"><ele>133.33333333333334</ele><time>2026-04-18T09:45:38.033Z</time></trkpt><trkpt lat="45.3589541" lon="10.6573356"><ele>134.0</ele><time>2026-04-18T09:45:41.033Z</time></trkpt><trkpt lat="45.3590369" lon="10.6572949"><ele>134.66666666666669</ele><time>2026-04-18T09:45:43.032Z</time></trkpt><trkpt lat="45.3591083" lon="10.6572483"><ele>135.33333333333334</ele><time>2026-04-18T09:45:45.032Z</time></trkpt><trkpt lat="45.3591401" lon="10.6571353"><ele>136.0</ele><time>2026-04-18T09:45:48.033Z</time></trkpt><trkpt lat="45.3590992" lon="10.6570122"><ele>137.16666666666669</ele><time>2026-04-18T09:45:50.033Z</time></trkpt><trkpt lat="45.3590466" lon="10.6568703"><ele>138.33333333333334</ele><time>2026-04-18T09:45:52.033Z</time></trkpt><trkpt lat="45.3590202" lon="10.6567778"><ele>139.5</ele><time>2026-04-18T09:45:53.033Z</time></trkpt><trkpt lat="45.358986" lon="10.6566864"><ele>140.66666666666666</ele><time>2026-04-18T09:45:54.033Z</time></trkpt><trkpt lat="45.358955" lon="10.6565903"><ele>141.83333333333331</ele><time>2026-04-18T09:45:55.033Z</time></trkpt><trkpt lat="45.3589228" lon="10.656479"><ele>143.0</ele><time>2026-04-18T09:45:56.033Z</time></trkpt><trkpt lat="45.3588831" lon="10.6563699"><ele>140.8</ele><time>2026-04-18T09:45:57.033Z</time></trkpt><trkpt lat="45.3588439" lon="10.6562511"><ele>138.60000000000002</ele><time>2026-04-18T09:45:58.033Z</time></trkpt><trkpt lat="45.3588086" lon="10.6561274"><ele>136.39999999999998</ele><time>2026-04-18T09:45:59.033Z</time></trkpt><trkpt lat="45.3587693" lon="10.6560072"><ele>134.2</ele><time>2026-04-18T09:46:00.033Z</time></trkpt><trkpt lat="45.358735" lon="10.6558916"><ele>132.0</ele><time>2026-04-18T09:46:01.033Z</time></trkpt><trkpt lat="45.3587003" lon="10.6557832"><ele>132.0</ele><time>2026-04-18T09:46:02.033Z</time></trkpt><trkpt lat="45.3586627" lon="10.6556949"><ele>132.0</ele><time>2026-04-18T09:46:03.032Z</time></trkpt><trkpt lat="45.358622" lon="10.655618"><ele>132.0</ele><time>2026-04-18T09:46:04.033Z</time></trkpt><trkpt lat="45.3585753" lon="10.6555125"><ele>132.0</ele><time>2026-04-18T09:46:06.033Z</time></trkpt><trkpt lat="45.3585121" lon="10.6554749"><ele>132.0</ele><time>2026-04-18T09:46:08.033Z</time></trkpt><trkpt lat="45.3584218" lon="10.6554657"><ele>132.0</ele><time>2026-04-18T09:46:10.032Z</time></trkpt><trkpt lat="45.3583265" lon="10.6554073"><ele>132.0</ele><time>2026-04-18T09:46:12.033Z</time></trkpt><trkpt lat="45.3582684" lon="10.6553433"><ele>132.0</ele><time>2026-04-18T09:46:14.033Z</time></trkpt><trkpt lat="45.3582294" lon="10.6552707"><ele>132.0</ele><time>2026-04-18T09:46:18.033Z</time></trkpt><trkpt lat="45.3581788" lon="10.6552164"><ele>132.0</ele><time>2026-04-18T09:46:22.032Z</time></trkpt><trkpt lat="45.358102" lon="10.6551802"><ele>132.0</ele><time>2026-04-18T09:46:26.033Z</time></trkpt><trkpt lat="45.3580235" lon="10.6552156"><ele>132.0</ele><time>2026-04-18T09:46:31.033Z</time></trkpt><trkpt lat="45.3579522" lon="10.6552704"><ele>132.0</ele><time>2026-04-18T09:46:35.033Z</time></trkpt><trkpt lat="45.3578994" lon="10.6552073"><ele>129.83333333333334</ele><time>2026-04-18T09:46:38.033Z</time></trkpt><trkpt lat="45.3578758" lon="10.6550886"><ele>127.66666666666666</ele><time>2026-04-18T09:46:41.033Z</time></trkpt><trkpt lat="45.3578362" lon="10.6549915"><ele>125.5</ele><time>2026-04-18T09:46:57.033Z</time></trkpt><trkpt lat="45.35781" lon="10.6548974"><ele>123.33333333333333</ele><time>2026-04-18T09:47:00.033Z</time></trkpt><trkpt lat="45.3578055" lon="10.654779"><ele>121.16666666666666</ele><time>2026-04-18T09:47:04.033Z</time></trkpt><trkpt lat="45.3577788" lon="10.6546723"><ele>119.0</ele><time>2026-04-18T09:47:07.033Z</time></trkpt><trkpt lat="45.3578175" lon="10.654783"><ele>119.0</ele><time>2026-04-18T09:47:17.032Z</time></trkpt><trkpt lat="45.3578588" lon="10.6548547"><ele>119.0</ele><time>2026-04-18T09:47:19.033Z</time></trkpt><trkpt lat="45.3579048" lon="10.6549233"><ele>119.0</ele><time>2026-04-18T09:47:21.033Z</time></trkpt><trkpt lat="45.3579677" lon="10.6549903"><ele>119.0</ele><time>2026-04-18T09:47:23.033Z</time></trkpt><trkpt lat="45.3580365" lon="10.6550193"><ele>119.0</ele><time>2026-04-18T09:47:26.033Z</time></trkpt><trkpt lat="45.3580837" lon="10.6549421"><ele>119.0</ele><time>2026-04-18T09:47:29.033Z</time></trkpt><trkpt lat="45.3580973" lon="10.654853"><ele>119.0</ele><time>2026-04-18T09:47:32.033Z</time></trkpt><trkpt lat="45.358064" lon="10.6547629"><ele>118.99999999999999</ele><time>2026-04-18T09:47:34.033Z</time></trkpt><trkpt lat="45.3580289" lon="10.6546484"><ele>119.0</ele><time>2026-04-18T09:47:36.033Z</time></trkpt><trkpt lat="45.3580065" lon="10.6545246"><ele>119.0</ele><time>2026-04-18T09:47:38.033Z</time></trkpt><trkpt lat="45.3580022" lon="10.6543991"><ele>119.0</ele><time>2026-04-18T09:47:40.033Z</time></trkpt><trkpt lat="45.3579813" lon="10.6542754"><ele>118.99999999999999</ele><time>2026-04-18T09:47:42.033Z</time></trkpt><trkpt lat="45.357947" lon="10.6541745"><ele>119.0</ele><time>2026-04-18T09:47:45.033Z</time></trkpt><trkpt lat="45.357904" lon="10.654106"><ele>117.99999999999999</ele><time>2026-04-18T09:47:48.033Z</time></trkpt><trkpt lat="45.3578252" lon="10.654049"><ele>117.0</ele><time>2026-04-18T09:47:51.033Z</time></trkpt><trkpt lat="45.3577478" lon="10.6539983"><ele>116.0</ele><time>2026-04-18T09:47:53.033Z</time></trkpt><trkpt lat="45.3576849" lon="10.6539713"><ele>115.0</ele><time>2026-04-18T09:47:55.033Z</time></trkpt><trkpt lat="45.3576476" lon="10.6538764"><ele>113.99999999999999</ele><time>2026-04-18T09:48:00.033Z</time></trkpt><trkpt lat="45.3576058" lon="10.6537923"><ele>113.0</ele><time>2026-04-18T09:48:02.033Z</time></trkpt><trkpt lat="45.3576105" lon="10.6536355"><ele>111.99999999999999</ele><time>2026-04-18T09:48:04.033Z</time></trkpt><trkpt lat="45.3576358" lon="10.6534876"><ele>111.0</ele><time>2026-04-18T09:48:06.033Z</time></trkpt><trkpt lat="45.3576341" lon="10.6533903"><ele>110.0</ele><time>2026-04-18T09:48:07.032Z</time></trkpt><trkpt lat="45.3576301" lon="10.6532114"><ele>109.0</ele><time>2026-04-18T09:48:09.033Z</time></trkpt><trkpt lat="45.3576256" lon="10.6531027"><ele>107.99999999999999</ele><time>2026-04-18T09:48:10.033Z</time></trkpt><trkpt lat="45.3576259" lon="10.6530011"><ele>107.0</ele><time>2026-04-18T09:48:11.033Z</time></trkpt><trkpt lat="45.3576429" lon="10.6529126"><ele>106.99999999999999</ele><time>2026-04-18T09:48:12.033Z</time></trkpt><trkpt lat="45.3576661" lon="10.6528244"><ele>107.0</ele><time>2026-04-18T09:48:13.033Z</time></trkpt><trkpt lat="45.3577052" lon="10.6527379"><ele>107.0</ele><time>2026-04-18T09:48:14.032Z</time></trkpt><trkpt lat="45.3577326" lon="10.6526491"><ele>107.0</ele><time>2026-04-18T09:48:15.033Z</time></trkpt><trkpt lat="45.3578037" lon="10.6524812"><ele>106.99999999999999</ele><time>2026-04-18T09:48:17.033Z</time></trkpt><trkpt lat="45.3578274" lon="10.6523953"><ele>107.0</ele><time>2026-04-18T09:48:18.033Z</time></trkpt><trkpt lat="45.3578917" lon="10.652278"><ele>107.33333333333333</ele><time>2026-04-18T09:48:20.033Z</time></trkpt><trkpt lat="45.3579096" lon="10.6521566"><ele>107.66666666666666</ele><time>2026-04-18T09:48:22.033Z</time></trkpt><trkpt lat="45.3579049" lon="10.6519688"><ele>108.0</ele><time>2026-04-18T09:48:24.033Z</time></trkpt><trkpt lat="45.3578948" lon="10.6518709"><ele>108.33333333333334</ele><time>2026-04-18T09:48:25.033Z</time></trkpt><trkpt lat="45.357879" lon="10.6517771"><ele>108.66666666666667</ele><time>2026-04-18T09:48:26.033Z</time></trkpt><trkpt lat="45.3578602" lon="10.6516741"><ele>109.0</ele><time>2026-04-18T09:48:27.033Z</time></trkpt><trkpt lat="45.3578224" lon="10.6514787"><ele>109.83333333333334</ele><time>2026-04-18T09:48:29.033Z</time></trkpt><trkpt lat="45.3578106" lon="10.6513844"><ele>110.66666666666667</ele><time>2026-04-18T09:48:30.033Z</time></trkpt><trkpt lat="45.3577794" lon="10.6512696"><ele>111.5</ele><time>2026-04-18T09:48:32.033Z</time></trkpt><trkpt lat="45.3578324" lon="10.651221"><ele>112.33333333333334</ele><time>2026-04-18T09:48:37.033Z</time></trkpt><trkpt lat="45.3578347" lon="10.6513147"><ele>113.16666666666667</ele><time>2026-04-18T09:48:40.033Z</time></trkpt><trkpt lat="45.3578282" lon="10.6514396"><ele>114.0</ele><time>2026-04-18T09:48:42.033Z</time></trkpt><trkpt lat="45.3578567" lon="10.6515989"><ele>114.0</ele><time>2026-04-18T09:48:44.033Z</time></trkpt><trkpt lat="45.3578814" lon="10.6516922"><ele>113.99999999999999</ele><time>2026-04-18T09:48:45.033Z</time></trkpt><trkpt lat="45.3579053" lon="10.6517885"><ele>114.0</ele><time>2026-04-18T09:48:46.033Z</time></trkpt><trkpt lat="45.3579271" lon="10.6518848"><ele>114.0</ele><time>2026-04-18T09:48:47.033Z</time></trkpt><trkpt lat="45.357945" lon="10.6519876"><ele>113.99999999999999</ele><time>2026-04-18T09:48:48.033Z</time></trkpt><trkpt lat="45.3579567" lon="10.6520851"><ele>114.0</ele><time>2026-04-18T09:48:49.033Z</time></trkpt><trkpt lat="45.3579636" lon="10.6521816"><ele>114.0</ele><time>2026-04-18T09:48:50.032Z</time></trkpt><trkpt lat="45.3579173" lon="10.6523287"><ele>113.16666666666667</ele><time>2026-04-18T09:48:52.033Z</time></trkpt><trkpt lat="45.3578748" lon="10.6524215"><ele>112.33333333333334</ele><time>2026-04-18T09:48:54.033Z</time></trkpt><trkpt lat="45.3578248" lon="10.6525312"><ele>111.5</ele><time>2026-04-18T09:48:56.033Z</time></trkpt><trkpt lat="45.3577765" lon="10.6526143"><ele>110.66666666666667</ele><time>2026-04-18T09:48:58.033Z</time></trkpt><trkpt lat="45.3577135" lon="10.6526576"><ele>109.83333333333334</ele><time>2026-04-18T09:49:02.033Z</time></trkpt><trkpt lat="45.3577094" lon="10.6525626"><ele>109.0</ele><time>2026-04-18T09:49:18.033Z</time></trkpt><trkpt lat="45.3577321" lon="10.6524717"><ele>109.00000000000001</ele><time>2026-04-18T09:49:21.033Z</time></trkpt><trkpt lat="45.3577513" lon="10.652351"><ele>109.0</ele><time>2026-04-18T09:49:23.033Z</time></trkpt><trkpt lat="45.3577314" lon="10.6522154"><ele>109.0</ele><time>2026-04-18T09:49:25.033Z</time></trkpt><trkpt lat="45.3576872" lon="10.6521155"><ele>109.0</ele><time>2026-04-18T09:49:27.033Z</time></trkpt><trkpt lat="45.3576199" lon="10.652001"><ele>109.00000000000001</ele><time>2026-04-18T09:49:29.033Z</time></trkpt><trkpt lat="45.3576097" lon="10.651898"><ele>109.0</ele><time>2026-04-18T09:49:31.033Z</time></trkpt><trkpt lat="45.3576148" lon="10.6517932"><ele>110.0</ele><time>2026-04-18T09:49:33.033Z</time></trkpt><trkpt lat="45.3575988" lon="10.6516449"><ele>111.0</ele><time>2026-04-18T09:49:36.033Z</time></trkpt><trkpt lat="45.3575916" lon="10.6515131"><ele>112.0</ele><time>2026-04-18T09:49:38.033Z</time></trkpt><trkpt lat="45.3575724" lon="10.6513632"><ele>113.0</ele><time>2026-04-18T09:49:40.033Z</time></trkpt><trkpt lat="45.3575403" lon="10.6512168"><ele>114.0</ele><time>2026-04-18T09:49:42.033Z</time></trkpt><trkpt lat="45.3575209" lon="10.6511006"><ele>114.66666666666667</ele><time>2026-04-18T09:49:44.033Z</time></trkpt><trkpt lat="45.3574878" lon="10.6509976"><ele>115.33333333333334</ele><time>2026-04-18T09:49:46.033Z</time></trkpt><trkpt lat="45.3574496" lon="10.650906"><ele>116.0</ele><time>2026-04-18T09:49:48.033Z</time></trkpt><trkpt lat="45.3574143" lon="10.6508014"><ele>116.66666666666667</ele><time>2026-04-18T09:49:50.033Z</time></trkpt><trkpt lat="45.3573729" lon="10.6506895"><ele>117.33333333333334</ele><time>2026-04-18T09:49:52.033Z</time></trkpt><trkpt lat="45.3573427" lon="10.6505584"><ele>118.0</ele><time>2026-04-18T09:49:55.033Z</time></trkpt><trkpt lat="45.3573214" lon="10.6504686"><ele>118.00000000000001</ele><time>2026-04-18T09:49:57.033Z</time></trkpt><trkpt lat="45.357315" lon="10.6503437"><ele>118.0</ele><time>2026-04-18T09:49:59.033Z</time></trkpt><trkpt lat="45.3572884" lon="10.6502399"><ele>118.0</ele><time>2026-04-18T09:50:02.033Z</time></trkpt><trkpt lat="45.3572423" lon="10.6501649"><ele>118.0</ele><time>2026-04-18T09:50:05.033Z</time></trkpt><trkpt lat="45.357198" lon="10.6500527"><ele>118.00000000000001</ele><time>2026-04-18T09:50:08.033Z</time></trkpt><trkpt lat="45.3571462" lon="10.6499807"><ele>118.0</ele><time>2026-04-18T09:50:13.033Z</time></trkpt><trkpt lat="45.357095" lon="10.6498879"><ele>117.60000000000001</ele><time>2026-04-18T09:50:18.033Z</time></trkpt><trkpt lat="45.3570498" lon="10.6498082"><ele>117.20000000000002</ele><time>2026-04-18T09:50:21.033Z</time></trkpt><trkpt lat="45.3569838" lon="10.6498834"><ele>116.8</ele><time>2026-04-18T09:50:24.033Z</time></trkpt><trkpt lat="45.3569445" lon="10.6500373"><ele>116.4</ele><time>2026-04-18T09:50:26.033Z</time></trkpt><trkpt lat="45.3569194" lon="10.6501887"><ele>116.0</ele><time>2026-04-18T09:50:28.033Z</time></trkpt><trkpt lat="45.356878" lon="10.6502961"><ele>115.16666666666666</ele><time>2026-04-18T09:50:30.033Z</time></trkpt><trkpt lat="45.3568162" lon="10.6503572"><ele>114.33333333333333</ele><time>2026-04-18T09:50:32.033Z</time></trkpt><trkpt lat="45.3567122" lon="10.6504329"><ele>113.5</ele><time>2026-04-18T09:50:34.033Z</time></trkpt><trkpt lat="45.356653" lon="10.6504809"><ele>112.66666666666666</ele><time>2026-04-18T09:50:35.033Z</time></trkpt><trkpt lat="45.3565913" lon="10.6505453"><ele>111.83333333333333</ele><time>2026-04-18T09:50:36.033Z</time></trkpt><trkpt lat="45.3565326" lon="10.6506263"><ele>111.0</ele><time>2026-04-18T09:50:37.033Z</time></trkpt><trkpt lat="45.3564677" lon="10.6507143"><ele>111.0</ele><time>2026-04-18T09:50:38.033Z</time></trkpt><trkpt lat="45.3564058" lon="10.6508075"><ele>111.0</ele><time>2026-04-18T09:50:39.033Z</time></trkpt><trkpt lat="45.3563495" lon="10.6509103"><ele>111.0</ele><time>2026-04-18T09:50:40.033Z</time></trkpt><trkpt lat="45.3562941" lon="10.6509998"><ele>111.0</ele><time>2026-04-18T09:50:41.033Z</time></trkpt><trkpt lat="45.3562428" lon="10.6510968"><ele>111.0</ele><time>2026-04-18T09:50:42.033Z</time></trkpt><trkpt lat="45.3562001" lon="10.6511971"><ele>111.0</ele><time>2026-04-18T09:50:43.033Z</time></trkpt><trkpt lat="45.3561546" lon="10.6512747"><ele>109.66666666666667</ele><time>2026-04-18T09:50:44.033Z</time></trkpt><trkpt lat="45.3561034" lon="10.6513513"><ele>108.33333333333334</ele><time>2026-04-18T09:50:45.033Z</time></trkpt><trkpt lat="45.3559944" lon="10.6514401"><ele>107.0</ele><time>2026-04-18T09:50:47.033Z</time></trkpt><trkpt lat="45.3559256" lon="10.6514336"><ele>105.66666666666667</ele><time>2026-04-18T09:50:48.033Z</time></trkpt><trkpt lat="45.3558498" lon="10.6514083"><ele>104.33333333333334</ele><time>2026-04-18T09:50:49.033Z</time></trkpt><trkpt lat="45.355776" lon="10.6513757"><ele>103.0</ele><time>2026-04-18T09:50:50.033Z</time></trkpt><trkpt lat="45.3557046" lon="10.6513479"><ele>103.0</ele><time>2026-04-18T09:50:51.033Z</time></trkpt><trkpt lat="45.3556384" lon="10.651325"><ele>103.0</ele><time>2026-04-18T09:50:52.033Z</time></trkpt><trkpt lat="45.3555766" lon="10.6513065"><ele>103.0</ele><time>2026-04-18T09:50:53.033Z</time></trkpt><trkpt lat="45.3554718" lon="10.6513137"><ele>103.0</ele><time>2026-04-18T09:50:55.033Z</time></trkpt><trkpt lat="45.3553747" lon="10.6513963"><ele>103.0</ele><time>2026-04-18T09:50:57.033Z</time></trkpt><trkpt lat="45.3552723" lon="10.6515046"><ele>102.80000000000001</ele><time>2026-04-18T09:50:59.033Z</time></trkpt><trkpt lat="45.3551962" lon="10.6516095"><ele>102.6</ele><time>2026-04-18T09:51:01.032Z</time></trkpt><trkpt lat="45.3551438" lon="10.6517157"><ele>102.4</ele><time>2026-04-18T09:51:03.033Z</time></trkpt><trkpt lat="45.355089" lon="10.651836"><ele>102.19999999999999</ele><time>2026-04-18T09:51:05.033Z</time></trkpt><trkpt lat="45.355014" lon="10.6519239"><ele>102.0</ele><time>2026-04-18T09:51:07.033Z</time></trkpt><trkpt lat="45.354912" lon="10.6519215"><ele>102.0</ele><time>2026-04-18T09:51:09.033Z</time></trkpt><trkpt lat="45.3548109" lon="10.6518781"><ele>102.0</ele><time>2026-04-18T09:51:11.033Z</time></trkpt><trkpt lat="45.3546991" lon="10.6518579"><ele>102.0</ele><time>2026-04-18T09:51:13.033Z</time></trkpt><trkpt lat="45.3546103" lon="10.6519018"><ele>102.0</ele><time>2026-04-18T09:51:15.033Z</time></trkpt><trkpt lat="45.3545415" lon="10.6520238"><ele>102.0</ele><time>2026-04-18T09:51:17.033Z</time></trkpt><trkpt lat="45.3544549" lon="10.6521667"><ele>101.66666666666667</ele><time>2026-04-18T09:51:19.032Z</time></trkpt><trkpt lat="45.3544025" lon="10.6522518"><ele>101.33333333333334</ele><time>2026-04-18T09:51:20.033Z</time></trkpt><trkpt lat="45.3543513" lon="10.652346"><ele>101.0</ele><time>2026-04-18T09:51:21.033Z</time></trkpt><trkpt lat="45.3542956" lon="10.6524471"><ele>100.66666666666667</ele><time>2026-04-18T09:51:22.033Z</time></trkpt><trkpt lat="45.3542394" lon="10.6525581"><ele>100.33333333333334</ele><time>2026-04-18T09:51:23.033Z</time></trkpt><trkpt lat="45.354191" lon="10.6526597"><ele>100.0</ele><time>2026-04-18T09:51:24.033Z</time></trkpt><trkpt lat="45.3541501" lon="10.6527383"><ele>100.00000000000001</ele><time>2026-04-18T09:51:25.033Z</time></trkpt><trkpt lat="45.3540958" lon="10.6527847"><ele>100.0</ele><time>2026-04-18T09:51:26.033Z</time></trkpt><trkpt lat="45.354033" lon="10.6528038"><ele>100.0</ele><time>2026-04-18T09:51:27.033Z</time></trkpt><trkpt lat="45.3539534" lon="10.6528021"><ele>100.0</ele><time>2026-04-18T09:51:28.033Z</time></trkpt><trkpt lat="45.3538597" lon="10.6527802"><ele>100.00000000000001</ele><time>2026-04-18T09:51:29.033Z</time></trkpt><trkpt lat="45.3537702" lon="10.6527446"><ele>100.0</ele><time>2026-04-18T09:51:30.033Z</time></trkpt><trkpt lat="45.3536723" lon="10.6527136"><ele>100.00000000000001</ele><time>2026-04-18T09:51:31.033Z</time></trkpt><trkpt lat="45.3535779" lon="10.6526818"><ele>100.0</ele><time>2026-04-18T09:51:32.032Z</time></trkpt><trkpt lat="45.3535005" lon="10.6526731"><ele>100.0</ele><time>2026-04-18T09:51:33.033Z</time></trkpt><trkpt lat="45.3534314" lon="10.6526637"><ele>100.0</ele><time>2026-04-18T09:51:34.033Z</time></trkpt><trkpt lat="45.3533682" lon="10.6526642"><ele>100.00000000000001</ele><time>2026-04-18T09:51:35.033Z</time></trkpt><trkpt lat="45.3532908" lon="10.6527351"><ele>100.0</ele><time>2026-04-18T09:51:37.032Z</time></trkpt><trkpt lat="45.3532928" lon="10.6528721"><ele>99.6</ele><time>2026-04-18T09:51:39.033Z</time></trkpt><trkpt lat="45.3532939" lon="10.6529726"><ele>99.2</ele><time>2026-04-18T09:51:40.033Z</time></trkpt><trkpt lat="45.3532926" lon="10.6530897"><ele>98.80000000000001</ele><time>2026-04-18T09:51:41.033Z</time></trkpt><trkpt lat="45.3532942" lon="10.6532234"><ele>98.4</ele><time>2026-04-18T09:51:42.032Z</time></trkpt><trkpt lat="45.3532848" lon="10.653376"><ele>98.0</ele><time>2026-04-18T09:51:43.033Z</time></trkpt><trkpt lat="45.3532724" lon="10.6535277"><ele>98.2</ele><time>2026-04-18T09:51:44.033Z</time></trkpt><trkpt lat="45.3532674" lon="10.6536688"><ele>98.4</ele><time>2026-04-18T09:51:45.033Z</time></trkpt><trkpt lat="45.3532626" lon="10.6537928"><ele>98.60000000000001</ele><time>2026-04-18T09:51:46.033Z</time></trkpt><trkpt lat="45.3532561" lon="10.6538841"><ele>98.80000000000001</ele><time>2026-04-18T09:51:47.033Z</time></trkpt><trkpt lat="45.3532118" lon="10.6540002"><ele>99.0</ele><time>2026-04-18T09:51:49.033Z</time></trkpt><trkpt lat="45.3530929" lon="10.6540504"><ele>99.0</ele><time>2026-04-18T09:51:51.032Z</time></trkpt><trkpt lat="45.3530157" lon="10.6540543"><ele>99.0</ele><time>2026-04-18T09:51:52.033Z</time></trkpt><trkpt lat="45.3529309" lon="10.6540665"><ele>99.0</ele><time>2026-04-18T09:51:53.033Z</time></trkpt><trkpt lat="45.3528373" lon="10.6540673"><ele>99.0</ele><time>2026-04-18T09:51:54.033Z</time></trkpt><trkpt lat="45.3527303" lon="10.6540695"><ele>99.0</ele><time>2026-04-18T09:51:55.033Z</time></trkpt><trkpt lat="45.3526246" lon="10.6540719"><ele>99.0</ele><time>2026-04-18T09:51:56.033Z</time></trkpt><trkpt lat="45.3525154" lon="10.6540726"><ele>99.0</ele><time>2026-04-18T09:51:57.033Z</time></trkpt><trkpt lat="45.3524098" lon="10.6540683"><ele>99.0</ele><time>2026-04-18T09:51:58.033Z</time></trkpt><trkpt lat="45.3523006" lon="10.6540598"><ele>99.0</ele><time>2026-04-18T09:51:59.033Z</time></trkpt><trkpt lat="45.3521979" lon="10.6540428"><ele>99.0</ele><time>2026-04-18T09:52:00.033Z</time></trkpt><trkpt lat="45.3520877" lon="10.6540339"><ele>99.4</ele><time>2026-04-18T09:52:01.033Z</time></trkpt><trkpt lat="45.3519833" lon="10.6540493"><ele>99.80000000000001</ele><time>2026-04-18T09:52:02.033Z</time></trkpt><trkpt lat="45.3518769" lon="10.6540711"><ele>100.19999999999999</ele><time>2026-04-18T09:52:03.033Z</time></trkpt><trkpt lat="45.3517653" lon="10.6540905"><ele>100.6</ele><time>2026-04-18T09:52:04.033Z</time></trkpt><trkpt lat="45.3516555" lon="10.6541195"><ele>101.0</ele><time>2026-04-18T09:52:05.033Z</time></trkpt><trkpt lat="45.3515542" lon="10.654146"><ele>100.99999999999999</ele><time>2026-04-18T09:52:06.033Z</time></trkpt><trkpt lat="45.3514796" lon="10.654183"><ele>101.0</ele><time>2026-04-18T09:52:07.033Z</time></trkpt><trkpt lat="45.3514034" lon="10.6542496"><ele>101.0</ele><time>2026-04-18T09:52:09.032Z</time></trkpt><trkpt lat="45.3513795" lon="10.6543919"><ele>101.0</ele><time>2026-04-18T09:52:11.033Z</time></trkpt><trkpt lat="45.3513792" lon="10.6544984"><ele>100.99999999999999</ele><time>2026-04-18T09:52:12.033Z</time></trkpt><trkpt lat="45.3513689" lon="10.6546109"><ele>101.0</ele><time>2026-04-18T09:52:13.033Z</time></trkpt><trkpt lat="45.3513598" lon="10.6547304"><ele>100.66666666666666</ele><time>2026-04-18T09:52:14.033Z</time></trkpt><trkpt lat="45.3513504" lon="10.6548353"><ele>100.33333333333333</ele><time>2026-04-18T09:52:15.033Z</time></trkpt><trkpt lat="45.3513365" lon="10.6549483"><ele>100.0</ele><time>2026-04-18T09:52:16.033Z</time></trkpt><trkpt lat="45.3513147" lon="10.6550525"><ele>99.66666666666666</ele><time>2026-04-18T09:52:17.033Z</time></trkpt><trkpt lat="45.3512877" lon="10.6551914"><ele>99.33333333333333</ele><time>2026-04-18T09:52:18.033Z</time></trkpt><trkpt lat="45.351254" lon="10.6553137"><ele>99.0</ele><time>2026-04-18T09:52:19.033Z</time></trkpt><trkpt lat="45.3512175" lon="10.6554292"><ele>99.0</ele><time>2026-04-18T09:52:20.033Z</time></trkpt><trkpt lat="45.3511865" lon="10.6555507"><ele>99.0</ele><time>2026-04-18T09:52:21.033Z</time></trkpt><trkpt lat="45.3511663" lon="10.6556915"><ele>99.0</ele><time>2026-04-18T09:52:22.033Z</time></trkpt><trkpt lat="45.3511593" lon="10.6558604"><ele>99.0</ele><time>2026-04-18T09:52:23.032Z</time></trkpt><trkpt lat="45.3511482" lon="10.6560201"><ele>99.0</ele><time>2026-04-18T09:52:24.033Z</time></trkpt><trkpt lat="45.351143" lon="10.6561861"><ele>99.0</ele><time>2026-04-18T09:52:25.033Z</time></trkpt><trkpt lat="45.3511423" lon="10.6563447"><ele>99.0</ele><time>2026-04-18T09:52:26.033Z</time></trkpt><trkpt lat="45.3511365" lon="10.6565069"><ele>99.0</ele><time>2026-04-18T09:52:27.032Z</time></trkpt><trkpt lat="45.3511244" lon="10.6566665"><ele>99.0</ele><time>2026-04-18T09:52:28.033Z</time></trkpt><trkpt lat="45.3511072" lon="10.6568302"><ele>99.5</ele><time>2026-04-18T09:52:29.033Z</time></trkpt><trkpt lat="45.3510766" lon="10.6569963"><ele>100.0</ele><time>2026-04-18T09:52:30.033Z</time></trkpt><trkpt lat="45.3510327" lon="10.6571645"><ele>100.5</ele><time>2026-04-18T09:52:31.033Z</time></trkpt><trkpt lat="45.3509751" lon="10.6573226"><ele>101.0</ele><time>2026-04-18T09:52:32.033Z</time></trkpt><trkpt lat="45.3509065" lon="10.6574971"><ele>101.0</ele><time>2026-04-18T09:52:33.033Z</time></trkpt><trkpt lat="45.3508316" lon="10.6576795"><ele>101.0</ele><time>2026-04-18T09:52:34.033Z</time></trkpt><trkpt lat="45.3507538" lon="10.657848"><ele>101.0</ele><time>2026-04-18T09:52:35.033Z</time></trkpt><trkpt lat="45.3506803" lon="10.6580077"><ele>101.0</ele><time>2026-04-18T09:52:36.033Z</time></trkpt><trkpt lat="45.3506077" lon="10.658177"><ele>100.66666666666666</ele><time>2026-04-18T09:52:37.033Z</time></trkpt><trkpt lat="45.3505264" lon="10.6583473"><ele>100.33333333333334</ele><time>2026-04-18T09:52:38.033Z</time></trkpt><trkpt lat="45.3504369" lon="10.6585198"><ele>100.0</ele><time>2026-04-18T09:52:39.033Z</time></trkpt><trkpt lat="45.3503301" lon="10.6586844"><ele>100.0</ele><time>2026-04-18T09:52:40.033Z</time></trkpt><trkpt lat="45.3502199" lon="10.6588424"><ele>100.0</ele><time>2026-04-18T09:52:41.033Z</time></trkpt><trkpt lat="45.3500976" lon="10.6589648"><ele>100.0</ele><time>2026-04-18T09:52:42.033Z</time></trkpt><trkpt lat="45.3499567" lon="10.6590689"><ele>100.0</ele><time>2026-04-18T09:52:43.033Z</time></trkpt><trkpt lat="45.3498003" lon="10.6591797"><ele>100.0</ele><time>2026-04-18T09:52:44.033Z</time></trkpt><trkpt lat="45.3496545" lon="10.6592689"><ele>100.0</ele><time>2026-04-18T09:52:45.032Z</time></trkpt><trkpt lat="45.3495159" lon="10.6593395"><ele>100.0</ele><time>2026-04-18T09:52:46.033Z</time></trkpt><trkpt lat="45.3493864" lon="10.6594108"><ele>100.0</ele><time>2026-04-18T09:52:47.033Z</time></trkpt><trkpt lat="45.3492738" lon="10.6594673"><ele>100.0</ele><time>2026-04-18T09:52:48.033Z</time></trkpt><trkpt lat="45.3491677" lon="10.6595178"><ele>100.0</ele><time>2026-04-18T09:52:49.033Z</time></trkpt><trkpt lat="45.3490769" lon="10.6595633"><ele>100.00000000000001</ele><time>2026-04-18T09:52:50.033Z</time></trkpt><trkpt lat="45.3489886" lon="10.659604"><ele>100.0</ele><time>2026-04-18T09:52:51.033Z</time></trkpt><trkpt lat="45.3489064" lon="10.6596547"><ele>100.0</ele><time>2026-04-18T09:52:52.033Z</time></trkpt><trkpt lat="45.3488442" lon="10.6597104"><ele>100.0</ele><time>2026-04-18T09:52:53.033Z</time></trkpt><trkpt lat="45.3487914" lon="10.6597763"><ele>100.00000000000001</ele><time>2026-04-18T09:52:54.033Z</time></trkpt><trkpt lat="45.348706" lon="10.6598992"><ele>100.0</ele><time>2026-04-18T09:52:56.033Z</time></trkpt><trkpt lat="45.348664" lon="10.6600249"><ele>99.25</ele><time>2026-04-18T09:52:57.033Z</time></trkpt><trkpt lat="45.3486261" lon="10.6601568"><ele>98.5</ele><time>2026-04-18T09:52:58.033Z</time></trkpt><trkpt lat="45.3485695" lon="10.6603032"><ele>97.75</ele><time>2026-04-18T09:52:59.032Z</time></trkpt><trkpt lat="45.3485234" lon="10.66044"><ele>97.0</ele><time>2026-04-18T09:53:00.033Z</time></trkpt><trkpt lat="45.3484605" lon="10.6605945"><ele>97.0</ele><time>2026-04-18T09:53:01.033Z</time></trkpt><trkpt lat="45.3483937" lon="10.6607256"><ele>97.0</ele><time>2026-04-18T09:53:02.033Z</time></trkpt><trkpt lat="45.3483308" lon="10.6608568"><ele>97.0</ele><time>2026-04-18T09:53:03.033Z</time></trkpt><trkpt lat="45.3482726" lon="10.6609631"><ele>97.0</ele><time>2026-04-18T09:53:04.033Z</time></trkpt><trkpt lat="45.348225" lon="10.6610717"><ele>97.0</ele><time>2026-04-18T09:53:05.033Z</time></trkpt><trkpt lat="45.3481875" lon="10.661167"><ele>97.0</ele><time>2026-04-18T09:53:06.033Z</time></trkpt><trkpt lat="45.3481606" lon="10.661292"><ele>97.0</ele><time>2026-04-18T09:53:07.033Z</time></trkpt><trkpt lat="45.3481232" lon="10.6614415"><ele>97.0</ele><time>2026-04-18T09:53:08.033Z</time></trkpt><trkpt lat="45.3480926" lon="10.6615755"><ele>97.0</ele><time>2026-04-18T09:53:09.033Z</time></trkpt><trkpt lat="45.3480509" lon="10.6617524"><ele>97.0</ele><time>2026-04-18T09:53:10.033Z</time></trkpt><trkpt lat="45.3479981" lon="10.6618909"><ele>96.0</ele><time>2026-04-18T09:53:11.033Z</time></trkpt><trkpt lat="45.3479515" lon="10.6620227"><ele>95.0</ele><time>2026-04-18T09:53:12.033Z</time></trkpt><trkpt lat="45.3479039" lon="10.6621701"><ele>94.0</ele><time>2026-04-18T09:53:13.032Z</time></trkpt><trkpt lat="45.3478433" lon="10.6623162"><ele>93.0</ele><time>2026-04-18T09:53:14.033Z</time></trkpt><trkpt lat="45.347783" lon="10.6624577"><ele>93.0</ele><time>2026-04-18T09:53:15.033Z</time></trkpt><trkpt lat="45.34773" lon="10.662583"><ele>93.0</ele><time>2026-04-18T09:53:16.033Z</time></trkpt><trkpt lat="45.3476627" lon="10.6627192"><ele>93.0</ele><time>2026-04-18T09:53:17.032Z</time></trkpt><trkpt lat="45.3475937" lon="10.6628488"><ele>93.0</ele><time>2026-04-18T09:53:18.033Z</time></trkpt><trkpt lat="45.3475176" lon="10.6629799"><ele>93.0</ele><time>2026-04-18T09:53:19.033Z</time></trkpt><trkpt lat="45.3474279" lon="10.6630947"><ele>93.0</ele><time>2026-04-18T09:53:20.032Z</time></trkpt><trkpt lat="45.3473709" lon="10.6631837"><ele>93.0</ele><time>2026-04-18T09:53:21.033Z</time></trkpt><trkpt lat="45.3473095" lon="10.6632792"><ele>93.0</ele><time>2026-04-18T09:53:22.032Z</time></trkpt><trkpt lat="45.3472386" lon="10.6633686"><ele>93.0</ele><time>2026-04-18T09:53:23.033Z</time></trkpt><trkpt lat="45.3471617" lon="10.6634489"><ele>93.0</ele><time>2026-04-18T09:53:24.033Z</time></trkpt><trkpt lat="45.3470832" lon="10.6635326"><ele>93.0</ele><time>2026-04-18T09:53:25.033Z</time></trkpt><trkpt lat="45.3469796" lon="10.6636319"><ele>93.0</ele><time>2026-04-18T09:53:26.033Z</time></trkpt><trkpt lat="45.346886" lon="10.663714"><ele>93.0</ele><time>2026-04-18T09:53:27.033Z</time></trkpt><trkpt lat="45.3467948" lon="10.6638052"><ele>93.0</ele><time>2026-04-18T09:53:28.033Z</time></trkpt><trkpt lat="45.346719" lon="10.6638957"><ele>92.85714285714286</ele><time>2026-04-18T09:53:29.033Z</time></trkpt><trkpt lat="45.3466615" lon="10.6639605"><ele>92.71428571428572</ele><time>2026-04-18T09:53:30.033Z</time></trkpt><trkpt lat="45.3466005" lon="10.664005"><ele>92.57142857142858</ele><time>2026-04-18T09:53:31.033Z</time></trkpt><trkpt lat="45.3465342" lon="10.6640385"><ele>92.42857142857143</ele><time>2026-04-18T09:53:32.033Z</time></trkpt><trkpt lat="45.3464691" lon="10.6640566"><ele>92.28571428571428</ele><time>2026-04-18T09:53:33.033Z</time></trkpt><trkpt lat="45.3463917" lon="10.6640452"><ele>92.14285714285715</ele><time>2026-04-18T09:53:34.033Z</time></trkpt><trkpt lat="45.3463139" lon="10.6640294"><ele>92.0</ele><time>2026-04-18T09:53:35.033Z</time></trkpt><trkpt lat="45.3462349" lon="10.6640014"><ele>92.0</ele><time>2026-04-18T09:53:36.033Z</time></trkpt><trkpt lat="45.3461091" lon="10.6639521"><ele>92.0</ele><time>2026-04-18T09:53:38.033Z</time></trkpt><trkpt lat="45.3460156" lon="10.6639311"><ele>92.0</ele><time>2026-04-18T09:53:39.033Z</time></trkpt><trkpt lat="45.3459203" lon="10.6639106"><ele>92.0</ele><time>2026-04-18T09:53:40.033Z</time></trkpt><trkpt lat="45.3458346" lon="10.6639012"><ele>92.0</ele><time>2026-04-18T09:53:41.033Z</time></trkpt><trkpt lat="45.3457459" lon="10.6638991"><ele>92.0</ele><time>2026-04-18T09:53:42.033Z</time></trkpt><trkpt lat="45.3456477" lon="10.6638828"><ele>92.0</ele><time>2026-04-18T09:53:43.033Z</time></trkpt><trkpt lat="45.3455374" lon="10.6638634"><ele>92.0</ele><time>2026-04-18T09:53:44.033Z</time></trkpt><trkpt lat="45.3454283" lon="10.6638434"><ele>92.0</ele><time>2026-04-18T09:53:45.033Z</time></trkpt><trkpt lat="45.3453234" lon="10.6638199"><ele>92.0</ele><time>2026-04-18T09:53:46.033Z</time></trkpt><trkpt lat="45.3452247" lon="10.6638063"><ele>91.8</ele><time>2026-04-18T09:53:47.033Z</time></trkpt><trkpt lat="45.3451255" lon="10.6638047"><ele>91.6</ele><time>2026-04-18T09:53:48.033Z</time></trkpt><trkpt lat="45.3450259" lon="10.6638052"><ele>91.39999999999999</ele><time>2026-04-18T09:53:49.033Z</time></trkpt><trkpt lat="45.344934" lon="10.6637954"><ele>91.19999999999999</ele><time>2026-04-18T09:53:50.033Z</time></trkpt><trkpt lat="45.3448405" lon="10.6637545"><ele>91.0</ele><time>2026-04-18T09:53:51.033Z</time></trkpt><trkpt lat="45.3447435" lon="10.663721"><ele>90.8</ele><time>2026-04-18T09:53:52.033Z</time></trkpt><trkpt lat="45.344637" lon="10.6636644"><ele>90.6</ele><time>2026-04-18T09:53:53.033Z</time></trkpt><trkpt lat="45.3445322" lon="10.6636039"><ele>90.4</ele><time>2026-04-18T09:53:54.033Z</time></trkpt><trkpt lat="45.344443" lon="10.663572"><ele>90.2</ele><time>2026-04-18T09:53:55.033Z</time></trkpt><trkpt lat="45.3443511" lon="10.663532"><ele>90.0</ele><time>2026-04-18T09:53:56.033Z</time></trkpt><trkpt lat="45.3442629" lon="10.6635091"><ele>90.0</ele><time>2026-04-18T09:53:57.032Z</time></trkpt><trkpt lat="45.3441645" lon="10.6634851"><ele>90.0</ele><time>2026-04-18T09:53:58.033Z</time></trkpt><trkpt lat="45.3440564" lon="10.6634406"><ele>90.0</ele><time>2026-04-18T09:53:59.033Z</time></trkpt><trkpt lat="45.3439382" lon="10.6634054"><ele>90.0</ele><time>2026-04-18T09:54:00.033Z</time></trkpt><trkpt lat="45.3438114" lon="10.6633903"><ele>90.5</ele><time>2026-04-18T09:54:01.033Z</time></trkpt><trkpt lat="45.343696" lon="10.6633566"><ele>91.0</ele><time>2026-04-18T09:54:02.033Z</time></trkpt><trkpt lat="45.3435713" lon="10.6633093"><ele>91.5</ele><time>2026-04-18T09:54:03.033Z</time></trkpt><trkpt lat="45.3434502" lon="10.6632669"><ele>92.0</ele><time>2026-04-18T09:54:04.033Z</time></trkpt><trkpt lat="45.343338" lon="10.663218"><ele>92.0</ele><time>2026-04-18T09:54:05.033Z</time></trkpt><trkpt lat="45.3432367" lon="10.6631691"><ele>92.0</ele><time>2026-04-18T09:54:06.033Z</time></trkpt><trkpt lat="45.3431472" lon="10.6631288"><ele>92.0</ele><time>2026-04-18T09:54:07.033Z</time></trkpt><trkpt lat="45.343062" lon="10.6631119"><ele>92.0</ele><time>2026-04-18T09:54:08.033Z</time></trkpt><trkpt lat="45.3429864" lon="10.6631004"><ele>92.0</ele><time>2026-04-18T09:54:09.033Z</time></trkpt><trkpt lat="45.3429211" lon="10.6631155"><ele>92.0</ele><time>2026-04-18T09:54:10.033Z</time></trkpt><trkpt lat="45.3428522" lon="10.6631491"><ele>93.16666666666667</ele><time>2026-04-18T09:54:11.033Z</time></trkpt><trkpt lat="45.3427751" lon="10.6631977"><ele>94.33333333333334</ele><time>2026-04-18T09:54:12.033Z</time></trkpt><trkpt lat="45.3426971" lon="10.6632457"><ele>95.5</ele><time>2026-04-18T09:54:13.032Z</time></trkpt><trkpt lat="45.342611" lon="10.6632626"><ele>96.66666666666667</ele><time>2026-04-18T09:54:14.033Z</time></trkpt><trkpt lat="45.3425292" lon="10.6632855"><ele>97.83333333333333</ele><time>2026-04-18T09:54:15.033Z</time></trkpt><trkpt lat="45.3424478" lon="10.6633102"><ele>99.0</ele><time>2026-04-18T09:54:16.033Z</time></trkpt><trkpt lat="45.3423624" lon="10.6633231"><ele>99.0</ele><time>2026-04-18T09:54:17.033Z</time></trkpt><trkpt lat="45.3422788" lon="10.66333"><ele>99.0</ele><time>2026-04-18T09:54:18.033Z</time></trkpt><trkpt lat="45.3421966" lon="10.6633559"><ele>99.0</ele><time>2026-04-18T09:54:19.033Z</time></trkpt><trkpt lat="45.3421023" lon="10.6633994"><ele>99.0</ele><time>2026-04-18T09:54:20.033Z</time></trkpt><trkpt lat="45.3419986" lon="10.6634556"><ele>99.0</ele><time>2026-04-18T09:54:21.033Z</time></trkpt><trkpt lat="45.3418928" lon="10.66352"><ele>98.80000000000001</ele><time>2026-04-18T09:54:22.033Z</time></trkpt><trkpt lat="45.3417948" lon="10.6635845"><ele>98.60000000000001</ele><time>2026-04-18T09:54:23.033Z</time></trkpt><trkpt lat="45.3417016" lon="10.6636193"><ele>98.4</ele><time>2026-04-18T09:54:24.033Z</time></trkpt><trkpt lat="45.3416059" lon="10.6636447"><ele>98.2</ele><time>2026-04-18T09:54:25.033Z</time></trkpt><trkpt lat="45.341506" lon="10.6636672"><ele>98.0</ele><time>2026-04-18T09:54:26.033Z</time></trkpt><trkpt lat="45.3413786" lon="10.6636898"><ele>97.5</ele><time>2026-04-18T09:54:27.033Z</time></trkpt><trkpt lat="45.3412555" lon="10.6637051"><ele>97.0</ele><time>2026-04-18T09:54:28.033Z</time></trkpt><trkpt lat="45.3411332" lon="10.6637393"><ele>96.5</ele><time>2026-04-18T09:54:29.033Z</time></trkpt><trkpt lat="45.3410179" lon="10.6637851"><ele>96.0</ele><time>2026-04-18T09:54:30.033Z</time></trkpt><trkpt lat="45.3409053" lon="10.6638402"><ele>96.0</ele><time>2026-04-18T09:54:31.033Z</time></trkpt><trkpt lat="45.3407906" lon="10.6639054"><ele>96.0</ele><time>2026-04-18T09:54:32.033Z</time></trkpt><trkpt lat="45.3406711" lon="10.6639957"><ele>96.0</ele><time>2026-04-18T09:54:33.033Z</time></trkpt><trkpt lat="45.3405306" lon="10.6640863"><ele>96.0</ele><time>2026-04-18T09:54:34.033Z</time></trkpt><trkpt lat="45.340385" lon="10.6641649"><ele>95.75</ele><time>2026-04-18T09:54:35.033Z</time></trkpt><trkpt lat="45.3402373" lon="10.6642244"><ele>95.5</ele><time>2026-04-18T09:54:36.033Z</time></trkpt><trkpt lat="45.3400959" lon="10.6642806"><ele>95.25</ele><time>2026-04-18T09:54:37.033Z</time></trkpt><trkpt lat="45.3399598" lon="10.6643266"><ele>95.0</ele><time>2026-04-18T09:54:38.032Z</time></trkpt><trkpt lat="45.3398344" lon="10.664373"><ele>95.0</ele><time>2026-04-18T09:54:39.032Z</time></trkpt><trkpt lat="45.3397223" lon="10.6644127"><ele>95.0</ele><time>2026-04-18T09:54:40.033Z</time></trkpt><trkpt lat="45.339626" lon="10.6644511"><ele>95.0</ele><time>2026-04-18T09:54:41.033Z</time></trkpt><trkpt lat="45.3395348" lon="10.6644842"><ele>95.0</ele><time>2026-04-18T09:54:42.032Z</time></trkpt><trkpt lat="45.3394548" lon="10.6645138"><ele>95.0</ele><time>2026-04-18T09:54:44.033Z</time></trkpt><trkpt lat="45.3393547" lon="10.6645326"><ele>94.85714285714286</ele><time>2026-04-18T09:56:54.032Z</time></trkpt><trkpt lat="45.3392516" lon="10.6645096"><ele>94.71428571428572</ele><time>2026-04-18T09:56:56.033Z</time></trkpt><trkpt lat="45.3391863" lon="10.664504"><ele>94.57142857142857</ele><time>2026-04-18T09:56:57.033Z</time></trkpt><trkpt lat="45.3391189" lon="10.6644862"><ele>94.42857142857143</ele><time>2026-04-18T09:56:58.033Z</time></trkpt><trkpt lat="45.3390533" lon="10.6644686"><ele>94.28571428571428</ele><time>2026-04-18T09:56:59.033Z</time></trkpt><trkpt lat="45.3389857" lon="10.6644469"><ele>94.14285714285714</ele><time>2026-04-18T09:57:00.033Z</time></trkpt><trkpt lat="45.3389288" lon="10.6643958"><ele>94.0</ele><time>2026-04-18T09:57:01.032Z</time></trkpt><trkpt lat="45.3388804" lon="10.6643304"><ele>93.6</ele><time>2026-04-18T09:57:02.033Z</time></trkpt><trkpt lat="45.3388462" lon="10.6642364"><ele>93.2</ele><time>2026-04-18T09:57:03.033Z</time></trkpt><trkpt lat="45.3388061" lon="10.6641205"><ele>92.8</ele><time>2026-04-18T09:57:04.033Z</time></trkpt><trkpt lat="45.3387648" lon="10.6639961"><ele>92.39999999999999</ele><time>2026-04-18T09:57:05.033Z</time></trkpt><trkpt lat="45.3387295" lon="10.6638638"><ele>92.0</ele><time>2026-04-18T09:57:06.033Z</time></trkpt><trkpt lat="45.3387022" lon="10.6637166"><ele>92.0</ele><time>2026-04-18T09:57:07.033Z</time></trkpt><trkpt lat="45.3386817" lon="10.6635561"><ele>92.0</ele><time>2026-04-18T09:57:08.033Z</time></trkpt><trkpt lat="45.3386702" lon="10.6633925"><ele>92.0</ele><time>2026-04-18T09:57:09.033Z</time></trkpt><trkpt lat="45.3386659" lon="10.6632177"><ele>92.0</ele><time>2026-04-18T09:57:10.033Z</time></trkpt><trkpt lat="45.3386586" lon="10.6630435"><ele>92.0</ele><time>2026-04-18T09:57:11.033Z</time></trkpt><trkpt lat="45.3386543" lon="10.6628645"><ele>92.0</ele><time>2026-04-18T09:57:12.033Z</time></trkpt><trkpt lat="45.3386471" lon="10.6626904"><ele>92.0</ele><time>2026-04-18T09:57:13.033Z</time></trkpt><trkpt lat="45.3386284" lon="10.6625101"><ele>92.0</ele><time>2026-04-18T09:57:14.033Z</time></trkpt><trkpt lat="45.3386049" lon="10.6623405"><ele>92.0</ele><time>2026-04-18T09:57:15.033Z</time></trkpt><trkpt lat="45.3385744" lon="10.6621647"><ele>92.0</ele><time>2026-04-18T09:57:16.032Z</time></trkpt><trkpt lat="45.3385381" lon="10.6619937"><ele>92.0</ele><time>2026-04-18T09:57:17.033Z</time></trkpt><trkpt lat="45.3384982" lon="10.661824"><ele>92.0</ele><time>2026-04-18T09:57:18.033Z</time></trkpt><trkpt lat="45.3384576" lon="10.6616552"><ele>92.0</ele><time>2026-04-18T09:57:19.033Z</time></trkpt><trkpt lat="45.3384226" lon="10.6614839"><ele>92.0</ele><time>2026-04-18T09:57:20.033Z</time></trkpt><trkpt lat="45.3383814" lon="10.6613162"><ele>92.0</ele><time>2026-04-18T09:57:21.033Z</time></trkpt><trkpt lat="45.3383434" lon="10.661139"><ele>92.0</ele><time>2026-04-18T09:57:22.032Z</time></trkpt><trkpt lat="45.3383081" lon="10.6609552"><ele>92.0</ele><time>2026-04-18T09:57:23.032Z</time></trkpt><trkpt lat="45.3382717" lon="10.6607649"><ele>92.0</ele><time>2026-04-18T09:57:24.033Z</time></trkpt><trkpt lat="45.3382346" lon="10.6605748"><ele>92.0</ele><time>2026-04-18T09:57:25.033Z</time></trkpt><trkpt lat="45.3382041" lon="10.660386"><ele>92.0</ele><time>2026-04-18T09:57:26.033Z</time></trkpt><trkpt lat="45.3381746" lon="10.6601915"><ele>91.75</ele><time>2026-04-18T09:57:27.033Z</time></trkpt><trkpt lat="45.33814" lon="10.6599979"><ele>91.5</ele><time>2026-04-18T09:57:28.033Z</time></trkpt><trkpt lat="45.3381067" lon="10.6597979"><ele>91.25</ele><time>2026-04-18T09:57:29.033Z</time></trkpt><trkpt lat="45.3380789" lon="10.6596039"><ele>91.0</ele><time>2026-04-18T09:57:30.033Z</time></trkpt><trkpt lat="45.3380483" lon="10.6594148"><ele>91.0</ele><time>2026-04-18T09:57:31.033Z</time></trkpt><trkpt lat="45.3380119" lon="10.6592321"><ele>91.0</ele><time>2026-04-18T09:57:32.032Z</time></trkpt><trkpt lat="45.3379819" lon="10.6590497"><ele>91.0</ele><time>2026-04-18T09:57:33.033Z</time></trkpt><trkpt lat="45.3379527" lon="10.6588615"><ele>91.0</ele><time>2026-04-18T09:57:34.033Z</time></trkpt><trkpt lat="45.3379221" lon="10.6586846"><ele>91.0</ele><time>2026-04-18T09:57:35.033Z</time></trkpt><trkpt lat="45.3378914" lon="10.6585086"><ele>91.0</ele><time>2026-04-18T09:57:36.032Z</time></trkpt><trkpt lat="45.3378573" lon="10.6583289"><ele>91.0</ele><time>2026-04-18T09:57:37.033Z</time></trkpt><trkpt lat="45.3378241" lon="10.6581471"><ele>91.0</ele><time>2026-04-18T09:57:38.033Z</time></trkpt><trkpt lat="45.3377975" lon="10.6579649"><ele>91.5</ele><time>2026-04-18T09:57:39.033Z</time></trkpt><trkpt lat="45.3377673" lon="10.6577838"><ele>92.0</ele><time>2026-04-18T09:57:40.032Z</time></trkpt><trkpt lat="45.3377345" lon="10.6576026"><ele>92.5</ele><time>2026-04-18T09:57:41.033Z</time></trkpt><trkpt lat="45.3377057" lon="10.6574103"><ele>93.0</ele><time>2026-04-18T09:57:42.033Z</time></trkpt><trkpt lat="45.3376778" lon="10.6572162"><ele>93.0</ele><time>2026-04-18T09:57:43.033Z</time></trkpt><trkpt lat="45.337646" lon="10.65701"><ele>93.0</ele><time>2026-04-18T09:57:44.033Z</time></trkpt><trkpt lat="45.3376253" lon="10.6568087"><ele>93.0</ele><time>2026-04-18T09:57:45.033Z</time></trkpt><trkpt lat="45.3375994" lon="10.6566034"><ele>93.0</ele><time>2026-04-18T09:57:46.032Z</time></trkpt><trkpt lat="45.3375727" lon="10.656397"><ele>93.25</ele><time>2026-04-18T09:57:47.033Z</time></trkpt><trkpt lat="45.3375514" lon="10.65619"><ele>93.5</ele><time>2026-04-18T09:57:48.033Z</time></trkpt><trkpt lat="45.3375313" lon="10.6559915"><ele>93.75</ele><time>2026-04-18T09:57:49.033Z</time></trkpt><trkpt lat="45.3375133" lon="10.6557867"><ele>94.0</ele><time>2026-04-18T09:57:50.033Z</time></trkpt><trkpt lat="45.3375052" lon="10.6555895"><ele>93.75</ele><time>2026-04-18T09:57:51.033Z</time></trkpt><trkpt lat="45.3375001" lon="10.6553935"><ele>93.5</ele><time>2026-04-18T09:57:52.033Z</time></trkpt><trkpt lat="45.337495" lon="10.6552003"><ele>93.25</ele><time>2026-04-18T09:57:53.033Z</time></trkpt><trkpt lat="45.337489" lon="10.6550098"><ele>93.0</ele><time>2026-04-18T09:57:54.033Z</time></trkpt><trkpt lat="45.3374814" lon="10.6548322"><ele>93.0</ele><time>2026-04-18T09:57:55.033Z</time></trkpt><trkpt lat="45.3374641" lon="10.654669"><ele>93.0</ele><time>2026-04-18T09:57:56.033Z</time></trkpt><trkpt lat="45.3374465" lon="10.6545142"><ele>93.0</ele><time>2026-04-18T09:57:57.033Z</time></trkpt><trkpt lat="45.3374363" lon="10.6543649"><ele>93.0</ele><time>2026-04-18T09:57:58.033Z</time></trkpt><trkpt lat="45.3374332" lon="10.6542261"><ele>93.0</ele><time>2026-04-18T09:57:59.033Z</time></trkpt><trkpt lat="45.3374343" lon="10.6540842"><ele>93.16666666666667</ele><time>2026-04-18T09:58:00.033Z</time></trkpt><trkpt lat="45.3374443" lon="10.6539539"><ele>93.33333333333333</ele><time>2026-04-18T09:58:01.033Z</time></trkpt><trkpt lat="45.3374545" lon="10.6538296"><ele>93.5</ele><time>2026-04-18T09:58:02.033Z</time></trkpt><trkpt lat="45.3374439" lon="10.6536946"><ele>93.66666666666666</ele><time>2026-04-18T09:58:03.033Z</time></trkpt><trkpt lat="45.3374125" lon="10.6535795"><ele>93.83333333333333</ele><time>2026-04-18T09:58:04.033Z</time></trkpt><trkpt lat="45.337364" lon="10.653477"><ele>94.0</ele><time>2026-04-18T09:58:05.033Z</time></trkpt><trkpt lat="45.3373049" lon="10.6533629"><ele>94.0</ele><time>2026-04-18T09:58:06.033Z</time></trkpt><trkpt lat="45.3372413" lon="10.653221"><ele>94.0</ele><time>2026-04-18T09:58:07.033Z</time></trkpt><trkpt lat="45.3371861" lon="10.6530847"><ele>94.0</ele><time>2026-04-18T09:58:08.033Z</time></trkpt><trkpt lat="45.3371336" lon="10.6529473"><ele>94.0</ele><time>2026-04-18T09:58:09.033Z</time></trkpt><trkpt lat="45.337076" lon="10.6528075"><ele>94.25</ele><time>2026-04-18T09:58:10.033Z</time></trkpt><trkpt lat="45.3370251" lon="10.6526591"><ele>94.5</ele><time>2026-04-18T09:58:11.033Z</time></trkpt><trkpt lat="45.3369825" lon="10.652507"><ele>94.75</ele><time>2026-04-18T09:58:12.033Z</time></trkpt><trkpt lat="45.3369377" lon="10.6523461"><ele>95.0</ele><time>2026-04-18T09:58:13.033Z</time></trkpt><trkpt lat="45.3368971" lon="10.6521827"><ele>95.0</ele><time>2026-04-18T09:58:14.033Z</time></trkpt><trkpt lat="45.3368566" lon="10.6520116"><ele>95.0</ele><time>2026-04-18T09:58:15.033Z</time></trkpt><trkpt lat="45.3368172" lon="10.6518393"><ele>95.0</ele><time>2026-04-18T09:58:16.033Z</time></trkpt><trkpt lat="45.3367833" lon="10.651662"><ele>95.0</ele><time>2026-04-18T09:58:17.033Z</time></trkpt><trkpt lat="45.3367478" lon="10.6514886"><ele>94.75</ele><time>2026-04-18T09:58:18.032Z</time></trkpt><trkpt lat="45.3367153" lon="10.6513129"><ele>94.5</ele><time>2026-04-18T09:58:19.033Z</time></trkpt><trkpt lat="45.336687" lon="10.6511402"><ele>94.25</ele><time>2026-04-18T09:58:20.032Z</time></trkpt><trkpt lat="45.3366546" lon="10.6509667"><ele>94.0</ele><time>2026-04-18T09:58:21.033Z</time></trkpt><trkpt lat="45.3366298" lon="10.6507764"><ele>94.0</ele><time>2026-04-18T09:58:22.033Z</time></trkpt><trkpt lat="45.3365964" lon="10.650586"><ele>94.0</ele><time>2026-04-18T09:58:23.032Z</time></trkpt><trkpt lat="45.3365676" lon="10.6503707"><ele>94.0</ele><time>2026-04-18T09:58:24.033Z</time></trkpt><trkpt lat="45.336539" lon="10.6501527"><ele>94.0</ele><time>2026-04-18T09:58:25.032Z</time></trkpt><trkpt lat="45.3364998" lon="10.6499425"><ele>94.66666666666666</ele><time>2026-04-18T09:58:26.033Z</time></trkpt><trkpt lat="45.3364624" lon="10.6497364"><ele>95.33333333333333</ele><time>2026-04-18T09:58:27.033Z</time></trkpt><trkpt lat="45.3364099" lon="10.6495362"><ele>96.0</ele><time>2026-04-18T09:58:28.033Z</time></trkpt><trkpt lat="45.3363428" lon="10.6493456"><ele>97.5</ele><time>2026-04-18T09:58:29.033Z</time></trkpt><trkpt lat="45.3362702" lon="10.6491774"><ele>99.0</ele><time>2026-04-18T09:58:30.033Z</time></trkpt><trkpt lat="45.3361876" lon="10.6490049"><ele>100.5</ele><time>2026-04-18T09:58:31.032Z</time></trkpt><trkpt lat="45.3361026" lon="10.6488485"><ele>102.0</ele><time>2026-04-18T09:58:32.032Z</time></trkpt><trkpt lat="45.3360055" lon="10.6486898"><ele>99.66666666666667</ele><time>2026-04-18T09:58:33.032Z</time></trkpt><trkpt lat="45.3358894" lon="10.6485332"><ele>97.33333333333334</ele><time>2026-04-18T09:58:34.033Z</time></trkpt><trkpt lat="45.3357604" lon="10.6484035"><ele>95.0</ele><time>2026-04-18T09:58:35.033Z</time></trkpt><trkpt lat="45.3356263" lon="10.6482861"><ele>95.5</ele><time>2026-04-18T09:58:36.033Z</time></trkpt><trkpt lat="45.335501" lon="10.6481877"><ele>96.0</ele><time>2026-04-18T09:58:37.033Z</time></trkpt><trkpt lat="45.3353721" lon="10.6480992"><ele>96.5</ele><time>2026-04-18T09:58:38.032Z</time></trkpt><trkpt lat="45.3352345" lon="10.6480294"><ele>97.0</ele><time>2026-04-18T09:58:39.033Z</time></trkpt><trkpt lat="45.3350967" lon="10.6479688"><ele>97.0</ele><time>2026-04-18T09:58:40.033Z</time></trkpt><trkpt lat="45.3349528" lon="10.6479077"><ele>97.0</ele><time>2026-04-18T09:58:41.033Z</time></trkpt><trkpt lat="45.3348037" lon="10.6478471"><ele>97.0</ele><time>2026-04-18T09:58:42.033Z</time></trkpt><trkpt lat="45.3346634" lon="10.6477803"><ele>96.66666666666667</ele><time>2026-04-18T09:58:43.033Z</time></trkpt><trkpt lat="45.3345211" lon="10.6477248"><ele>96.33333333333334</ele><time>2026-04-18T09:58:44.033Z</time></trkpt><trkpt lat="45.3343762" lon="10.6476619"><ele>96.0</ele><time>2026-04-18T09:58:45.032Z</time></trkpt><trkpt lat="45.3342329" lon="10.6475871"><ele>96.0</ele><time>2026-04-18T09:58:46.033Z</time></trkpt><trkpt lat="45.3340983" lon="10.6475069"><ele>96.0</ele><time>2026-04-18T09:58:47.033Z</time></trkpt><trkpt lat="45.3339696" lon="10.6474197"><ele>96.0</ele><time>2026-04-18T09:58:48.033Z</time></trkpt><trkpt lat="45.3338482" lon="10.6473081"><ele>96.0</ele><time>2026-04-18T09:58:49.033Z</time></trkpt><trkpt lat="45.3337268" lon="10.6472025"><ele>95.5</ele><time>2026-04-18T09:58:50.032Z</time></trkpt><trkpt lat="45.333609" lon="10.6470934"><ele>95.0</ele><time>2026-04-18T09:58:51.033Z</time></trkpt><trkpt lat="45.333494" lon="10.6469911"><ele>94.5</ele><time>2026-04-18T09:58:52.033Z</time></trkpt><trkpt lat="45.3333687" lon="10.6468747"><ele>94.0</ele><time>2026-04-18T09:58:53.033Z</time></trkpt><trkpt lat="45.3332505" lon="10.6467628"><ele>94.0</ele><time>2026-04-18T09:58:54.033Z</time></trkpt><trkpt lat="45.3331308" lon="10.6466507"><ele>94.0</ele><time>2026-04-18T09:58:55.033Z</time></trkpt><trkpt lat="45.3330149" lon="10.6465325"><ele>94.0</ele><time>2026-04-18T09:58:56.033Z</time></trkpt><trkpt lat="45.3329046" lon="10.6464114"><ele>94.0</ele><time>2026-04-18T09:58:57.033Z</time></trkpt><trkpt lat="45.3327935" lon="10.646309"><ele>94.5</ele><time>2026-04-18T09:58:58.033Z</time></trkpt><trkpt lat="45.332682" lon="10.6462123"><ele>95.0</ele><time>2026-04-18T09:58:59.033Z</time></trkpt><trkpt lat="45.3325648" lon="10.6461216"><ele>95.5</ele><time>2026-04-18T09:59:00.033Z</time></trkpt><trkpt lat="45.3324466" lon="10.6460361"><ele>96.0</ele><time>2026-04-18T09:59:01.033Z</time></trkpt><trkpt lat="45.3323212" lon="10.6459685"><ele>95.0</ele><time>2026-04-18T09:59:02.033Z</time></trkpt><trkpt lat="45.3321933" lon="10.6459103"><ele>94.0</ele><time>2026-04-18T09:59:03.033Z</time></trkpt><trkpt lat="45.3320633" lon="10.6458559"><ele>93.0</ele><time>2026-04-18T09:59:04.033Z</time></trkpt><trkpt lat="45.3319313" lon="10.6458064"><ele>92.0</ele><time>2026-04-18T09:59:05.033Z</time></trkpt><trkpt lat="45.3317936" lon="10.6457585"><ele>92.0</ele><time>2026-04-18T09:59:06.033Z</time></trkpt><trkpt lat="45.3316546" lon="10.6457091"><ele>92.0</ele><time>2026-04-18T09:59:07.032Z</time></trkpt><trkpt lat="45.3315153" lon="10.6456577"><ele>92.0</ele><time>2026-04-18T09:59:08.033Z</time></trkpt><trkpt lat="45.3313756" lon="10.6456128"><ele>92.0</ele><time>2026-04-18T09:59:09.033Z</time></trkpt><trkpt lat="45.3312257" lon="10.6455764"><ele>91.0</ele><time>2026-04-18T09:59:10.033Z</time></trkpt><trkpt lat="45.3310686" lon="10.6455561"><ele>90.0</ele><time>2026-04-18T09:59:11.032Z</time></trkpt><trkpt lat="45.330905" lon="10.6455569"><ele>89.0</ele><time>2026-04-18T09:59:12.033Z</time></trkpt><trkpt lat="45.3307419" lon="10.6455727"><ele>89.0</ele><time>2026-04-18T09:59:13.033Z</time></trkpt><trkpt lat="45.3305873" lon="10.6456093"><ele>89.0</ele><time>2026-04-18T09:59:14.033Z</time></trkpt><trkpt lat="45.3304411" lon="10.6456657"><ele>89.0</ele><time>2026-04-18T09:59:15.032Z</time></trkpt><trkpt lat="45.3303066" lon="10.6457274"><ele>89.0</ele><time>2026-04-18T09:59:16.033Z</time></trkpt><trkpt lat="45.3301756" lon="10.6457991"><ele>89.0</ele><time>2026-04-18T09:59:17.033Z</time></trkpt><trkpt lat="45.3300367" lon="10.6458733"><ele>89.0</ele><time>2026-04-18T09:59:18.033Z</time></trkpt><trkpt lat="45.329896" lon="10.6459519"><ele>89.0</ele><time>2026-04-18T09:59:19.033Z</time></trkpt><trkpt lat="45.3297544" lon="10.6460304"><ele>88.33333333333334</ele><time>2026-04-18T09:59:20.033Z</time></trkpt><trkpt lat="45.3296061" lon="10.6460918"><ele>87.66666666666667</ele><time>2026-04-18T09:59:21.033Z</time></trkpt><trkpt lat="45.3294573" lon="10.6461437"><ele>87.0</ele><time>2026-04-18T09:59:22.033Z</time></trkpt><trkpt lat="45.3293114" lon="10.6461655"><ele>87.0</ele><time>2026-04-18T09:59:23.033Z</time></trkpt><trkpt lat="45.3291681" lon="10.6461672"><ele>87.0</ele><time>2026-04-18T09:59:24.033Z</time></trkpt><trkpt lat="45.3290261" lon="10.6461662"><ele>87.0</ele><time>2026-04-18T09:59:25.033Z</time></trkpt><trkpt lat="45.3288835" lon="10.6461466"><ele>87.0</ele><time>2026-04-18T09:59:26.033Z</time></trkpt><trkpt lat="45.3287426" lon="10.6461103"><ele>87.0</ele><time>2026-04-18T09:59:27.033Z</time></trkpt><trkpt lat="45.328602" lon="10.6460599"><ele>87.0</ele><time>2026-04-18T09:59:28.033Z</time></trkpt><trkpt lat="45.3284583" lon="10.6460024"><ele>87.0</ele><time>2026-04-18T09:59:29.033Z</time></trkpt><trkpt lat="45.3283155" lon="10.6459534"><ele>87.0</ele><time>2026-04-18T09:59:30.033Z</time></trkpt><trkpt lat="45.3281778" lon="10.6459043"><ele>89.75</ele><time>2026-04-18T09:59:31.033Z</time></trkpt><trkpt lat="45.3280444" lon="10.6458607"><ele>92.5</ele><time>2026-04-18T09:59:32.033Z</time></trkpt><trkpt lat="45.3279138" lon="10.6458178"><ele>95.25</ele><time>2026-04-18T09:59:33.033Z</time></trkpt><trkpt lat="45.3277829" lon="10.645789"><ele>98.0</ele><time>2026-04-18T09:59:34.033Z</time></trkpt><trkpt lat="45.3276563" lon="10.6457332"><ele>98.0</ele><time>2026-04-18T09:59:35.033Z</time></trkpt><trkpt lat="45.3275276" lon="10.6456743"><ele>98.0</ele><time>2026-04-18T09:59:36.033Z</time></trkpt><trkpt lat="45.3274086" lon="10.6456194"><ele>98.0</ele><time>2026-04-18T09:59:37.033Z</time></trkpt><trkpt lat="45.3272821" lon="10.6455653"><ele>98.0</ele><time>2026-04-18T09:59:38.033Z</time></trkpt><trkpt lat="45.3271576" lon="10.6455132"><ele>101.5</ele><time>2026-04-18T09:59:39.033Z</time></trkpt><trkpt lat="45.3270354" lon="10.6454674"><ele>105.0</ele><time>2026-04-18T09:59:40.032Z</time></trkpt><trkpt lat="45.3269082" lon="10.6454137"><ele>108.5</ele><time>2026-04-18T09:59:41.033Z</time></trkpt><trkpt lat="45.326789" lon="10.6453733"><ele>112.0</ele><time>2026-04-18T09:59:42.033Z</time></trkpt><trkpt lat="45.3266875" lon="10.6453274"><ele>112.0</ele><time>2026-04-18T09:59:43.033Z</time></trkpt><trkpt lat="45.3265757" lon="10.6453018"><ele>112.0</ele><time>2026-04-18T09:59:44.033Z</time></trkpt><trkpt lat="45.3264625" lon="10.6452584"><ele>112.0</ele><time>2026-04-18T09:59:45.033Z</time></trkpt><trkpt lat="45.3263459" lon="10.6452178"><ele>112.0</ele><time>2026-04-18T09:59:46.033Z</time></trkpt><trkpt lat="45.3262273" lon="10.6451896"><ele>113.25</ele><time>2026-04-18T09:59:47.033Z</time></trkpt><trkpt lat="45.3261125" lon="10.64518"><ele>114.5</ele><time>2026-04-18T09:59:48.033Z</time></trkpt><trkpt lat="45.3259936" lon="10.6451847"><ele>115.75</ele><time>2026-04-18T09:59:49.033Z</time></trkpt><trkpt lat="45.3258542" lon="10.6452064"><ele>117.0</ele><time>2026-04-18T09:59:50.032Z</time></trkpt><trkpt lat="45.3257331" lon="10.6452451"><ele>117.0</ele><time>2026-04-18T09:59:51.033Z</time></trkpt><trkpt lat="45.3256169" lon="10.6452907"><ele>117.0</ele><time>2026-04-18T09:59:52.033Z</time></trkpt><trkpt lat="45.3255135" lon="10.6453552"><ele>117.0</ele><time>2026-04-18T09:59:53.033Z</time></trkpt><trkpt lat="45.3254123" lon="10.6454365"><ele>117.0</ele><time>2026-04-18T09:59:54.033Z</time></trkpt><trkpt lat="45.3253246" lon="10.6455415"><ele>115.75</ele><time>2026-04-18T09:59:55.033Z</time></trkpt><trkpt lat="45.3252319" lon="10.6456609"><ele>114.5</ele><time>2026-04-18T09:59:56.033Z</time></trkpt><trkpt lat="45.3251412" lon="10.6458023"><ele>113.25</ele><time>2026-04-18T09:59:57.033Z</time></trkpt><trkpt lat="45.3250587" lon="10.6459556"><ele>112.0</ele><time>2026-04-18T09:59:58.033Z</time></trkpt><trkpt lat="45.3249913" lon="10.6461243"><ele>112.0</ele><time>2026-04-18T09:59:59.033Z</time></trkpt><trkpt lat="45.3249175" lon="10.6462861"><ele>112.0</ele><time>2026-04-18T10:00:00.033Z</time></trkpt><trkpt lat="45.3248499" lon="10.6464481"><ele>112.0</ele><time>2026-04-18T10:00:01.033Z</time></trkpt><trkpt lat="45.3247884" lon="10.646616"><ele>112.0</ele><time>2026-04-18T10:00:02.033Z</time></trkpt><trkpt lat="45.3247283" lon="10.646785"><ele>109.25</ele><time>2026-04-18T10:00:03.033Z</time></trkpt><trkpt lat="45.3246699" lon="10.6469547"><ele>106.5</ele><time>2026-04-18T10:00:04.033Z</time></trkpt><trkpt lat="45.3246012" lon="10.6471263"><ele>103.75</ele><time>2026-04-18T10:00:05.033Z</time></trkpt><trkpt lat="45.324512" lon="10.6472954"><ele>101.0</ele><time>2026-04-18T10:00:06.033Z</time></trkpt><trkpt lat="45.3244118" lon="10.6474485"><ele>101.0</ele><time>2026-04-18T10:00:07.033Z</time></trkpt><trkpt lat="45.3242997" lon="10.6475847"><ele>101.0</ele><time>2026-04-18T10:00:08.033Z</time></trkpt><trkpt lat="45.3241877" lon="10.647698"><ele>101.0</ele><time>2026-04-18T10:00:09.033Z</time></trkpt><trkpt lat="45.3240596" lon="10.6477916"><ele>101.0</ele><time>2026-04-18T10:00:10.033Z</time></trkpt><trkpt lat="45.3239258" lon="10.6478643"><ele>98.25</ele><time>2026-04-18T10:00:11.033Z</time></trkpt><trkpt lat="45.3237913" lon="10.6479121"><ele>95.5</ele><time>2026-04-18T10:00:12.033Z</time></trkpt><trkpt lat="45.323657" lon="10.647934"><ele>92.75</ele><time>2026-04-18T10:00:13.033Z</time></trkpt><trkpt lat="45.323521" lon="10.6479312"><ele>90.0</ele><time>2026-04-18T10:00:14.033Z</time></trkpt><trkpt lat="45.3233833" lon="10.6479185"><ele>90.0</ele><time>2026-04-18T10:00:15.033Z</time></trkpt><trkpt lat="45.3232485" lon="10.6478825"><ele>90.0</ele><time>2026-04-18T10:00:16.033Z</time></trkpt><trkpt lat="45.3231028" lon="10.6478204"><ele>90.0</ele><time>2026-04-18T10:00:17.032Z</time></trkpt><trkpt lat="45.3229579" lon="10.6477494"><ele>90.0</ele><time>2026-04-18T10:00:18.033Z</time></trkpt><trkpt lat="45.32281" lon="10.647676"><ele>86.0</ele><time>2026-04-18T10:00:19.033Z</time></trkpt><trkpt lat="45.3226553" lon="10.6475934"><ele>82.0</ele><time>2026-04-18T10:00:20.033Z</time></trkpt><trkpt lat="45.3225051" lon="10.6475171"><ele>78.0</ele><time>2026-04-18T10:00:21.032Z</time></trkpt><trkpt lat="45.3223491" lon="10.6474362"><ele>76.66666666666667</ele><time>2026-04-18T10:00:22.033Z</time></trkpt><trkpt lat="45.3221914" lon="10.6473585"><ele>75.33333333333334</ele><time>2026-04-18T10:00:23.032Z</time></trkpt><trkpt lat="45.322035" lon="10.6472771"><ele>74.0</ele><time>2026-04-18T10:00:24.033Z</time></trkpt><trkpt lat="45.3218823" lon="10.6471979"><ele>74.0</ele><time>2026-04-18T10:00:25.033Z</time></trkpt><trkpt lat="45.3217356" lon="10.6471244"><ele>74.0</ele><time>2026-04-18T10:00:26.033Z</time></trkpt><trkpt lat="45.3215971" lon="10.647042"><ele>74.0</ele><time>2026-04-18T10:00:27.033Z</time></trkpt><trkpt lat="45.3214568" lon="10.6469544"><ele>72.25</ele><time>2026-04-18T10:00:28.033Z</time></trkpt><trkpt lat="45.3213266" lon="10.6468648"><ele>70.5</ele><time>2026-04-18T10:00:29.033Z</time></trkpt><trkpt lat="45.3212099" lon="10.6467638"><ele>68.75</ele><time>2026-04-18T10:00:30.033Z</time></trkpt><trkpt lat="45.3210922" lon="10.6466361"><ele>67.0</ele><time>2026-04-18T10:00:31.033Z</time></trkpt><trkpt lat="45.3209742" lon="10.6464925"><ele>67.0</ele><time>2026-04-18T10:00:32.033Z</time></trkpt><trkpt lat="45.3208571" lon="10.646342"><ele>67.0</ele><time>2026-04-18T10:00:33.033Z</time></trkpt><trkpt lat="45.3207421" lon="10.646189"><ele>67.0</ele><time>2026-04-18T10:00:34.033Z</time></trkpt><trkpt lat="45.3206249" lon="10.6460334"><ele>65.0</ele><time>2026-04-18T10:00:35.033Z</time></trkpt><trkpt lat="45.3205079" lon="10.6458788"><ele>63.0</ele><time>2026-04-18T10:00:36.033Z</time></trkpt><trkpt lat="45.3203894" lon="10.6457237"><ele>61.0</ele><time>2026-04-18T10:00:37.033Z</time></trkpt><trkpt lat="45.3202744" lon="10.6455686"><ele>61.0</ele><time>2026-04-18T10:00:38.033Z</time></trkpt><trkpt lat="45.3201481" lon="10.6454045"><ele>61.0</ele><time>2026-04-18T10:00:39.033Z</time></trkpt><trkpt lat="45.3200155" lon="10.6452463"><ele>61.0</ele><time>2026-04-18T10:00:40.033Z</time></trkpt><trkpt lat="45.3198875" lon="10.6450952"><ele>60.33333333333333</ele><time>2026-04-18T10:00:41.032Z</time></trkpt><trkpt lat="45.3197607" lon="10.6449608"><ele>59.66666666666667</ele><time>2026-04-18T10:00:42.032Z</time></trkpt><trkpt lat="45.3196325" lon="10.6448469"><ele>59.0</ele><time>2026-04-18T10:00:43.033Z</time></trkpt><trkpt lat="45.3195149" lon="10.644738"><ele>58.800000000000004</ele><time>2026-04-18T10:00:44.033Z</time></trkpt><trkpt lat="45.3194026" lon="10.6446454"><ele>58.60000000000001</ele><time>2026-04-18T10:00:45.033Z</time></trkpt><trkpt lat="45.3192991" lon="10.6445747"><ele>58.4</ele><time>2026-04-18T10:00:46.033Z</time></trkpt><trkpt lat="45.3192093" lon="10.6445109"><ele>58.2</ele><time>2026-04-18T10:00:47.033Z</time></trkpt><trkpt lat="45.3191357" lon="10.6444606"><ele>58.0</ele><time>2026-04-18T10:00:48.033Z</time></trkpt><trkpt lat="45.31904" lon="10.6444184"><ele>58.0</ele><time>2026-04-18T10:00:50.033Z</time></trkpt><trkpt lat="45.3189614" lon="10.644422"><ele>58.0</ele><time>2026-04-18T10:00:53.033Z</time></trkpt><trkpt lat="45.3188983" lon="10.6445614"><ele>58.0</ele><time>2026-04-18T10:00:55.033Z</time></trkpt><trkpt lat="45.3188522" lon="10.6447231"><ele>58.0</ele><time>2026-04-18T10:00:57.033Z</time></trkpt><trkpt lat="45.3188245" lon="10.6448138"><ele>58.0</ele><time>2026-04-18T10:00:58.033Z</time></trkpt><trkpt lat="45.3187958" lon="10.64492"><ele>57.8</ele><time>2026-04-18T10:00:59.033Z</time></trkpt><trkpt lat="45.318765" lon="10.6450348"><ele>57.599999999999994</ele><time>2026-04-18T10:01:00.033Z</time></trkpt><trkpt lat="45.3187311" lon="10.6451531"><ele>57.400000000000006</ele><time>2026-04-18T10:01:01.033Z</time></trkpt><trkpt lat="45.3186991" lon="10.6452958"><ele>57.2</ele><time>2026-04-18T10:01:02.032Z</time></trkpt><trkpt lat="45.3186721" lon="10.6454455"><ele>57.0</ele><time>2026-04-18T10:01:03.033Z</time></trkpt><trkpt lat="45.3186381" lon="10.6456049"><ele>57.0</ele><time>2026-04-18T10:01:04.033Z</time></trkpt><trkpt lat="45.3186004" lon="10.6457742"><ele>57.0</ele><time>2026-04-18T10:01:05.033Z</time></trkpt><trkpt lat="45.318563" lon="10.6459428"><ele>57.0</ele><time>2026-04-18T10:01:06.033Z</time></trkpt><trkpt lat="45.318526" lon="10.6461145"><ele>57.0</ele><time>2026-04-18T10:01:07.033Z</time></trkpt><trkpt lat="45.3184915" lon="10.6462878"><ele>57.0</ele><time>2026-04-18T10:01:08.033Z</time></trkpt><trkpt lat="45.3184538" lon="10.6464717"><ele>57.0</ele><time>2026-04-18T10:01:09.033Z</time></trkpt><trkpt lat="45.3184184" lon="10.6466585"><ele>57.0</ele><time>2026-04-18T10:01:10.033Z</time></trkpt><trkpt lat="45.3183825" lon="10.6468562"><ele>57.0</ele><time>2026-04-18T10:01:11.032Z</time></trkpt><trkpt lat="45.3183436" lon="10.6470444"><ele>57.0</ele><time>2026-04-18T10:01:12.033Z</time></trkpt><trkpt lat="45.3183081" lon="10.6472441"><ele>57.0</ele><time>2026-04-18T10:01:13.033Z</time></trkpt><trkpt lat="45.3182671" lon="10.6474535"><ele>57.0</ele><time>2026-04-18T10:01:14.033Z</time></trkpt><trkpt lat="45.3182255" lon="10.6476618"><ele>57.0</ele><time>2026-04-18T10:01:15.033Z</time></trkpt><trkpt lat="45.3181863" lon="10.6478718"><ele>57.0</ele><time>2026-04-18T10:01:16.033Z</time></trkpt><trkpt lat="45.3181456" lon="10.6480794"><ele>57.0</ele><time>2026-04-18T10:01:17.033Z</time></trkpt><trkpt lat="45.3181086" lon="10.648285"><ele>57.0</ele><time>2026-04-18T10:01:18.033Z</time></trkpt><trkpt lat="45.318074" lon="10.6484767"><ele>57.0</ele><time>2026-04-18T10:01:19.033Z</time></trkpt><trkpt lat="45.3180393" lon="10.6486663"><ele>57.0</ele><time>2026-04-18T10:01:20.033Z</time></trkpt><trkpt lat="45.3180025" lon="10.6488664"><ele>57.0</ele><time>2026-04-18T10:01:21.033Z</time></trkpt><trkpt lat="45.3179609" lon="10.6490795"><ele>57.0</ele><time>2026-04-18T10:01:22.033Z</time></trkpt><trkpt lat="45.3179249" lon="10.6492899"><ele>57.0</ele><time>2026-04-18T10:01:23.033Z</time></trkpt><trkpt lat="45.3178829" lon="10.649498"><ele>57.0</ele><time>2026-04-18T10:01:24.033Z</time></trkpt><trkpt lat="45.3178375" lon="10.6496916"><ele>57.0</ele><time>2026-04-18T10:01:25.033Z</time></trkpt><trkpt lat="45.3177836" lon="10.6498747"><ele>57.25</ele><time>2026-04-18T10:01:26.033Z</time></trkpt><trkpt lat="45.31772" lon="10.6500544"><ele>57.5</ele><time>2026-04-18T10:01:27.032Z</time></trkpt><trkpt lat="45.3176486" lon="10.6502271"><ele>57.75</ele><time>2026-04-18T10:01:28.033Z</time></trkpt><trkpt lat="45.3175669" lon="10.6504012"><ele>58.0</ele><time>2026-04-18T10:01:29.033Z</time></trkpt><trkpt lat="45.317483" lon="10.6505782"><ele>58.33333333333333</ele><time>2026-04-18T10:01:30.033Z</time></trkpt><trkpt lat="45.3173882" lon="10.6507663"><ele>58.66666666666667</ele><time>2026-04-18T10:01:31.033Z</time></trkpt><trkpt lat="45.317293" lon="10.6509518"><ele>59.0</ele><time>2026-04-18T10:01:32.033Z</time></trkpt><trkpt lat="45.3171943" lon="10.6511336"><ele>59.0</ele><time>2026-04-18T10:01:33.033Z</time></trkpt><trkpt lat="45.3170971" lon="10.6513273"><ele>59.0</ele><time>2026-04-18T10:01:34.032Z</time></trkpt><trkpt lat="45.3169974" lon="10.6515148"><ele>59.0</ele><time>2026-04-18T10:01:35.033Z</time></trkpt><trkpt lat="45.3169064" lon="10.6516978"><ele>59.0</ele><time>2026-04-18T10:01:36.033Z</time></trkpt><trkpt lat="45.3168198" lon="10.651867"><ele>59.0</ele><time>2026-04-18T10:01:37.032Z</time></trkpt><trkpt lat="45.3167347" lon="10.6520243"><ele>59.0</ele><time>2026-04-18T10:01:38.033Z</time></trkpt><trkpt lat="45.3166538" lon="10.652183"><ele>59.0</ele><time>2026-04-18T10:01:39.033Z</time></trkpt><trkpt lat="45.3165801" lon="10.6523302"><ele>58.800000000000004</ele><time>2026-04-18T10:01:40.033Z</time></trkpt><trkpt lat="45.3165092" lon="10.6524696"><ele>58.60000000000001</ele><time>2026-04-18T10:01:41.033Z</time></trkpt><trkpt lat="45.3164414" lon="10.6525874"><ele>58.4</ele><time>2026-04-18T10:01:42.033Z</time></trkpt><trkpt lat="45.316367" lon="10.6526824"><ele>58.2</ele><time>2026-04-18T10:01:43.033Z</time></trkpt><trkpt lat="45.3162795" lon="10.6527555"><ele>58.0</ele><time>2026-04-18T10:01:44.033Z</time></trkpt><trkpt lat="45.3162015" lon="10.6528291"><ele>58.33333333333333</ele><time>2026-04-18T10:01:45.033Z</time></trkpt><trkpt lat="45.3161457" lon="10.6529079"><ele>58.666666666666664</ele><time>2026-04-18T10:01:46.033Z</time></trkpt><trkpt lat="45.3161045" lon="10.6529817"><ele>59.0</ele><time>2026-04-18T10:01:47.033Z</time></trkpt><trkpt lat="45.3160824" lon="10.6530731"><ele>59.33333333333333</ele><time>2026-04-18T10:01:48.033Z</time></trkpt><trkpt lat="45.3160671" lon="10.6531815"><ele>59.666666666666664</ele><time>2026-04-18T10:01:49.033Z</time></trkpt><trkpt lat="45.3160331" lon="10.6532941"><ele>60.0</ele><time>2026-04-18T10:01:50.033Z</time></trkpt><trkpt lat="45.3159944" lon="10.6534007"><ele>60.0</ele><time>2026-04-18T10:01:51.033Z</time></trkpt><trkpt lat="45.3159519" lon="10.653497"><ele>60.0</ele><time>2026-04-18T10:01:52.033Z</time></trkpt><trkpt lat="45.3159051" lon="10.6536009"><ele>60.0</ele><time>2026-04-18T10:01:53.032Z</time></trkpt><trkpt lat="45.3158629" lon="10.6537046"><ele>60.0</ele><time>2026-04-18T10:01:54.033Z</time></trkpt><trkpt lat="45.3158029" lon="10.6538257"><ele>60.0</ele><time>2026-04-18T10:01:55.033Z</time></trkpt><trkpt lat="45.3157344" lon="10.6539567"><ele>60.0</ele><time>2026-04-18T10:01:56.033Z</time></trkpt><trkpt lat="45.3156656" lon="10.6540871"><ele>60.0</ele><time>2026-04-18T10:01:57.033Z</time></trkpt><trkpt lat="45.3156056" lon="10.6542174"><ele>60.0</ele><time>2026-04-18T10:01:58.033Z</time></trkpt><trkpt lat="45.3155398" lon="10.6543546"><ele>60.0</ele><time>2026-04-18T10:01:59.033Z</time></trkpt><trkpt lat="45.3154581" lon="10.6545145"><ele>60.5</ele><time>2026-04-18T10:02:00.033Z</time></trkpt><trkpt lat="45.3153679" lon="10.6546796"><ele>61.0</ele><time>2026-04-18T10:02:01.033Z</time></trkpt><trkpt lat="45.3152752" lon="10.6548482"><ele>61.5</ele><time>2026-04-18T10:02:02.033Z</time></trkpt><trkpt lat="45.3151907" lon="10.6550147"><ele>62.0</ele><time>2026-04-18T10:02:03.033Z</time></trkpt><trkpt lat="45.3151033" lon="10.655169"><ele>62.5</ele><time>2026-04-18T10:02:04.033Z</time></trkpt><trkpt lat="45.3150265" lon="10.6553256"><ele>63.0</ele><time>2026-04-18T10:02:05.033Z</time></trkpt><trkpt lat="45.3149479" lon="10.6554894"><ele>63.5</ele><time>2026-04-18T10:02:06.033Z</time></trkpt><trkpt lat="45.3148615" lon="10.655654"><ele>64.0</ele><time>2026-04-18T10:02:07.033Z</time></trkpt><trkpt lat="45.3147685" lon="10.655829"><ele>63.0</ele><time>2026-04-18T10:02:08.032Z</time></trkpt><trkpt lat="45.3146871" lon="10.6560068"><ele>62.0</ele><time>2026-04-18T10:02:09.033Z</time></trkpt><trkpt lat="45.3146089" lon="10.6561809"><ele>61.0</ele><time>2026-04-18T10:02:10.033Z</time></trkpt><trkpt lat="45.3145261" lon="10.6563476"><ele>60.0</ele><time>2026-04-18T10:02:11.033Z</time></trkpt><trkpt lat="45.3144489" lon="10.6565173"><ele>60.0</ele><time>2026-04-18T10:02:12.033Z</time></trkpt><trkpt lat="45.3143739" lon="10.6566882"><ele>60.0</ele><time>2026-04-18T10:02:13.033Z</time></trkpt><trkpt lat="45.3142911" lon="10.6568661"><ele>60.0</ele><time>2026-04-18T10:02:14.033Z</time></trkpt><trkpt lat="45.3142064" lon="10.6570516"><ele>60.0</ele><time>2026-04-18T10:02:15.033Z</time></trkpt><trkpt lat="45.314127" lon="10.6572367"><ele>60.0</ele><time>2026-04-18T10:02:16.033Z</time></trkpt><trkpt lat="45.3140471" lon="10.6574033"><ele>60.0</ele><time>2026-04-18T10:02:17.033Z</time></trkpt><trkpt lat="45.3139732" lon="10.6575667"><ele>60.0</ele><time>2026-04-18T10:02:18.033Z</time></trkpt><trkpt lat="45.3139033" lon="10.657732"><ele>60.0</ele><time>2026-04-18T10:02:19.033Z</time></trkpt><trkpt lat="45.3138347" lon="10.657886"><ele>60.0</ele><time>2026-04-18T10:02:20.033Z</time></trkpt><trkpt lat="45.3137702" lon="10.6580275"><ele>60.0</ele><time>2026-04-18T10:02:21.033Z</time></trkpt><trkpt lat="45.3137112" lon="10.6581503"><ele>60.0</ele><time>2026-04-18T10:02:22.033Z</time></trkpt><trkpt lat="45.3136561" lon="10.6582527"><ele>60.0</ele><time>2026-04-18T10:02:23.033Z</time></trkpt><trkpt lat="45.3135881" lon="10.6583325"><ele>60.0</ele><time>2026-04-18T10:02:24.033Z</time></trkpt><trkpt lat="45.3135156" lon="10.6583886"><ele>60.0</ele><time>2026-04-18T10:02:25.033Z</time></trkpt><trkpt lat="45.3134462" lon="10.6584536"><ele>60.0</ele><time>2026-04-18T10:02:26.033Z</time></trkpt><trkpt lat="45.3133797" lon="10.6585284"><ele>60.0</ele><time>2026-04-18T10:02:27.033Z</time></trkpt><trkpt lat="45.3133166" lon="10.6586018"><ele>60.0</ele><time>2026-04-18T10:02:28.033Z</time></trkpt><trkpt lat="45.313256" lon="10.6586615"><ele>60.0</ele><time>2026-04-18T10:02:29.033Z</time></trkpt><trkpt lat="45.3131509" lon="10.6587378"><ele>60.0</ele><time>2026-04-18T10:02:31.033Z</time></trkpt><trkpt lat="45.313073" lon="10.6587995"><ele>60.0</ele><time>2026-04-18T10:02:33.032Z</time></trkpt><trkpt lat="45.3130586" lon="10.6589237"><ele>60.0</ele><time>2026-04-18T10:02:36.033Z</time></trkpt><trkpt lat="45.3131038" lon="10.6590263"><ele>60.0</ele><time>2026-04-18T10:02:38.032Z</time></trkpt><trkpt lat="45.3131235" lon="10.6591886"><ele>60.0</ele><time>2026-04-18T10:02:40.033Z</time></trkpt><trkpt lat="45.3131525" lon="10.659334"><ele>60.0</ele><time>2026-04-18T10:02:42.033Z</time></trkpt><trkpt lat="45.3131666" lon="10.6594555"><ele>59.8</ele><time>2026-04-18T10:02:44.032Z</time></trkpt><trkpt lat="45.3131088" lon="10.6595488"><ele>59.6</ele><time>2026-04-18T10:02:47.033Z</time></trkpt><trkpt lat="45.3130152" lon="10.6595082"><ele>59.400000000000006</ele><time>2026-04-18T10:02:50.033Z</time></trkpt><trkpt lat="45.3129241" lon="10.6595224"><ele>59.2</ele><time>2026-04-18T10:02:52.033Z</time></trkpt><trkpt lat="45.3128251" lon="10.6595758"><ele>59.0</ele><time>2026-04-18T10:02:54.033Z</time></trkpt><trkpt lat="45.3127226" lon="10.6596642"><ele>58.400000000000006</ele><time>2026-04-18T10:02:56.033Z</time></trkpt><trkpt lat="45.312625" lon="10.6597035"><ele>57.800000000000004</ele><time>2026-04-18T10:02:58.033Z</time></trkpt><trkpt lat="45.3125137" lon="10.6597054"><ele>57.199999999999996</ele><time>2026-04-18T10:03:00.033Z</time></trkpt><trkpt lat="45.3124006" lon="10.6597015"><ele>56.599999999999994</ele><time>2026-04-18T10:03:02.033Z</time></trkpt><trkpt lat="45.3123175" lon="10.659674"><ele>56.0</ele><time>2026-04-18T10:03:04.033Z</time></trkpt><trkpt lat="45.3122408" lon="10.6596156"><ele>56.0</ele><time>2026-04-18T10:07:36.033Z</time></trkpt></trkseg></trk></gpx>